[[{"header":{"parameterUnit":"m.s-1","parameterCategory":1,"la1":30.6,"la2":29.2853,"lo1":-89.7004,"lo2":-87.6739,"dy":0.0162,"dx":0.0183,"nx":112,"ny":82,"refTime":"2024-09-22T12:00:00:Z","depth":0,"parameterNumber":2,"parameterNumberName":"U-component_of_WINDS"},"data":[0.0,0.0,0.0,0.0,0.0,0.0,0.0,0.0,0.0,0.0,0.0,0.0,0.0,0.0,0.0,0.0,0.0,0.0,0.0,0.0,0.0,0.0,0.0,0.0,0.0,0.0,0.0,0.0,0.0,0.0,0.0,0.0,0.0,0.0,0.0,0.0,0.0,0.0,0.0,0.0,0.0,0.0,0.0,0.0,0.0,0.0,0.0,0.0,0.0,0.0,0.0,0.0,0.0,0.0,0.0,0.0,0.0,0.0,0.0,0.0,0.0,0.0,0.0,0.0,0.0,0.0,0.0,0.0,0.0,0.0,0.0,0.0,0.0,0.0,0.0,0.0,0.0,0.0,0.0,0.0,0.0,0.0,0.0,0.0,0.0,0.0,0.0,0.0,0.0,0.0,-1.5365,-1.899,-2.2001,-2.3728,-2.3634,-2.3941,-2.3273,-2.1243,0.0,0.0,0.0,0.0,0.0,0.0,0.0,0.0,0.0,0.0,0.0,0.0,0.0,0.0,0.0,0.0,0.0,0.0,0.0,0.0,0.0,0.0,0.0,0.0,0.0,0.0,0.0,0.0,0.0,0.0,0.0,0.0,0.0,0.0,0.0,0.0,0.0,0.0,0.0,0.0,0.0,0.0,0.0,0.0,0.0,0.0,0.0,0.0,0.0,0.0,0.0,0.0,0.0,0.0,0.0,0.0,0.0,0.0,0.0,0.0,0.0,0.0,0.0,0.0,0.0,0.0,0.0,0.0,0.0,0.0,0.0,0.0,0.0,0.0,0.0,0.0,0.0,0.0,0.0,0.0,0.0,0.0,0.0,0.0,0.0,0.0,0.0,0.0,0.0,0.0,0.0,0.0,0.0,0.0,0.0,0.0,0.0,0.0,0.0,0.0,0.0,0.0,0.0,0.0,-1.7047,-2.0017,-2.2345,-2.3554,-2.3046,-2.3514,-2.306,-2.1229,0.0,0.0,0.0,0.0,0.0,0.0,0.0,0.0,0.0,0.0,0.0,0.0,0.0,0.0,0.0,0.0,0.0,0.0,0.0,0.0,0.0,0.0,0.0,0.0,0.0,0.0,0.0,0.0,0.0,0.0,0.0,0.0,0.0,0.0,0.0,0.0,0.0,0.0,0.0,0.0,0.0,0.0,0.0,0.0,0.0,0.0,0.0,0.0,0.0,0.0,0.0,0.0,0.0,0.0,0.0,0.0,0.0,0.0,0.0,0.0,0.0,0.0,0.0,0.0,0.0,0.0,0.0,0.0,0.0,0.0,0.0,0.0,0.0,0.0,0.0,0.0,0.0,0.0,0.0,0.0,0.0,0.0,0.0,0.0,0.0,0.0,0.0,0.0,0.0,0.0,0.0,0.0,0.0,0.0,0.0,0.0,0.0,0.0,0.0,0.0,0.0,0.0,0.0,-1.6467,-1.8753,-2.176,-2.2871,-2.342,-2.314,-2.3367,-2.2766,-2.0989,-2.0722,0.0,0.0,0.0,0.0,0.0,0.0,0.0,0.0,0.0,0.0,0.0,0.0,0.0,0.0,0.0,0.0,0.0,0.0,0.0,0.0,0.0,0.0,0.0,0.0,0.0,0.0,0.0,0.0,0.0,0.0,0.0,0.0,0.0,0.0,0.0,0.0,0.0,0.0,0.0,0.0,0.0,0.0,0.0,0.0,0.0,0.0,0.0,0.0,0.0,0.0,0.0,0.0,0.0,0.0,0.0,0.0,0.0,0.0,0.0,0.0,0.0,0.0,0.0,0.0,0.0,0.0,0.0,0.0,0.0,0.0,0.0,0.0,0.0,0.0,0.0,0.0,0.0,0.0,0.0,0.0,0.0,0.0,0.0,0.0,0.0,0.0,0.0,0.0,0.0,0.0,0.0,0.0,0.0,0.0,0.0,0.0,0.0,0.0,0.0,0.0,0.0,0.0,-1.7662,-1.9499,-2.2357,-2.3034,-2.33,-2.322,-2.3086,-2.2338,-2.0775,-2.0201,0.0,0.0,0.0,0.0,0.0,0.0,0.0,0.0,0.0,0.0,0.0,0.0,0.0,0.0,0.0,0.0,0.0,0.0,0.0,0.0,0.0,0.0,0.0,0.0,0.0,0.0,0.0,0.0,0.0,0.0,0.0,0.0,0.0,0.0,0.0,0.0,0.0,0.0,0.0,0.0,0.0,0.0,0.0,0.0,0.0,0.0,0.0,0.0,0.0,0.0,0.0,0.0,0.0,0.0,0.0,0.0,0.0,0.0,0.0,0.0,0.0,0.0,0.0,0.0,0.0,0.0,0.0,0.0,0.0,0.0,0.0,0.0,0.0,0.0,0.0,0.0,0.0,0.0,0.0,0.0,0.0,0.0,0.0,0.0,0.0,0.0,0.0,0.0,0.0,0.0,0.0,0.0,0.0,0.0,0.0,0.0,0.0,0.0,0.0,0.0,0.0,0.0,-1.6807,-1.8131,-2.0403,-2.2307,-2.3207,-2.2926,-2.2392,-2.1683,-2.0735,-1.9626,0.0,0.0,0.0,0.0,0.0,0.0,0.0,0.0,0.0,0.0,0.0,0.0,0.0,0.0,0.0,0.0,0.0,0.0,0.0,0.0,0.0,0.0,0.0,0.0,0.0,0.0,0.0,0.0,0.0,0.0,0.0,0.0,0.0,0.0,0.0,0.0,0.0,0.0,0.0,0.0,0.0,0.0,0.0,0.0,0.0,0.0,0.0,0.0,0.0,0.0,0.0,0.0,0.0,0.0,0.0,0.0,0.0,0.0,0.0,0.0,0.0,0.0,0.0,0.0,0.0,0.0,0.0,0.0,0.0,0.0,0.0,0.0,0.0,0.0,0.0,0.0,0.0,0.0,0.0,0.0,0.0,0.0,0.0,0.0,0.0,0.0,0.0,0.0,0.0,0.0,0.0,0.0,0.0,0.0,0.0,0.0,0.0,0.0,0.0,0.0,0.0,0.0,-1.7829,-1.914,-2.1685,-2.2605,-2.2993,-2.2873,-2.2485,-2.1724,-2.0481,0.0,0.0,0.0,0.0,0.0,0.0,0.0,0.0,0.0,0.0,0.0,0.0,0.0,0.0,0.0,0.0,0.0,0.0,0.0,0.0,0.0,0.0,0.0,0.0,0.0,0.0,0.0,0.0,0.0,0.0,0.0,0.0,0.0,0.0,0.0,0.0,0.0,0.0,0.0,0.0,0.0,0.0,0.0,0.0,0.0,0.0,0.0,0.0,0.0,0.0,0.0,0.0,0.0,0.0,0.0,0.0,0.0,0.0,0.0,0.0,0.0,0.0,0.0,0.0,0.0,0.0,0.0,0.0,0.0,0.0,0.0,0.0,0.0,0.0,0.0,0.0,0.0,0.0,0.0,0.0,0.0,0.0,0.0,0.0,0.0,0.0,0.0,0.0,0.0,0.0,0.0,0.0,0.0,0.0,0.0,0.0,0.0,0.0,0.0,0.0,0.0,0.0,-1.5489,-1.7217,-1.8924,-2.0833,-2.216,-2.2859,-2.2859,-2.2338,-2.1496,-2.0307,0.0,0.0,0.0,0.0,0.0,0.0,0.0,0.0,0.0,0.0,0.0,0.0,0.0,0.0,0.0,0.0,0.0,0.0,0.0,0.0,0.0,0.0,0.0,0.0,0.0,0.0,0.0,0.0,0.0,0.0,0.0,0.0,0.0,0.0,0.0,0.0,0.0,0.0,0.0,0.0,0.0,0.0,0.0,0.0,0.0,0.0,0.0,0.0,0.0,0.0,0.0,0.0,0.0,0.0,0.0,0.0,0.0,0.0,0.0,0.0,0.0,0.0,0.0,0.0,0.0,0.0,0.0,0.0,0.0,0.0,0.0,0.0,0.0,0.0,0.0,0.0,0.0,0.0,0.0,0.0,0.0,0.0,0.0,0.0,0.0,0.0,0.0,0.0,0.0,0.0,0.0,0.0,0.0,0.0,0.0,0.0,0.0,0.0,0.0,0.0,0.0,0.0,-1.0473,-1.4402,-1.7258,-1.7258,-2.0617,-2.2859,-2.2859,-2.179,-2.0743,0.0,0.0,0.0,0.0,0.0,0.0,0.0,0.0,0.0,0.0,0.0,0.0,0.0,0.0,0.0,0.0,0.0,0.0,0.0,0.0,0.0,0.0,0.0,0.0,0.0,0.0,0.0,0.0,0.0,0.0,0.0,0.0,0.0,0.0,0.0,0.0,0.0,0.0,0.0,0.0,0.0,0.0,0.0,0.0,0.0,0.0,0.0,0.0,0.0,0.0,0.0,0.0,0.0,0.0,0.0,0.0,0.0,0.0,0.0,0.0,0.0,0.0,0.0,0.0,0.0,0.0,0.0,0.0,0.0,0.0,0.0,0.0,0.0,0.0,0.0,0.0,0.0,0.0,0.0,0.0,0.0,0.0,0.0,0.0,0.0,0.0,0.0,0.0,0.0,0.0,0.0,0.0,0.0,0.0,0.0,0.0,0.0,0.0,0.0,0.0,0.0,0.0,0.0,-1.3864,-1.6108,-1.7907,-1.9193,-2.0308,-2.0894,-2.0894,-1.9036,-1.8018,-1.8165,0.0,0.0,0.0,0.0,0.0,0.0,0.0,0.0,0.0,0.0,0.0,0.0,0.0,0.0,0.0,0.0,0.0,0.0,0.0,0.0,0.0,0.0,0.0,0.0,0.0,0.0,0.0,0.0,0.0,0.0,0.0,0.0,0.0,0.0,0.0,0.0,0.0,0.0,0.0,0.0,0.0,0.0,0.0,0.0,0.0,0.0,0.0,0.0,0.0,0.0,0.0,0.0,0.0,0.0,0.0,0.0,0.0,0.0,0.0,0.0,0.0,0.0,0.0,0.0,0.0,0.0,0.0,0.0,0.0,0.0,0.0,0.0,0.0,0.0,0.0,0.0,0.0,0.0,0.0,0.0,0.0,0.0,0.0,0.0,0.0,0.0,0.0,0.0,0.0,0.0,0.0,0.0,0.0,0.0,0.0,0.0,0.0,0.0,0.0,0.0,0.0,0.0,-1.3541,-1.5356,-1.6808,-1.7878,-1.8595,-1.9038,-1.8938,-1.8298,-1.7796,-1.7575,0.0,0.0,0.0,0.0,0.0,0.0,0.0,0.0,0.0,0.0,0.0,0.0,0.0,0.0,0.0,0.0,0.0,0.0,0.0,0.0,0.0,0.0,0.0,0.0,0.0,0.0,0.0,0.0,0.0,0.0,0.0,0.0,0.0,0.0,0.0,0.0,0.0,0.0,0.0,0.0,0.0,0.0,0.0,0.0,0.0,0.0,0.0,0.0,0.0,0.0,0.0,0.0,0.0,0.0,0.0,0.0,0.0,0.0,0.0,0.0,0.0,0.0,0.0,0.0,0.0,0.0,0.0,0.0,0.0,0.0,0.0,0.0,0.0,0.0,0.0,0.0,0.0,0.0,0.0,0.0,0.0,0.0,0.0,0.0,0.0,0.0,0.0,0.0,0.0,0.0,0.0,0.0,0.0,0.0,0.0,0.0,0.0,0.0,0.0,0.0,0.0,0.0,-1.0948,-1.3309,-1.4922,-1.4762,-1.6424,-1.746,-1.7268,-1.8567,-1.8974,-1.7978,0.0,0.0,0.0,0.0,0.0,0.0,0.0,0.0,0.0,0.0,0.0,0.0,0.0,0.0,0.0,0.0,0.0,0.0,0.0,0.0,0.0,0.0,0.0,0.0,0.0,0.0,0.0,0.0,0.0,0.0,0.0,0.0,0.0,0.0,0.0,0.0,0.0,0.0,0.0,0.0,0.0,0.0,0.0,0.0,0.0,0.0,0.0,0.0,0.0,0.0,0.0,0.0,0.0,0.0,0.0,0.0,0.0,0.0,0.0,0.0,-0.0,-0.0,0.0,0.0,0.0,0.0,0.0,0.0,0.0,0.0,0.0,0.0,0.0,0.0,0.0,0.0,0.0,0.0,0.0,0.0,0.0,0.0,0.0,0.0,0.0,0.0,0.0,0.0,0.0,0.0,0.0,0.0,0.0,0.0,0.0,0.0,0.0,0.0,0.0,0.0,0.0,0.0,-1.126,-1.345,-1.4817,-1.4931,-1.6243,-1.7298,-1.7258,-1.7462,-1.769,-1.8233,-1.8072,0.0,0.0,0.0,0.0,0.0,0.0,0.0,0.0,0.0,0.0,0.0,0.0,0.0,0.0,0.0,0.0,0.0,0.0,0.0,0.0,0.0,0.0,0.0,0.0,0.0,0.0,0.0,0.0,0.0,0.0,0.0,0.0,0.0,0.0,0.0,0.0,0.0,0.0,0.0,0.0,0.0,0.0,0.0,0.0,0.0,0.0,0.0,0.0,0.0,0.0,0.0,0.0,0.0,0.0,0.0,0.0,0.0,0.0,0.0,-0.0,-0.0,0.0,0.0,0.0,0.0,0.0,0.0,0.0,0.0,0.0,0.0,0.0,0.0,0.0,0.0,0.0,0.0,0.0,0.0,0.0,0.0,0.0,0.0,0.0,0.0,0.0,0.0,0.0,0.0,0.0,0.0,0.0,0.0,0.0,0.0,0.0,0.0,0.0,0.0,0.0,0.0,-1.1443,-1.2692,-1.3527,-1.3527,-1.4156,-1.4534,-1.4449,-1.5325,-1.5872,-1.6012,-1.6431,0.0,0.0,0.0,0.0,0.0,0.0,0.0,0.0,0.0,0.0,0.0,0.0,0.0,0.0,0.0,0.0,0.0,0.0,0.0,0.0,0.0,0.0,0.0,0.0,0.0,0.0,0.0,0.0,0.0,0.0,0.0,0.0,0.0,0.0,0.0,0.0,0.0,0.0,0.0,0.0,0.0,0.0,0.0,0.0,0.0,0.0,0.0,0.0,0.0,0.0,0.0,0.0,0.0,-0.0,-0.0,-0.0,-0.0,-0.0,-0.0,-0.0,-0.0,-0.0,-0.0,0.0,0.0,0.0,0.0,0.0,0.0,0.0,0.0,0.0,0.0,0.0,0.0,0.0,0.0,0.0,0.0,0.0,0.0,0.0,0.0,0.0,0.0,-1.1837,-1.1925,-1.2067,-1.2006,-1.1355,0.0,0.0,0.0,0.0,0.0,0.0,0.0,0.0,0.0,0.0,0.0,-1.1552,-1.1877,-1.2054,-1.2026,-1.2171,-1.217,-1.2051,-1.3872,-1.471,-1.4079,-1.5222,-1.5643,0.0,0.0,0.0,0.0,0.0,0.0,0.0,0.0,0.0,0.0,0.0,0.0,0.0,0.0,0.0,0.0,0.0,0.0,0.0,0.0,0.0,0.0,0.0,0.0,0.0,0.0,0.0,0.0,0.0,0.0,0.0,0.0,1.0568,1.0622,0.0,0.0,0.0,0.0,0.0,0.0,0.0,0.0,0.0,0.0,0.0,0.0,0.0,0.1266,0.1296,0.0438,-0.0,-0.0,-0.0,-0.0,-0.0,-0.0,-0.0,-0.0,-0.0,0.0,-0.0,-0.0,0.0,0.0,0.0,0.0,0.0,0.0,0.0,0.0,0.0,0.0,0.0,0.0,0.0,0.0,0.0,0.0,0.0,0.0,0.0,0.0,0.0,0.0,-1.2556,-1.244,-1.2528,-1.2576,-1.2345,-1.1667,-1.109,-1.1056,-1.0853,-1.0663,0.0,0.0,0.0,0.0,0.0,0.0,-1.1592,-1.1877,-1.2013,-1.1877,-1.3153,-1.403,-1.4014,-1.5698,-1.6718,-1.6324,-1.638,-1.6131,-1.5722,-1.5199,0.0,0.0,0.0,0.0,0.0,0.0,0.0,0.0,0.0,0.0,0.0,0.0,0.0,0.0,0.0,0.0,0.0,0.0,0.0,0.0,0.0,0.0,0.0,0.0,0.0,0.0,0.0,0.0,0.0,1.0629,1.1063,1.0975,1.0968,1.0853,0.0,0.0,0.0,0.0,0.0,0.0,0.0,0.0,0.0,0.4348,0.145,-0.0,-0.0,-0.0,-0.0,-0.0,-0.0,-0.0,-0.0,-0.0,-0.0,-0.0,-0.0,-0.0,-0.0,-0.0,-0.0,-0.0,0.0,0.0,0.0,0.0,-0.2128,-0.5517,-0.8232,-1.0342,-1.1791,-1.164,0.0,0.0,0.0,0.0,0.0,0.0,0.0,-1.1694,-1.2006,-1.2406,-1.2732,-1.2759,-1.2874,-1.2942,-1.2793,-1.2318,-1.1843,-1.1586,-1.143,-1.124,-1.0907,-1.0792,0.0,0.0,0.0,-1.1375,-1.1694,-1.1782,-1.1816,-1.183,-1.2417,-1.2888,-1.2888,-1.3595,-1.3981,-1.3899,-1.3817,-1.3555,-1.3376,-1.3923,-1.4426,0.0,0.0,0.0,0.0,0.0,0.0,0.0,0.0,0.0,0.0,0.0,0.0,0.0,0.0,0.0,0.0,0.0,0.0,0.0,0.0,0.0,0.0,0.0,0.0,0.0,0.0,0.0,0.0,1.107,1.1477,1.1246,1.1355,1.1274,0.0,0.0,0.0,0.0,0.0,0.0,1.0593,0.9023,0.5583,0.015,-0.0,-0.0,-0.0,-0.0,-0.0,-0.0,-0.0,-0.0,-0.0,-0.0,-0.0,-0.0,-0.0,-0.0,-0.0,-0.0,-0.0,-0.0,-0.0,-0.0,-0.0,-0.0,-0.0,-0.1034,-0.8173,-1.103,-1.1479,-1.1824,-1.2038,-1.1809,-1.1369,0.0,0.0,0.0,0.0,-1.1877,-1.225,-1.2562,-1.282,-1.2935,-1.3098,-1.318,-1.3003,-1.2779,-1.2488,-1.2033,-1.1918,-1.1735,-1.126,-1.1172,0.0,-1.1172,-1.1267,-1.147,-1.1843,-1.1796,-1.1755,-1.1823,-1.1735,-1.166,-1.1619,-1.1619,-1.1619,-1.1619,-1.1619,-1.1565,-1.1457,-1.2447,-1.3093,-1.341,0.0,0.0,0.0,0.0,0.0,0.0,0.0,0.0,0.0,0.0,0.0,0.0,0.0,0.0,0.0,0.0,0.0,0.0,0.0,0.0,0.0,0.0,0.0,0.0,0.0,0.0,0.0,0.0,0.0,1.143,1.1884,0.0,0.0,0.0,0.0,1.077,0.7567,0.7152,1.0571,0.4204,0.0304,-0.0,-0.0,-0.0,-0.0,-0.0,-0.0,-0.0,-0.0,-0.0,-0.0,-0.0,-0.0,-0.0,-0.0,-0.0,-0.0,-0.0,-0.0,-0.0,-0.0,-0.0,-0.0,-0.0,-0.0,-0.0755,-0.6288,-0.8251,-0.8629,-1.1478,-1.2298,-1.2047,-1.2013,-1.1904,0.0,0.0,-1.2142,-1.2291,-1.2447,-1.2718,-1.2949,-1.2963,-1.318,-1.3308,-1.3024,-1.2949,-1.2807,-1.2352,-1.2149,-1.1993,-1.1816,0.0,-1.1789,-1.1789,-1.1789,-1.1857,-1.2026,-1.2047,-1.1986,-1.1843,-1.1823,-1.1769,-1.1633,-1.1619,-1.1619,-1.1619,-1.1619,-1.1613,-1.1606,-1.1599,-1.2292,-1.3464,-1.3228,0.0,0.0,0.0,0.0,0.0,0.0,0.0,0.0,0.0,0.0,0.0,0.0,0.0,0.0,0.0,0.0,0.0,0.0,0.0,0.0,0.0,0.0,0.0,0.0,0.0,0.0,0.0,0.0,1.1843,1.2101,0.0,1.1565,1.1613,1.1418,1.1059,0.7765,0.517,0.3891,0.1409,-0.0,-0.0,-0.0,-0.0,-0.0,-0.0,-0.0,-0.0,-0.0,-0.0,-0.0,-0.0,-0.0,-0.0,-0.0,-0.0,-0.0,-0.0,-0.0,-0.0,-0.0,-0.0,-0.0,-0.0,-0.0,-0.0313,-0.2187,-0.6375,-1.1041,-1.2212,-1.24,-1.221,-1.221,-1.2101,-1.2013,-1.2162,-1.225,-1.2325,-1.2467,-1.2732,-1.2963,-1.2963,-1.3186,-1.3342,-1.3139,-1.3024,-1.2915,-1.2752,-1.2447,-1.2162,-1.2006,-1.1979,-1.1945,-1.1843,-1.1918,-1.1965,-1.1918,-1.1999,-1.1965,-1.1721,-1.1775,-1.1809,-1.1762,-1.1674,-1.166,-1.1748,-1.1674,-1.1619,-1.1619,-1.1619,-1.1851,-1.2299,-1.1971,-1.2359,0.0,0.0,0.0,0.0,0.0,0.0,0.0,0.0,0.0,0.0,0.0,0.0,0.0,0.0,0.0,0.0,0.0,0.0,0.0,0.0,0.0,0.0,0.0,0.0,0.0,1.1755,1.2121,1.2067,1.2372,1.2406,1.1952,1.2047,1.1874,1.1511,0.7885,0.4081,0.0161,-0.0,-0.0,-0.0,-0.0,-0.0,-0.0,-0.0,-0.0,-0.0,-0.0,-0.0,-0.0,-0.0,-0.0,-0.0,-0.0,-0.0,-0.0,-0.0,-0.0,-0.0,-0.0,-0.0,-0.0,-0.0,-0.0,-0.0,-0.0,-0.4547,-1.0699,-1.2089,-1.2467,-1.2359,-1.2359,-1.2291,-1.223,-1.2332,-1.2359,-1.2386,-1.2474,-1.2732,-1.2963,-1.2963,-1.3186,-1.3356,-1.3207,-1.3098,-1.3017,-1.2969,-1.2678,-1.2406,-1.2305,-1.2284,-1.2237,-1.2081,-1.2101,-1.2101,-1.1999,-1.2026,-1.1986,-1.1789,-1.185,-1.1884,-1.1837,-1.1742,-1.1708,-1.1755,-1.1674,-1.1619,-1.1619,-1.1619,-1.1619,-1.1619,-1.1423,-1.1717,-1.2327,0.0,0.0,0.0,0.0,0.0,0.0,0.0,0.0,0.0,0.0,0.0,0.0,0.0,0.0,0.0,0.0,0.0,0.0,0.0,0.0,0.0,0.0,0.0,1.1382,1.1925,1.225,1.2108,1.2732,1.2888,1.2169,1.2488,1.2548,1.2148,0.8251,0.4328,0.0163,-0.0,-0.0,-0.0,-0.0,-0.0,-0.0,-0.0,-0.0,-0.0,-0.0,-0.0,-0.0,-0.0,-0.0,-0.0,-0.0,-0.0,-0.0,-0.0,-0.0,-0.0,-0.0,-0.0,-0.0,-0.0,-0.0,-0.0,-0.0,-0.2658,-0.6885,-1.1131,-1.2535,-1.2508,-1.2501,-1.2501,-1.2501,-1.2501,-1.2508,-1.2508,-1.2508,-1.2739,-1.2969,-1.2969,-1.3193,-1.3363,-1.3214,-1.3173,-1.3132,-1.3003,-1.2847,-1.2745,-1.2739,-1.2732,-1.2678,-1.2528,-1.2386,0.0,-1.2291,-1.2162,-1.2074,-1.206,-1.2067,-1.2006,-1.1857,-1.1837,-1.1775,-1.164,-1.1626,-1.1619,-1.1633,-1.1633,-1.1633,-1.164,-1.164,-1.164,-1.1633,0.0,0.0,0.0,0.0,0.0,0.0,0.0,0.0,0.0,0.0,0.0,0.0,0.0,0.0,0.0,0.0,0.0,0.0,0.0,0.0,0.0,1.1294,1.1545,1.1687,1.223,1.2637,1.2705,1.2983,1.3091,1.2888,1.2749,1.2816,1.2754,1.1481,0.7585,0.0334,-0.0,-0.0,-0.0,-0.0,-0.0,-0.0,-0.0,-0.0,-0.0,-0.0,-0.0,-0.0,-0.0,-0.0,-0.0,-0.0,-0.0,-0.0,-0.0,-0.0,-0.0,-0.0,-0.0,-0.0,-0.0,-0.0,-0.0,-0.0,-0.0788,-0.2846,-1.0074,-1.2481,-1.2521,-1.2542,-1.2501,-1.2501,-1.2501,-1.2583,-1.2664,-1.2664,-1.2888,-1.3112,-1.3112,-1.3261,-1.339,-1.3349,-1.3254,-1.3193,-1.3268,-1.3159,-1.3017,-1.2915,-1.2807,-1.2718,-1.2671,-1.2542,-1.2406,-1.2305,-1.2345,-1.2298,-1.2088,-1.2162,-1.221,-1.2169,-1.1959,-1.1864,-1.1938,-1.1735,-1.1714,-1.1932,-1.1938,-1.1993,-1.2101,-1.2108,-1.2054,0.0,0.0,0.0,0.0,0.0,0.0,0.0,0.0,0.0,0.0,0.0,0.0,0.0,0.0,0.0,0.0,0.0,0.0,0.0,0.0,0.0,0.0,1.1748,1.202,1.2101,1.2467,1.2807,1.3024,1.318,1.3241,1.318,1.3186,1.2213,1.041,1.1842,0.9068,0.0509,-0.0,-0.0,-0.0,-0.0,-0.0,-0.0,-0.0,-0.0,-0.0,-0.0,-0.0,-0.0,-0.0,-0.0,-0.0,-0.0,-0.0,-0.0,-0.0,-0.0,-0.0,0.0,0.0,0.0,0.0,-0.0,-0.0,-0.0,-0.0,-0.0795,-0.5658,-0.9641,-1.243,-1.2576,-1.2556,-1.2596,-1.2596,-1.2705,-1.2827,-1.2827,-1.2996,-1.3173,-1.3173,-1.3288,-1.3403,-1.3403,-1.3329,-1.3295,-1.3383,-1.3329,0.0,-1.3159,-1.2969,-1.2807,-1.2739,-1.2603,-1.2447,-1.2311,-1.2366,-1.2345,-1.2176,-1.2291,-1.2379,-1.2379,-1.2271,0.0,0.0,0.0,-1.2067,-1.2237,-1.2311,0.0,0.0,0.0,0.0,0.0,0.0,0.0,0.0,-1.7817,-2.0022,0.0,0.0,0.0,0.0,0.0,0.0,0.0,0.0,0.0,0.0,0.0,0.0,0.0,0.0,0.0,0.0,1.2244,1.2542,1.2569,1.2691,1.2874,1.3139,1.3308,1.3356,1.3234,1.3376,1.1397,0.6629,0.9751,0.8327,0.0343,-0.0,0.0,0.0,0.0,-0.0,-0.0,-0.0,-0.0,-0.0,-0.0,-0.0,-0.0,-0.0,-0.0,-0.0,-0.0,-0.0,-0.0,-0.0,-0.0,-0.0,-0.0,-0.0,-0.0,-0.0,-0.0,-0.0,-0.0,0.0,0.0,-0.0,-0.5379,-1.1994,-1.2331,-1.2678,-1.2759,-1.2759,-1.2868,-1.299,-1.301,-1.3105,-1.3207,-1.3241,-1.3342,-1.3424,-1.3424,-1.3424,-1.3424,-1.3403,-1.3403,-1.3403,-1.3403,-1.3173,-1.2935,-1.28,-1.2651,-1.2508,-1.2379,-1.2366,-1.2366,-1.2366,-1.2494,0.0,-1.2556,-1.2678,-1.2691,-1.2535,-1.2542,-1.2569,-1.2603,-1.2766,-1.2922,-1.3057,-1.3498,-1.3851,-1.4095,-1.4414,-1.5621,-1.7356,-1.6566,-1.8989,0.0,0.0,0.0,0.0,0.0,0.0,0.0,0.0,0.0,0.0,0.0,0.0,0.0,0.0,0.0,1.2149,1.2474,1.2773,1.301,1.3071,1.3112,1.3166,1.3308,1.3437,1.3532,1.36,1.1775,0.7024,0.4126,0.1898,0.0173,-0.0,-0.0,-0.0,-0.0,-0.0,-0.0,-0.0,-0.0,-0.0,-0.0,0.0,-0.0,-0.0,-0.0,-0.0,-0.0,-0.0,-0.0,-0.0,-0.0,-0.0,-0.0,-0.0,-0.0,-0.0,-0.0,-0.0,-0.0,-0.0,-0.0,-0.0,-0.3565,-0.8495,-1.182,-1.2915,0.0,-1.2915,-1.3024,-1.3159,-1.3281,-1.3336,-1.3417,-1.3654,-1.3648,-1.3587,-1.3587,-1.3587,-1.3546,-1.3424,-1.3403,-1.3403,-1.3403,-1.3254,-1.3119,-1.3091,-1.2963,-1.2861,-1.2834,-1.2834,-1.2834,-1.2834,-1.2956,-1.2996,-1.2881,-1.2901,-1.2854,-1.2698,-1.2807,-1.2976,-1.322,-1.3485,-1.3641,-1.3668,-1.4116,-1.4312,-1.4258,-1.4679,-1.4998,-1.5412,-1.6991,-2.019,0.0,0.0,0.0,0.0,0.0,0.0,0.0,0.0,0.0,0.0,0.0,1.1728,1.1728,0.0,1.2359,1.2589,1.2874,1.3119,1.3268,1.341,1.3451,1.3302,1.3424,1.3546,1.362,1.3729,1.2943,1.0563,0.6055,0.243,0.0175,-0.0,-0.0,-0.0,-0.0,-0.0,-0.0,-0.0,-0.0,-0.0,-0.0,-0.0,-0.0,-0.0,-0.0,-0.0,-0.0,-0.0,-0.0,-0.0,-0.0,-0.0,-0.0,-0.0,-0.0,-0.0,-0.0,-0.0,-0.0,-0.0,-0.0,-0.0,-0.1471,-0.4602,-1.1091,-1.3057,-1.3105,-1.3166,-1.3288,-1.3437,-1.358,-1.362,-1.3654,-1.3804,-1.3783,-1.3736,-1.3736,-1.3736,-1.3688,-1.3546,-1.3512,-1.3492,-1.3417,-1.3336,-1.3261,-1.3186,-1.3051,-1.2963,-1.2963,-1.2963,-1.299,-1.3057,-1.32,-1.3288,-1.3295,-1.3363,-1.337,-1.3288,-1.3356,-1.3464,-1.3614,-1.3912,-1.4068,-1.4068,-1.4509,-1.4706,-1.4638,-1.493,-1.5038,-1.4964,-1.6236,-1.9217,0.0,0.0,0.0,0.0,0.0,0.0,0.0,1.1497,1.1626,1.1681,1.2081,1.2413,1.2379,1.2644,1.2901,1.3024,1.3295,1.3498,1.3526,1.3736,1.381,1.36,1.3661,1.3729,1.3756,1.3912,1.4034,1.4068,1.0703,0.6862,0.3019,0.1066,-0.0,-0.0,-0.0,-0.0,-0.0,-0.0,-0.0,-0.0,-0.0,-0.0,-0.0,-0.0,-0.0,-0.0,-0.0,-0.0,-0.0,-0.0,-0.0,-0.0,-0.0,-0.0,-0.0,-0.0,-0.0,-0.0,-0.0,-0.0,-0.0,-0.0,-0.0,-0.1329,-0.8561,-1.1916,-1.3197,-1.3437,-1.3559,-1.3702,-1.3851,-1.3865,-1.3858,-1.3912,-1.3905,-1.3885,-1.3885,-1.3885,-1.3844,-1.3695,-1.3648,-1.3593,-1.3464,-1.3444,-1.3397,-1.3241,-1.3146,-1.3078,-1.3051,-1.3098,-1.3166,-1.3254,-1.3424,-1.358,-1.3709,-1.379,-1.3851,-1.3885,-1.3858,-1.3865,-1.3926,-1.4197,-1.4353,-1.4387,-1.4801,-1.5011,-1.5011,-1.5126,-1.5181,-1.5181,-1.5181,-1.7506,1.6789,1.5183,1.362,1.2093,1.1735,1.1945,0.0,1.2644,1.2454,1.2732,1.284,1.2847,1.2705,1.303,1.3329,1.3349,1.36,1.3838,1.398,1.4027,1.4082,1.419,1.4095,1.4075,1.4211,1.436,1.4509,1.4497,1.4134,1.3594,1.3084,0.4772,-0.0,-0.0,-0.0,-0.0,-0.0,-0.0,-0.0,-0.0,-0.0,-0.0,-0.0,-0.0,-0.0,-0.0,-0.0,-0.0,-0.0,-0.0,-0.0,-0.0,-0.0,-0.0,-0.0,-0.0,-0.0,-0.0,-0.0,-0.0,-0.0,-0.0,-0.0,-0.0172,-0.1191,-0.717,-1.3619,-1.3682,-1.3729,-1.3851,-1.4007,-1.3946,-1.3912,-1.4183,-1.4143,-1.4048,-1.4048,-1.4048,-1.4,-1.3844,-1.3715,-1.3627,-1.3607,-1.36,-1.3553,-1.3397,-1.3478,-1.3505,-1.337,-1.358,-1.3702,-1.3593,-1.3831,-1.4,-1.4021,-1.3912,-1.3899,-1.4041,-1.3919,-1.396,-1.4238,-1.4401,-1.455,-1.4685,-1.4997,-1.516,-1.516,-1.5174,-1.5181,-1.5181,-1.5181,-1.6651,1.8107,1.6318,1.4742,1.4223,1.3334,1.261,1.3071,1.3098,1.3057,1.3186,1.3356,1.3431,1.3281,1.3546,1.379,1.379,1.4041,1.4224,1.4204,1.4278,1.4285,1.4183,1.4265,1.4353,1.4414,1.4557,1.4679,1.4571,1.4577,1.4774,1.4814,1.0891,0.7371,0.4422,0.147,-0.0,-0.0,-0.0,-0.0,-0.0,-0.0,-0.0,-0.0,-0.0,-0.0,-0.0,-0.0,-0.0,-0.0,-0.0,-0.0,-0.0,-0.0,-0.0,-0.0,-0.0,-0.0,-0.0,-0.0,-0.0,-0.0,-0.0,-0.0,-0.0,-0.0,-0.2759,-0.6925,-1.2348,-1.3966,-1.4034,-1.417,-1.4156,-1.4163,-1.4373,-1.4312,-1.4224,-1.4312,-1.4265,-1.4156,-1.4007,-1.3926,-1.3858,-1.377,-1.3749,-1.3729,-1.3668,-1.3709,-1.3729,-1.3661,-1.3763,-1.3851,-1.3885,-1.4075,-1.4204,-1.4204,-1.4143,-1.4136,-1.4197,-1.4217,-1.4292,-1.4421,-1.4652,-1.4808,-1.4875,-1.5079,-1.5181,-1.5181,-1.5181,-1.5181,-1.5181,-1.5181,-1.5737,1.93,1.7981,1.7019,1.697,1.5528,1.4157,1.4354,1.3964,1.3532,1.358,1.3688,1.3763,1.3702,1.3865,1.4034,1.4122,1.4346,1.4489,1.4428,1.4509,1.4496,1.4278,1.4441,1.4577,1.4577,1.4713,1.4821,1.4862,1.4862,1.4875,1.4903,1.4916,1.3413,0.9852,0.612,0.2768,-0.0,-0.0,-0.0,-0.0,-0.0,-0.0,-0.0,-0.0,-0.0,-0.0,-0.0,-0.0,-0.0,-0.0,-0.0,-0.0,-0.0,-0.0,-0.0,-0.0,-0.0,-0.0,-0.0,-0.0,-0.0,-0.0,-0.0,-0.0,-0.0,-0.0,-0.1749,-0.9845,-1.3104,-1.4258,-1.434,-1.4387,-1.4448,-1.455,-1.4496,-1.4448,-1.455,-1.4462,-1.4326,-1.4217,-1.4129,-1.4034,-1.3926,-1.3905,-1.3905,-1.3905,-1.3939,-1.3933,-1.3851,-1.3878,-1.396,-1.4122,-1.4231,-1.4299,-1.4299,-1.4299,-1.4299,-1.4299,-1.4434,-1.4509,-1.4509,-1.4808,-1.497,-1.497,-1.5113,-1.5181,-1.5181,-1.5181,-1.5181,-1.5181,-1.5181,-1.5181,2.1474,2.123,2.146,2.0064,1.8416,1.6994,1.7374,1.5459,1.3871,1.4021,1.3831,1.3675,1.381,1.3844,1.3946,1.4245,1.4414,1.4563,1.4706,1.4733,1.4726,1.4719,1.4726,1.4733,1.4733,1.4875,1.5018,1.516,1.5167,1.5167,1.5167,1.5215,1.5046,1.5046,1.4745,0.9937,0.0187,-0.0,-0.0,-0.0,-0.0,-0.0,-0.0,-0.0,-0.0,-0.0,-0.0,-0.0,-0.0,-0.0,-0.0,-0.0,-0.0,-0.0,-0.0,-0.0,-0.0,-0.0,-0.0,-0.0,-0.0,-0.0,-0.0,-0.0,-0.0,-0.0,-0.107,-0.5995,-1.09,-1.4543,-1.4516,-1.4618,-1.4726,-1.4733,-1.4726,-1.4726,-1.4733,-1.4611,-1.4502,-1.4502,-1.4265,-1.4068,-1.4068,-1.4061,-1.4061,-1.4061,-1.419,-1.4177,-1.3878,-1.3973,-1.4122,-1.4278,-1.4299,-1.4299,-1.4299,-1.4299,-1.4299,-1.4299,-1.4434,-1.4509,-1.4509,-1.4808,-1.497,-1.497,-1.5113,-1.5181,-1.5181,-1.5181,-1.5181,-1.5181,-1.5181,-1.5181,2.3741,2.3113,2.2502,2.2531,2.0051,1.751,1.7636,1.5988,1.4245,1.4102,1.3912,1.3756,1.3709,1.3777,1.3939,1.4251,1.4502,1.4719,1.4869,1.4896,1.478,1.4482,1.4618,1.4665,1.4468,1.4672,1.4882,1.5031,1.5038,1.5086,1.5174,1.5201,1.5208,1.5208,1.5201,1.3609,1.011,0.3345,-0.0,-0.0,-0.0,-0.0,-0.0,-0.0,-0.0,-0.0,-0.0,-0.0,-0.0,-0.0,-0.0,-0.0,-0.0,-0.0,-0.0,-0.0,-0.0,-0.0,-0.0,-0.0,-0.0,-0.0,-0.0,-0.0,-0.0,-0.0,-0.0358,-0.1959,-0.8238,-1.4502,-1.4723,-1.4771,-1.4853,-1.4848,-1.4814,-1.4767,-1.4869,-1.4692,-1.4509,-1.4509,-1.4353,-1.4224,-1.4224,-1.4224,-1.4224,-1.4224,-1.4265,-1.4265,-1.4156,-1.419,-1.4245,-1.4292,-1.4299,-1.4299,-1.4299,-1.4387,-1.4441,-1.4441,-1.4679,-1.4814,-1.4814,-1.5004,-1.5113,-1.5113,-1.516,-1.5181,-1.5181,-1.5181,-1.5181,-1.5181,-1.5181,-1.5181,2.5157,2.4791,2.4234,2.5145,2.2725,2.0028,1.9407,1.7329,1.5315,1.4146,1.3749,1.3559,1.3417,1.3505,1.3736,1.415,1.4468,1.4733,1.4943,1.497,1.4841,1.4496,1.4624,1.4665,1.4475,1.4631,1.4801,1.4957,1.5018,1.5086,1.5174,1.5181,1.5181,1.5181,1.5215,1.5187,1.5106,0.8622,0.3535,-0.0,-0.0,-0.0,-0.0,-0.0,-0.0,-0.0,-0.0,-0.0,-0.0,-0.0,-0.0,-0.0,-0.0,-0.0,-0.0,-0.0,-0.0,-0.0,-0.0,-0.0,-0.0,-0.0,-0.0,-0.0,-0.0,-0.0,-0.0,-0.0,-0.4502,-0.9635,-1.1683,-1.3619,-1.5059,-1.5045,-1.5011,-1.4964,-1.5052,-1.4875,-1.4692,-1.4679,-1.4516,-1.4373,-1.4373,-1.4333,-1.4299,-1.4299,-1.4299,-1.4299,-1.4299,-1.4299,-1.4299,-1.4299,-1.4299,-1.4319,-1.4373,-1.4462,-1.4536,-1.459,-1.4828,-1.497,-1.497,-1.5106,-1.5181,-1.5181,-1.5181,-1.5181,-1.5181,-1.5235,-1.5262,-1.5262,-1.5262,-1.5262,2.5745,2.6213,2.6734,2.7883,2.6431,2.4247,2.2368,1.9643,1.6861,1.433,1.3679,1.3415,1.3109,1.3212,1.3521,1.3953,1.4306,1.4618,1.4936,1.4991,1.4936,1.4774,1.4767,1.4767,1.474,1.4753,1.4821,1.4964,1.5099,1.5174,1.5181,1.5181,1.5181,1.5181,1.5181,1.5201,1.5248,1.5106,1.0254,0.0369,0.0185,-0.0,-0.0,-0.0,-0.0,-0.0,-0.0,-0.0,-0.0,-0.0,-0.0,-0.0,-0.0,-0.0,-0.0,-0.0,-0.0,-0.0,-0.0,-0.0,-0.0,-0.0,-0.0,-0.0,-0.0,-0.0,-0.0,-0.0,-0.0,-0.1106,-0.5529,-1.0502,-1.4519,-1.4721,-1.4721,-1.4904,-1.4871,-1.4946,-1.5204,-1.4984,-1.4726,-1.4516,-1.4509,-1.4394,-1.4299,-1.4299,-1.4299,-1.4299,-1.4299,-1.4299,-1.4299,-1.4299,-1.4299,-1.436,-1.4502,-1.4516,-1.459,-1.474,-1.4896,-1.4984,-1.4984,-1.5113,-1.5181,-1.5181,-1.5181,-1.5181,-1.5181,-1.5337,-1.5411,-1.5411,-1.5411,-1.5411,2.6092,2.6814,2.7549,2.8297,2.672,2.4753,2.4109,2.164,1.9127,1.8082,1.7205,1.6309,1.4911,1.4931,1.4769,1.383,1.4177,1.4658,1.5072,1.5228,1.5201,1.4943,1.5106,1.5106,1.4774,1.4943,1.5045,1.4977,1.5004,1.5072,1.5174,1.5181,1.5181,1.5181,1.5181,1.5187,1.5201,1.5194,1.2069,0.559,0.1865,-0.0,-0.0,-0.0,-0.0,-0.0,-0.0,-0.0,-0.0,-0.0,-0.0,-0.0,-0.0,-0.0,-0.0,-0.0,-0.0,-0.0,-0.0,-0.0,-0.0,-0.0,-0.0,-0.0,-0.0,-0.0,-0.0,-0.0,-0.0,-0.0367,-0.1485,-0.2807,-0.4894,-0.8727,-0.9505,-0.9505,-0.95,-1.2477,-1.5252,-1.5238,-1.4787,-1.437,-1.4516,-1.4394,-1.4299,-1.4299,-1.4299,-1.4299,-1.4299,-1.4299,-1.4299,-1.4299,-1.4299,-1.436,-1.4502,-1.4618,-1.4746,-1.4903,-1.5052,-1.5126,-1.5126,-1.516,-1.5181,-1.5181,-1.5181,-1.5181,-1.5181,-1.5337,-1.5411,-1.5411,-1.5411,-1.5411,2.6734,2.7321,2.7843,2.8457,2.7341,2.5822,2.4424,2.2598,2.0684,1.8852,1.823,1.7585,1.626,1.5725,1.5439,1.475,1.4541,1.4597,1.5113,1.5255,1.5248,1.5086,1.5208,1.5215,1.4957,1.5086,1.5147,1.5072,1.5065,1.5099,1.5181,1.5181,1.5181,1.5181,1.5181,1.5181,1.5181,1.516,1.3802,1.0934,0.8068,0.4303,-0.0,-0.0,-0.0,-0.0,-0.0,-0.0,-0.0,-0.0,-0.0,-0.0,-0.0,-0.0,-0.0,-0.0,-0.0,-0.0,-0.0,-0.0,-0.0,-0.0,-0.0,-0.0,-0.0,-0.0,-0.0,-0.0,-0.0,-0.0,-0.0,-0.0,-0.0752,-0.3605,-0.4185,-0.4183,-0.4177,-0.8334,-1.2091,-1.2777,-1.3954,-1.474,-1.4631,-1.455,-1.4468,-1.4401,-1.4394,-1.4373,-1.4306,-1.4299,-1.4299,-1.4299,-1.4299,-1.436,-1.4502,-1.4652,-1.4808,-1.4964,-1.5106,-1.5181,-1.5181,-1.5181,-1.5181,-1.5181,-1.5181,-1.5181,-1.5181,-1.5337,-1.5411,-1.5411,-1.5411,-1.5411,2.7468,2.7789,2.7949,2.847,2.8096,2.6935,2.4401,2.3317,2.207,1.899,1.829,1.8279,1.7741,1.6508,1.5785,1.6203,1.5086,1.4509,1.5099,1.5201,1.5208,1.5181,1.5215,1.5228,1.5187,1.5221,1.5235,1.5215,1.5215,1.5201,1.5181,1.5181,1.5181,1.5181,1.5181,1.5181,1.5181,1.5279,1.5113,1.5242,1.5147,1.0573,0.1899,0.057,-0.0,-0.0,-0.0,-0.0,-0.0,-0.0,-0.0,-0.0,-0.0,-0.0,-0.0,-0.0,-0.0,-0.0,-0.0,-0.0,-0.0,-0.0,-0.0,-0.0,-0.0,-0.0,-0.0,-0.0,-0.0,-0.0,-0.0,-0.0,-0.0,-0.0,-0.0,-0.0,-0.0,-0.3424,-0.7024,-0.8439,-1.2184,-1.5169,-1.4808,-1.4753,-1.4692,-1.4563,-1.4543,-1.4496,-1.4373,-1.4326,-1.4299,-1.4299,-1.4319,-1.4387,-1.4529,-1.4679,-1.4835,-1.4991,-1.5113,-1.5181,-1.5181,-1.5181,-1.5181,-1.5181,-1.5181,-1.5181,-1.5181,-1.5337,-1.5418,-1.5438,-1.5418,-1.5418,2.7949,2.8257,2.847,2.8577,2.7789,2.6719,2.6056,2.4827,2.3771,2.2832,2.2358,2.1572,1.9935,1.855,1.7316,1.6366,1.5086,1.4509,1.5099,1.5289,1.5323,1.5201,1.5404,1.5459,1.5208,1.5411,1.5506,1.5377,1.5371,1.5316,1.5187,1.5181,1.5181,1.5181,1.5181,1.5181,1.5181,1.5167,1.5167,1.5194,1.5215,1.4285,1.221,0.38,-0.0,-0.0,-0.0,-0.0,-0.0,-0.0,-0.0,-0.0,-0.0,-0.0,-0.0,-0.0,-0.0,-0.0,-0.0,-0.0,-0.0,-0.0,-0.0,-0.0,-0.0,-0.0,-0.0,-0.0,-0.0,-0.0,-0.0,-0.0,-0.0,-0.0,-0.0,-0.0,-0.0,-0.0763,-0.1333,-0.1706,-0.9044,-1.5238,-1.5176,-1.4848,-1.4733,-1.4706,-1.4699,-1.4692,-1.4665,-1.4448,-1.4299,-1.4299,-1.4407,-1.4536,-1.4685,-1.4841,-1.4991,-1.514,-1.5167,-1.5181,-1.5181,-1.5181,-1.5181,-1.5181,-1.5181,-1.5181,-1.5181,-1.5337,-1.5479,-1.5594,-1.5472,-1.5479,2.8484,2.8604,2.8564,2.8404,2.7468,2.64,2.5651,2.4703,2.3808,2.3193,2.2953,2.2585,2.1734,2.0387,1.8922,1.752,1.6196,1.5174,1.4908,1.4896,1.5031,1.5269,1.5432,1.5493,1.5425,1.5554,1.5608,1.5533,1.5527,1.5466,1.5309,1.5228,1.5181,1.5181,1.5181,1.5181,1.5181,1.5181,1.5181,1.5181,1.5228,1.5269,1.5107,1.0108,0.4954,-0.0,-0.0,-0.0,-0.0,-0.0,-0.0,-0.0,-0.0,-0.0,-0.0,-0.0,-0.0,-0.0,-0.0,-0.0,-0.0,-0.0,-0.0,-0.0,-0.0,-0.0,-0.0,-0.0,-0.0,-0.0,-0.0,-0.0,-0.0,-0.0,-0.0,-0.0,-0.0,-0.0,-0.0,-0.0,-0.3973,-0.9065,-1.4215,-1.5079,-1.4977,-1.4903,-1.4875,-1.4828,-1.4753,-1.4618,-1.4529,-1.4529,-1.459,-1.4658,-1.4733,-1.4882,-1.4997,-1.5065,-1.514,-1.5181,-1.5181,-1.5181,-1.5181,-1.5181,-1.5181,-1.5181,-1.5181,-1.5337,-1.5404,-1.5404,-1.5404,-1.5404,2.8818,2.8831,2.8591,2.8163,2.7121,2.5919,2.4877,2.4088,2.338,2.2659,2.2699,2.2859,2.2859,2.1322,1.961,1.8548,1.6703,1.5226,1.4613,1.4618,1.4841,1.535,1.5466,1.554,1.5628,1.5696,1.5723,1.5689,1.5655,1.5574,1.5418,1.5262,1.5181,1.5181,1.5181,1.5181,1.5181,1.5181,1.5181,1.5181,1.5221,1.4676,1.3554,1.3578,0.8588,-0.0,-0.0,-0.0,-0.0,-0.0,-0.0,-0.0,-0.0,-0.0,-0.0,-0.0,-0.0,-0.0,-0.0,-0.0,-0.0,-0.0,-0.0,-0.0,-0.0,-0.0,-0.0,-0.0,-0.0,-0.0,-0.0,-0.0,-0.0,-0.0,-0.0,-0.0,-0.0,-0.0,-0.0,-0.0,-0.0,-0.2469,-1.0479,-1.3145,-1.4435,-1.5092,-1.5045,-1.497,-1.4848,-1.4835,-1.4835,-1.4835,-1.4808,-1.4787,-1.4787,-1.493,-1.5018,-1.5018,-1.512,-1.5181,-1.5181,-1.5181,-1.5181,-1.5181,-1.5215,-1.5228,-1.5228,-1.5384,-1.5411,-1.533,-1.5384,-1.5364,2.8631,2.8818,2.8791,2.7949,2.6653,2.5424,2.4783,2.3754,2.2926,2.2846,2.2846,2.2859,2.2859,2.019,1.804,1.8592,1.5886,1.4022,1.4611,1.495,1.5194,1.5391,1.5649,1.5764,1.5649,1.5886,1.5981,1.5845,1.571,1.5574,1.5418,1.5262,1.5181,1.5181,1.5181,1.5181,1.5181,1.5181,1.5181,1.5181,1.5187,1.2716,0.8357,0.836,0.5325,-0.0,-0.0,-0.0,-0.0,-0.0,-0.0,-0.0,-0.0,-0.0,-0.0,-0.0,-0.0,-0.0,-0.0,-0.0,-0.0,-0.0,-0.0,-0.0,-0.0,-0.0,-0.0,-0.0,-0.0,-0.0,-0.0,-0.0,-0.0,-0.0,-0.0,-0.0,-0.0,-0.0,-0.0,-0.0,-0.0,-0.038,-0.133,-0.6447,-1.1579,-1.4656,-1.5194,-1.516,-1.5147,-1.514,-1.514,-1.514,-1.5025,-1.495,-1.495,-1.5079,-1.516,-1.516,-1.5174,-1.5181,-1.5181,-1.5181,-1.5181,-1.5181,-1.5316,-1.5391,-1.5391,-1.5547,-1.5676,-1.5784,-1.5527,-1.5479,2.8457,2.8684,2.8564,2.7669,2.6466,2.5317,2.4543,2.3594,2.2859,2.2859,2.2859,2.2926,2.3113,2.104,1.9079,1.8381,1.6087,1.4318,1.3871,1.4055,1.4468,1.5072,1.5404,1.5669,1.5886,1.6015,1.6015,1.5866,1.5716,1.5574,1.5418,1.5262,1.5181,1.5181,1.5181,1.5181,1.5181,1.5181,1.5181,1.5181,1.5235,1.4109,1.2005,0.5897,0.1905,-0.0,-0.0,-0.0,-0.0,-0.0,-0.0,-0.0,-0.0,-0.0,-0.0,-0.0,-0.0,-0.0,-0.0,-0.0,-0.0,-0.0,-0.0,-0.0,-0.0,-0.0,-0.0,-0.0,-0.0,-0.0,-0.0,-0.0,-0.0,-0.0,-0.0,-0.0,-0.0,-0.0,-0.0,-0.0,-0.0,-0.0,-0.0,-0.228,-0.6642,-1.4121,-1.5248,-1.5215,-1.5187,-1.5181,-1.5181,-1.5181,-1.5133,-1.5099,-1.5099,-1.5153,-1.5181,-1.5181,-1.5181,-1.5181,-1.5181,-1.5181,-1.5181,-1.5181,-1.5337,-1.5411,-1.5411,-1.5649,-1.5703,-1.5588,-1.556,-1.5486,2.7776,2.8136,2.8123,2.7228,2.6186,2.5184,2.4382,2.3514,2.2859,2.2859,2.2859,2.2953,2.3273,2.1666,1.9858,1.8418,1.6642,1.4844,1.361,1.3634,1.4109,1.4882,1.5194,1.5499,1.5913,1.5988,1.5967,1.5859,1.5676,1.5527,1.5418,1.5262,1.5181,1.5181,1.5181,1.5181,1.5181,1.5181,1.5181,1.5181,1.5255,1.4323,1.2779,0.7055,0.2862,-0.0,-0.0,-0.0,-0.0,-0.0,-0.0,-0.0,-0.0,-0.0,-0.0,-0.0,-0.0,-0.0,-0.0,-0.0,-0.0,-0.0,-0.0,-0.0,-0.0,-0.0,-0.0,-0.0,-0.0,-0.0,-0.0,-0.0,-0.0,-0.0,-0.0,-0.0,-0.0,-0.0,-0.0,-0.0,-0.0,-0.0,-0.0,-0.0,-0.3039,-1.1626,-1.4298,-1.5235,-1.5187,-1.5181,-1.5181,-1.5181,-1.5181,-1.5181,-1.5181,-1.5181,-1.5181,-1.5181,-1.5181,-1.5201,-1.5248,-1.5248,-1.5269,-1.5316,-1.5466,-1.554,-1.554,-1.5798,-1.5811,-1.5608,-1.5676,-1.554,2.6413,2.7041,2.7495,2.6613,2.5732,2.493,2.4342,2.3514,2.2859,2.2859,2.2859,2.2953,2.3273,2.1815,2.0263,1.8662,1.708,1.5546,1.4083,1.4095,1.4462,1.4916,1.5099,1.5303,1.5615,1.5771,1.5852,1.5852,1.5581,1.5411,1.5411,1.5262,1.5181,1.5181,1.5181,1.5181,1.5181,1.5181,1.5181,1.5181,1.5228,1.2556,0.7785,1.2807,0.9556,-0.0,-0.0,-0.0,-0.0,-0.0,-0.0,-0.0,-0.0,-0.0,-0.0,-0.0,-0.0,-0.0,-0.0,-0.0,-0.0,-0.0,-0.0,-0.0,-0.0,-0.0,-0.0,-0.0,-0.0,-0.0,-0.0,-0.0,-0.0,-0.0,-0.0,-0.0,-0.0,-0.0,-0.0,-0.0,-0.0,-0.0,-0.0,-0.0,-0.1709,-0.6835,-1.1983,-1.5235,-1.5187,-1.5181,-1.5181,-1.5181,-1.5181,-1.5181,-1.5181,-1.5181,-1.5181,-1.5181,-1.5181,-1.5248,-1.5404,-1.5411,-1.5479,-1.5635,-1.5778,-1.5845,-1.5852,-1.6001,-1.6076,-1.6069,-1.592,-1.5689,2.5384,2.5838,2.6039,2.5358,2.4836,2.4329,2.3741,2.322,2.2859,2.2859,2.2859,2.302,2.3541,2.2094,2.0816,2.1216,1.8327,1.6096,1.5964,1.5002,1.4387,1.4631,1.5153,1.5533,1.5628,1.5683,1.5662,1.556,1.5466,1.5364,1.5262,1.5208,1.5181,1.5181,1.5181,1.5181,1.5181,1.5181,1.5181,1.5181,1.5255,1.2578,0.7595,0.5715,0.3052,-0.0,-0.0,-0.0,-0.0,-0.0,-0.0,-0.0,-0.0,-0.0,-0.0,-0.0,-0.0,-0.0,-0.0,-0.0,-0.0,-0.0,-0.0,-0.0,-0.0,-0.0,-0.0,-0.0,-0.0,-0.0,-0.0,-0.0,-0.0,-0.0,-0.0,-0.0,-0.0,-0.0,-0.0,-0.0,-0.0,-0.0,-0.0,-0.0,-0.0571,-0.2089,-0.9703,-1.5269,-1.5235,-1.5201,-1.5181,-1.5181,-1.5181,-1.5181,-1.5181,-1.5181,-1.5181,-1.5181,-1.5181,-1.5248,-1.5404,-1.5411,-1.5486,-1.5635,-1.5778,-1.5852,-1.5852,-1.6008,-1.5974,-1.5778,-1.5622,-1.5445,2.4422,2.4877,2.5064,2.4596,2.4249,2.3915,2.3434,2.3086,2.2859,2.2859,2.2859,2.3046,2.3661,2.2742,2.1704,2.117,1.8926,1.686,1.5742,1.475,1.4306,1.457,1.5113,1.5466,1.5466,1.552,1.5513,1.5418,1.5357,1.5282,1.5187,1.5181,1.5181,1.5181,1.5181,1.5181,1.5181,1.5181,1.5181,1.5181,1.5262,1.2584,0.7406,0.2285,-0.0,-0.0,-0.0,-0.0,0.0,-0.0,-0.0,-0.0,-0.0,-0.0,-0.0,-0.0,-0.0,-0.0,-0.0,-0.0,-0.0,-0.0,-0.0,-0.0,-0.0,-0.0,-0.0,-0.0,-0.0,-0.0,-0.0,-0.0,-0.0,-0.0,-0.0,-0.0,-0.0,-0.0,-0.0,-0.0,-0.0,-0.0,-0.0,-0.0,-0.0,-0.0,-0.7033,-1.2962,-1.4871,-1.5215,-1.5181,-1.5181,-1.5181,-1.5181,-1.5181,-1.5181,-1.5181,-1.5181,-1.5235,-1.5337,-1.5493,-1.5547,-1.5649,-1.5805,-1.5893,-1.594,-1.594,-1.6035,-1.5954,-1.5716,-1.5567,-1.5411,0.0,2.4102,2.4449,2.4168,2.3901,2.3634,2.3354,2.3073,0.0,2.2859,2.2859,2.306,2.3714,2.3652,2.2501,1.9489,1.8862,1.7618,1.4426,1.4105,1.4292,1.4719,1.5011,1.5181,1.5181,1.5309,1.5398,1.5398,1.5262,1.5181,1.5181,1.5181,1.5181,1.5181,1.5181,1.5181,1.5181,1.5181,1.5181,1.5187,1.5262,1.2779,0.7978,0.2477,-0.0,-0.0,-0.0,-0.0,-0.0,-0.0,-0.0,-0.0,-0.0,-0.0,-0.0,-0.0,-0.0,-0.0,-0.0,-0.0,-0.0,-0.0,-0.0,-0.0,-0.0,-0.0,-0.0,-0.0,-0.0,-0.0,-0.0,-0.0,-0.0,-0.0,-0.0,-0.0,-0.0,-0.0,-0.0,-0.0,-0.0,-0.0,-0.0,-0.0,-0.0,-0.0,-0.3986,-0.9118,-1.4487,-1.5215,-1.5187,-1.5181,-1.5181,-1.5181,-1.5181,-1.5181,-1.5181,-1.5181,-1.5323,-1.5479,-1.5635,-1.5778,-1.5927,-1.6076,-1.6083,-1.6076,-1.6069,-1.6076,-1.5995,-1.5839,-1.571,-1.5567,2.3033,0.0,2.326,2.3193,2.3126,2.306,0.0,2.2913,2.2859,2.2859,2.2859,2.318,2.4235,2.2734,2.1555,2.2241,1.9483,1.7042,1.6625,1.5476,1.4841,1.5052,1.514,1.5181,1.5181,1.5215,1.5235,1.5235,1.5201,1.5181,1.5181,1.5181,1.5181,1.5181,1.5181,1.5181,1.5181,1.5181,1.5201,1.5235,1.5282,1.4538,1.3198,0.4196,-0.0,-0.0,-0.0,-0.0,-0.0,-0.0,-0.0,-0.0,-0.0,-0.0,-0.0,-0.0,-0.0,-0.0,-0.0,-0.0,-0.0,-0.0,-0.0,-0.0,-0.0,-0.0,-0.0,-0.0,-0.0,-0.0,-0.0,-0.0,-0.0,-0.0,-0.0,-0.0,-0.0,-0.0,-0.0,-0.0,-0.0,-0.0,-0.0,-0.0,-0.0,-0.0,-0.0951,-0.5128,-1.4128,-1.5255,-1.5221,-1.5187,-1.5181,-1.5181,-1.5181,-1.5181,-1.5181,-1.5181,-1.5323,-1.5479,-1.5635,-1.5778,-1.5927,-1.6076,-1.6083,-1.6022,-1.5906,-1.6022,-1.5947,-1.5689,-1.5771,-1.5662,2.2859,2.3166,2.3474,2.3474,2.3474,2.3474,2.3474,2.3153,2.2859,2.2859,2.2263,2.1873,2.2601,2.116,1.9844,1.9927,1.8312,1.6698,1.6348,1.554,1.5099,1.5174,1.5181,1.5181,1.5181,1.5181,1.5181,1.5181,1.5181,1.5181,1.5181,1.5181,1.5181,1.5181,1.5181,1.5181,1.5181,1.5181,1.5194,1.5221,1.2756,1.1631,1.1452,0.3623,-0.0,-0.0,-0.0,-0.0,-0.0,-0.0,-0.0,-0.0,-0.0,-0.0,-0.0,-0.0,-0.0,-0.0,-0.0,-0.0,-0.0,-0.0,-0.0,-0.0,-0.0,-0.0,-0.0,-0.0,-0.0,-0.0,-0.0,-0.0,-0.0,-0.0,-0.0,-0.0,-0.0,-0.0,-0.0,-0.0,-0.0,-0.0,-0.0,-0.0,-0.0,-0.0,-0.0,-0.1899,-0.7606,-1.2372,-1.5242,-1.5215,-1.5194,-1.5181,-1.5181,-1.5181,-1.5181,-1.5181,-1.5323,-1.5479,-1.5635,-1.5778,-1.5927,-1.6076,-1.6083,-1.6008,-1.5852,-1.5934,-1.5859,-1.5642,-1.5716,-1.5669,2.2979,2.3688,2.4342,2.4062,2.4102,2.4168,2.4035,2.3153,2.25,2.25,2.1175,2.0055,2.0455,1.9197,1.7823,1.641,1.6516,1.6248,1.5073,1.5092,1.5181,1.5181,1.5181,1.5181,1.5181,1.5181,1.5181,1.5181,1.5181,1.5181,1.5181,1.5181,1.5181,1.5181,1.5181,1.5181,1.5181,1.5181,1.5187,1.5201,1.0824,0.7978,0.6269,0.1905,-0.0,-0.0,-0.0,-0.0,-0.0,-0.0,-0.0,-0.0,-0.0,-0.0,-0.0,-0.0,-0.0,-0.0,-0.0,-0.0,-0.0,-0.0,-0.0,-0.0,-0.0,-0.0,-0.0,-0.0,-0.0,-0.0,-0.0,-0.0,-0.0,-0.0,-0.0,-0.0,-0.0,-0.0,-0.0,-0.0,-0.0,-0.0,-0.0,-0.0,-0.0,-0.0,-0.0,-0.0,-0.0,-0.8167,-1.4285,-1.506,-1.5208,-1.5181,-1.5181,-1.5181,-1.5181,-1.5181,-1.5323,-1.5493,-1.5662,-1.5771,-1.59,-1.6076,-1.6056,-1.5974,-1.5818,-1.5866,-1.5805,-1.5642,-1.5683,-1.5696,2.3487,2.4449,2.4957,2.3447,2.3647,2.4008,2.3247,2.1874,2.0674,2.0674,1.9294,1.8453,1.944,1.7826,1.6487,1.7146,1.5935,1.4924,1.4923,1.5092,1.5181,1.5181,1.5181,1.5181,1.5181,1.5181,1.5181,1.5181,1.5181,1.5181,1.5181,1.5181,1.5181,1.5181,1.5181,1.5181,1.5181,1.5181,1.5215,1.5282,1.433,0.953,0.1144,0.0382,-0.0,-0.0,-0.0,-0.0,-0.0,-0.0,-0.0,-0.0,-0.0,-0.0,-0.0,-0.0,-0.0,-0.0,-0.0,-0.0,-0.0,-0.0,-0.0,-0.0,-0.0,-0.0,-0.0,-0.0,-0.0,-0.0,-0.0,-0.0,-0.0,-0.0,-0.0,-0.0,-0.0,-0.0,-0.0,-0.0,-0.0,-0.0,-0.0,-0.0,-0.0,-0.0,-0.0,-0.0,-0.0,-0.5126,-1.0451,-1.4676,-1.5208,-1.5181,-1.5181,-1.5181,-1.5181,-1.5181,-1.5323,-1.5533,-1.5811,-1.5723,-1.5798,-1.6076,-1.5954,-1.5818,-1.5676,-1.5927,-1.5906,-1.5642,-1.59,-1.5947,2.3207,2.4142,2.4499,2.2206,2.3696,2.5146,2.3355,2.1941,2.0683,1.9488,1.7781,1.6662,1.7381,1.5999,1.5011,1.6016,1.5383,1.4835,1.5052,1.514,1.5181,1.5181,1.5181,1.5181,1.5181,1.5181,1.5181,1.5181,1.5181,1.5181,1.5181,1.5181,1.5181,1.5181,1.5181,1.5181,1.5181,1.5181,1.5201,1.5235,1.2378,0.8561,0.3995,0.1334,-0.0,-0.0,-0.0,-0.0,-0.0,-0.0,-0.0,-0.0,-0.0,-0.0,-0.0,-0.0,-0.0,-0.0,-0.0,-0.0,-0.0,-0.0,-0.0,-0.0,-0.0,-0.0,-0.0,-0.0,-0.0,-0.0,-0.0,-0.0,-0.0,-0.0,-0.0,-0.0,-0.0,-0.0,-0.0,-0.0,-0.0,-0.0,-0.0,-0.0,-0.0,-0.0,-0.0,-0.0,-0.0,-0.2091,-0.6458,-1.4311,-1.5242,-1.5208,-1.5181,-1.5181,-1.5181,-1.5181,-1.5323,-1.5472,-1.5608,-1.5628,-1.5703,-1.5839,-1.5771,-1.5662,-1.5513,-1.5655,-1.5689,-1.5642,-1.5778,-1.5845,2.3033,2.3834,2.4127,2.2104,2.3591,2.5003,2.2556,2.1067,1.9891,1.824,1.6388,1.5202,1.5424,1.4674,1.4238,1.4821,1.4977,1.5059,1.5167,1.5181,1.5181,1.5181,1.5181,1.5181,1.5181,1.5181,1.5181,1.5181,1.5181,1.5181,1.5181,1.5181,1.5181,1.5181,1.5181,1.5181,1.5181,1.5181,1.5187,1.5201,1.1207,0.8164,0.5695,0.1713,-0.0,-0.0,-0.0,-0.0,-0.0,-0.0,-0.0,-0.0,-0.0,-0.0,-0.0,-0.0,-0.0,-0.0,-0.0,-0.0,-0.0,-0.0,-0.0,-0.0,-0.0,-0.0,-0.0,-0.0,-0.0,-0.0,-0.0,-0.0,-0.0,-0.0,-0.0,-0.0,-0.0,-0.0,-0.0,-0.0,-0.0,-0.0,-0.0,-0.0,-0.0,-0.0,-0.0,-0.0,-0.0,-0.0,-0.399,-1.4153,-1.5276,-1.5235,-1.5187,-1.5181,-1.5201,-1.5235,-1.5309,-1.5371,-1.5411,-1.5486,-1.5567,-1.5635,-1.5642,-1.556,-1.5411,-1.5479,-1.554,-1.5588,-1.5655,-1.575,2.3554,2.4155,2.4488,2.4314,2.3166,2.1603,1.96,1.7502,1.6013,1.6377,1.5044,1.3816,1.4105,1.4367,1.4692,1.4746,1.4991,1.5167,1.5181,1.5181,1.5181,1.5181,1.5181,1.5181,1.5181,1.5181,1.5181,1.5181,1.5181,1.5181,1.5181,1.5181,1.5181,1.5181,1.5181,1.5181,1.5181,1.5181,1.5201,1.5248,1.4864,0.969,0.057,0.019,-0.0,-0.0,-0.0,-0.0,-0.0,-0.0,-0.0,-0.0,-0.0,-0.0,-0.0,-0.0,-0.0,-0.0,-0.0,-0.0,-0.0,-0.0,-0.0,-0.0,-0.0,-0.0,-0.0,-0.0,-0.0,-0.0,-0.0,-0.0,-0.0,-0.0,-0.0,-0.0,-0.0,-0.0,-0.0,-0.0,-0.0,-0.0,-0.0,-0.0,-0.0,-0.0,-0.0,-0.0,-0.0,-0.0,-0.3993,-1.4178,-1.5289,-1.5235,-1.5187,-1.5181,-1.5242,-1.5384,-1.5269,-1.5262,-1.5404,-1.5282,-1.535,-1.5635,-1.5642,-1.556,-1.5411,-1.5689,-1.5683,-1.5432,-1.571,-1.5845,2.314,2.3901,2.4327,2.2806,2.1371,2.0082,1.9493,1.8001,1.6369,1.5444,1.4541,1.3939,1.4048,1.4434,1.474,1.474,1.4991,1.5181,1.5181,1.5181,1.5181,1.5181,1.5181,1.5181,1.5181,1.5181,1.5181,1.5181,1.5181,1.5181,1.5181,1.5181,1.5181,1.5181,1.5181,1.5181,1.5181,1.5181,1.5194,1.5208,1.5235,1.3145,0.9328,0.2849,-0.0,-0.0,-0.0,-0.0,-0.0,-0.0,-0.0,-0.0,-0.0,-0.0,-0.0,-0.0,-0.0,-0.0,-0.0,-0.0,-0.0,-0.0,-0.0,-0.0,-0.0,-0.0,-0.0,-0.0,-0.0,-0.0,-0.0,-0.0,-0.0,-0.0,-0.0,-0.0,-0.0,-0.0,-0.0,-0.0,-0.0,-0.0,-0.0,-0.0,-0.0,-0.0,-0.0,-0.0,-0.0,-0.0,-0.1524,-0.5327,-1.1421,-1.5242,-1.5228,-1.5201,-1.5248,-1.5398,-1.5357,-1.5391,-1.5547,-1.5404,-1.5377,-1.5493,-1.5404,-1.5323,-1.5269,-1.5384,-1.5425,-1.5418,-1.5622,-1.5716,2.3126,2.3875,2.4044,2.1845,2.0396,1.9205,1.8938,1.7492,1.5886,1.4958,1.4448,1.4197,1.415,1.4428,1.4665,1.4665,1.4957,1.5181,1.5181,1.5181,1.5181,1.5181,1.5181,1.5181,1.5181,1.5181,1.5181,1.5181,1.5181,1.5181,1.5181,1.5181,1.5181,1.5181,1.5181,1.5181,1.5181,1.5181,1.5181,1.5181,1.5215,1.5248,1.4897,0.6835,0.209,-0.0,-0.0,-0.0,-0.0,-0.0,-0.0,-0.0,-0.0,-0.0,-0.0,-0.0,-0.0,-0.0,-0.0,-0.0,-0.0,-0.0,-0.0,-0.0,-0.0,-0.0,-0.0,-0.0,-0.0,-0.0,-0.0,-0.0,-0.0,-0.0,-0.0,-0.0,-0.0,-0.0,-0.0,-0.0,-0.0,-0.0,-0.0,-0.0,-0.0,-0.0,-0.0,-0.0,-0.0,-0.0,-0.0,-0.0,-0.6263,-1.1789,-1.4864,-1.5221,-1.5282,-1.5472,-1.5486,-1.5527,-1.5635,-1.5493,-1.5411,-1.5411,-1.5309,-1.5228,-1.5181,-1.5228,-1.5282,-1.5343,-1.5547,-1.5642,2.3688,2.4195,2.4097,2.2058,2.0334,1.8836,1.7315,1.5309,1.4102,1.4997,1.4828,1.4475,1.4326,1.4421,1.4516,1.4516,1.4889,1.5181,1.5181,1.5181,1.5181,1.5181,1.5181,1.5181,1.5181,1.5181,1.5181,1.5181,1.5181,1.5181,1.5181,1.5181,1.5181,1.5181,1.5181,1.5181,1.5181,1.5181,1.5181,1.5181,1.5181,1.5208,1.506,1.1773,0.6444,0.019,-0.0,-0.0,-0.0,-0.0,-0.0,-0.0,-0.0,-0.0,-0.0,-0.0,-0.0,-0.0,-0.0,-0.0,-0.0,-0.0,-0.0,-0.0,-0.0,-0.0,-0.0,-0.0,-0.0,-0.0,-0.0,-0.0,-0.0,-0.0,-0.0,-0.0,-0.0,-0.0,-0.0,-0.0,-0.0,-0.0,-0.0,-0.0,-0.0,-0.0,-0.0,-0.0,-0.0,-0.0,-0.0,-0.0,-0.0,-0.4176,-1.4285,-1.5248,-1.5364,-1.5622,-1.5635,-1.5642,-1.5642,-1.5499,-1.5411,-1.5411,-1.5411,-1.5337,-1.5181,-1.5337,-1.533,-1.5187,-1.5499,-1.5642,2.322,2.2832,2.2372,2.1534,1.9631,1.7715,1.7237,1.5578,1.4448,1.4936,1.493,1.4753,1.4496,1.4658,1.4801,1.4692,1.4957,1.5181,1.5181,1.5181,1.5181,1.5181,1.5181,1.5181,1.5181,1.5181,1.5181,1.5181,1.5181,1.5181,1.5181,1.5181,1.5181,1.5181,1.5181,1.5181,1.5181,1.5181,1.5181,1.5181,1.5181,1.5208,1.5248,1.409,1.2561,1.0284,0.304,-0.0,-0.0,-0.0,-0.0,-0.0,-0.0,-0.0,-0.0,-0.0,-0.0,-0.0,-0.0,-0.0,-0.0,-0.0,-0.0,-0.0,-0.0,-0.0,-0.0,-0.0,-0.0,-0.0,-0.0,-0.0,-0.0,-0.0,-0.0,-0.0,-0.0,-0.0,-0.0,-0.0,-0.0,-0.0,-0.0,-0.0,-0.0,-0.0,-0.0,-0.0,-0.0,-0.0,-0.0,-0.0,-0.0,-0.2658,-0.9307,-1.3134,-1.5364,-1.5622,-1.554,-1.5622,-1.5934,-1.5805,-1.5676,-1.5574,-1.5567,-1.5445,-1.5181,-1.5337,-1.533,-1.5187,-1.5499,-1.5642,2.1655,2.1118,2.0626,1.983,1.8578,1.7173,1.6463,1.5406,1.4652,1.4841,1.4828,1.4753,1.4624,1.4753,1.4869,1.4835,1.5031,1.5181,1.5181,1.5181,1.5181,1.5181,1.5181,1.5181,1.5181,1.5181,1.5181,1.5181,1.5181,1.5181,1.5181,1.5181,1.5181,1.5181,1.5181,1.5181,1.5181,1.5181,1.5181,1.5181,1.5181,1.5194,1.5221,1.5221,1.5248,1.4702,0.6648,0.3037,0.2848,0.0761,-0.0,-0.0,-0.0,-0.0,-0.0,-0.0,-0.0,-0.0,-0.0,-0.0,-0.0,-0.0,-0.0,-0.0,-0.0,-0.0,-0.0,-0.0,-0.0,-0.0,-0.0,-0.0,-0.0,-0.0,-0.0,-0.0,-0.0,-0.0,-0.0,-0.0,-0.0,-0.0,-0.0,-0.0,-0.0,-0.0,-0.0,-0.0,-0.0,-0.0,-0.0,-0.0,-0.0,-0.1331,-0.4365,-1.1042,-1.518,-1.5361,-1.5479,-1.5574,-1.5893,-1.5757,-1.5635,-1.5547,-1.5486,-1.5364,-1.5181,-1.5276,-1.5269,-1.5187,-1.5432,-1.5581,1.9637,1.9344,1.8846,1.7656,1.723,1.6695,1.5216,1.4821,1.4706,1.4733,1.4631,1.4577,1.4713,1.474,1.4794,1.4943,1.5079,1.5167,1.5181,1.5181,1.5181,1.5181,1.5181,1.5181,1.5181,1.5181,1.5181,1.5181,1.5181,1.5181,1.5181,1.5181,1.5181,1.5181,1.5181,1.5181,1.5181,1.5181,1.5181,1.5181,1.5181,1.5181,1.5181,1.5181,1.5208,1.4864,1.0262,0.8357,0.7978,0.3229,0.114,0.057,0.0191,-0.0,-0.0,-0.0,-0.0,-0.0,-0.0,-0.0,-0.0,-0.0,-0.0,-0.0,-0.0,-0.0,-0.0,-0.0,-0.0,-0.0,-0.0,-0.0,-0.0,-0.0,-0.0,-0.0,-0.0,-0.0,-0.0,-0.0,-0.0,-0.0,-0.0,-0.0,-0.0,-0.0,-0.0,-0.0,-0.0,-0.0,-0.0,-0.0,-0.0,-0.0,-0.0,-0.8576,-1.4019,-1.4674,-1.5254,-1.5499,-1.5615,-1.5499,-1.5425,-1.5411,-1.5289,-1.5208,-1.5181,-1.5194,-1.5194,-1.5187,-1.5337,-1.5486,2.0407,1.8572,1.6691,1.6842,1.5935,1.5054,1.474,1.4584,1.4462,1.4692,1.4713,1.4699,1.4733,1.474,1.4794,1.4943,1.4997,1.5059,1.5167,1.5181,1.5181,1.5181,1.5181,1.5181,1.5181,1.5181,1.5181,1.5181,1.5181,1.5181,1.5181,1.5181,1.5181,1.5181,1.5181,1.5181,1.5181,1.5181,1.5181,1.5181,1.5181,1.5181,1.5181,1.5181,1.5208,1.506,1.4096,1.353,1.3554,1.24,0.9513,0.5505,0.152,-0.0,-0.0,-0.0,-0.0,-0.0,-0.0,-0.0,-0.0,-0.0,-0.0,-0.0,-0.0,-0.0,-0.0,-0.0,-0.0,-0.0,-0.0,-0.0,-0.0,-0.0,-0.0,-0.0,-0.0,-0.0,-0.0,-0.0,-0.0,-0.0,-0.0,-0.0,-0.0,-0.0,-0.0,-0.0,-0.0,-0.0,-0.0,-0.0,-0.0,-0.0,-0.0,-0.209,-0.553,-1.0768,-1.3798,-1.5343,-1.5452,-1.5547,-1.5533,-1.5411,-1.5499,-1.5425,-1.5181,-1.5303,-1.5303,-1.5187,-1.5337,-1.5432,1.733,1.5922,1.4795,1.5534,1.5042,1.4529,1.4611,1.4462,1.4326,1.4407,1.4529,1.4631,1.4631,1.4692,1.4767,1.4848,1.4923,1.4997,1.5072,1.514,1.5181,1.5181,1.5181,1.5181,1.5181,1.5181,1.5181,1.5181,1.5181,1.5181,1.5181,1.5181,1.5181,1.5181,1.5181,1.5181,1.5181,1.5181,1.5181,1.5181,1.5181,1.5181,1.5181,1.5181,1.5194,1.5221,1.5221,1.5228,1.5248,1.5269,1.3725,1.1028,0.8375,0.4373,-0.0,-0.0,-0.0,-0.0,-0.0,-0.0,-0.0,-0.0,-0.0,-0.0,-0.0,-0.0,-0.0,-0.0,-0.0,-0.0,-0.0,-0.0,-0.0,-0.0,-0.0,-0.0,-0.0,-0.0,-0.0,-0.0,-0.0,-0.0,-0.0,-0.0,-0.0,-0.0,-0.0,-0.0,-0.0,-0.0,-0.0,-0.0,-0.0,-0.0,-0.0,-0.0,-0.1524,-0.4963,-1.1447,-1.5296,-1.533,-1.5391,-1.5384,-1.5303,-1.5377,-1.5343,-1.5181,-1.5262,-1.5262,-1.5181,-1.5262,-1.5343,1.3669,1.3415,1.3451,1.4299,1.4509,1.4502,1.4482,1.4387,1.4251,1.4068,1.4272,1.4468,1.4441,1.4563,1.4672,1.4699,1.4828,1.493,1.493,1.5059,1.5147,1.5147,1.5147,1.5153,1.5181,1.5181,1.5181,1.5181,1.5181,1.5181,1.5181,1.5181,1.5181,1.5181,1.5181,1.5181,1.5181,1.5181,1.5181,1.5181,1.5181,1.5181,1.5181,1.5181,1.5181,1.5181,1.5181,1.5181,1.5187,1.5221,1.5242,1.5248,1.512,0.972,0.1709,0.1333,0.0763,-0.0,-0.0,-0.0,-0.0,-0.0,-0.0,-0.0,-0.0,-0.0,-0.0,-0.0,-0.0,-0.0,-0.0,-0.0,-0.0,-0.0,-0.0,-0.0,-0.0,-0.0,-0.0,-0.0,-0.0,-0.0,-0.0,-0.0,-0.0,-0.0,-0.0,-0.0,-0.0,-0.0,-0.0,-0.0,-0.0,-0.0,-0.0,-0.0,-0.0,-0.0,-0.7989,-1.3352,-1.506,-1.5215,-1.5194,-1.5181,-1.5181,-1.5181,-1.5181,-1.5181,-1.5181,-1.5181,-1.5181,-1.5248,1.4424,1.402,1.3722,1.4353,1.4509,1.4482,1.4353,1.4312,1.4217,1.3933,1.4116,1.4285,1.4156,1.4258,1.4401,1.4523,1.4672,1.4767,1.4767,1.4903,1.4997,1.4997,1.4997,1.5045,1.5167,1.5181,1.5181,1.5181,1.5181,1.5181,1.5181,1.5181,1.5181,1.5181,1.5181,1.5181,1.5181,1.5181,1.5181,1.5181,1.5181,1.5181,1.5181,1.5181,1.5181,1.5181,1.5181,1.5181,1.5181,1.5187,1.5194,1.5194,1.5248,1.2556,0.8531,0.7213,0.3798,-0.0,-0.0,-0.0,-0.0,-0.0,-0.0,-0.0,-0.0,-0.0,-0.0,-0.0,-0.0,-0.0,-0.0,-0.0,-0.0,-0.0,-0.0,-0.0,-0.0,-0.0,-0.0,-0.0,-0.0,-0.0,-0.0,-0.0,-0.0,-0.0,-0.0,-0.0,-0.0,-0.0,-0.0,-0.0,-0.0,-0.0,-0.0,-0.0,-0.0,-0.0,-0.133,-0.6076,-1.4864,-1.5248,-1.5221,-1.5181,-1.5181,-1.5181,-1.5181,-1.5181,-1.5181,-1.5181,-1.5181,-1.5194,1.323,1.3404,1.3498,1.4007,1.4136,1.4122,1.4055,1.4041,1.398,1.377,1.3892,1.4048,1.4068,1.4129,1.4224,1.4367,1.4516,1.4611,1.4611,1.4746,1.4841,1.4841,1.4841,1.4903,1.5052,1.5065,1.5099,1.5174,1.5181,1.5181,1.5181,1.5181,1.5181,1.5181,1.5181,1.5181,1.5181,1.5181,1.5181,1.5181,1.5181,1.5181,1.5181,1.5181,1.5181,1.5181,1.5181,1.5181,1.5181,1.5181,1.5181,1.5187,1.5235,1.4279,1.2928,1.2188,1.0479,0.7616,0.1888,-0.0,-0.0,-0.0,-0.0,-0.0,-0.0,-0.0,-0.0,-0.0,-0.0,-0.0,-0.0,-0.0,-0.0,-0.0,-0.0,-0.0,-0.0,-0.0,-0.0,-0.0,-0.0,-0.0,-0.0,-0.0,-0.0,-0.0,-0.0,-0.0,-0.0,-0.0,-0.0,-0.0,-0.0,-0.0,-0.0,-0.0,-0.0,-0.0,-0.0,-0.3227,-1.0645,-1.3706,-1.5228,-1.5181,-1.5181,-1.5181,-1.5181,-1.5181,-1.5181,-1.5181,-1.5181,-1.5181,1.2094,1.2576,1.2956,1.3485,1.3675,1.3729,1.3729,1.3783,1.379,1.3607,1.3688,1.3824,1.3939,1.3987,1.4061,1.4217,1.4367,1.4462,1.4462,1.4584,1.4679,1.4679,1.4679,1.474,1.4896,1.495,1.5018,1.512,1.5126,1.5126,1.5126,1.5126,1.5126,1.5126,1.516,1.5167,1.5126,1.5092,1.5092,1.5126,1.5086,1.5072,1.5072,1.5072,1.5092,1.5133,1.5167,1.5181,1.5181,1.5181,1.5181,1.5181,1.5181,1.5181,1.5181,1.5208,1.5248,1.3907,0.5068,0.1125,-0.0,-0.0,-0.0,-0.0,-0.0,-0.0,-0.0,-0.0,-0.0,-0.0,-0.0,-0.0,-0.0,-0.0,-0.0,-0.0,-0.0,-0.0,-0.0,-0.0,-0.0,-0.0,-0.0,-0.0,-0.0,-0.0,-0.0,-0.0,-0.0,-0.0,-0.0,-0.0,-0.0,-0.0,-0.0,-0.0,-0.0,-0.0,-0.0,-0.171,-0.5505,-1.1794,-1.5242,-1.5201,-1.5187,-1.5181,-1.5181,-1.5181,-1.5181,-1.5181,-1.5181,-1.5181,1.166,1.1884,1.2081,1.282,1.3214,1.3424,1.3424,1.3641,1.3763,1.3471,1.3532,1.3641,1.3648,1.3763,1.3905,1.4061,1.4211,1.4312,1.4312,1.4434,1.4523,1.4523,1.4523,1.4584,1.4733,1.4889,1.4977,1.4984,1.4984,1.4984,1.4984,1.4984,1.4984,1.4984,1.5113,1.512,1.4984,1.4835,1.4835,1.4977,1.4835,1.476,1.476,1.476,1.4841,1.4991,1.5126,1.5181,1.5181,1.5181,1.5181,1.5167,1.5038,1.4984,1.4984,1.4984,1.5031,1.4512,0.8991,0.4121,-0.0,-0.0,-0.0,-0.0,-0.0,-0.0,-0.0,-0.0,-0.0,-0.0,-0.0,-0.0,-0.0,-0.0,-0.0,-0.0,-0.0,-0.0,-0.0,-0.0,-0.0,-0.0,-0.0,-0.0,-0.0,-0.0,-0.0,-0.0,-0.0,-0.0,-0.0,-0.0,-0.0,-0.0,-0.0,-0.0,-0.0,-0.0,-0.0,-0.0191,-0.038,-0.9901,-1.5282,-1.5248,-1.5208,-1.5181,-1.5181,-1.5181,-1.5181,-1.5181,-1.5181,-1.5181,1.1423,1.1687,1.1945,1.2413,1.2752,1.2969,1.2969,1.32,1.3383,1.3275,1.3376,1.3485,1.3485,1.3607,1.3749,1.3899,1.4055,1.4156,1.4156,1.4285,1.4373,1.4373,1.4373,1.4434,1.4577,1.4733,1.4821,1.4821,1.4916,1.497,1.497,1.497,1.5011,1.5106,1.5153,1.516,1.5106,1.4964,1.4916,1.497,1.4814,1.474,1.474,1.474,1.4828,1.4977,1.5025,1.5099,1.5174,1.5086,1.5045,1.5031,1.4882,1.4821,1.4821,1.4821,1.4855,1.4316,0.9386,0.4222,-0.0,-0.0,-0.0,-0.0,-0.0,-0.0,-0.0,-0.0,-0.0,-0.0,-0.0,-0.0,-0.0,-0.0,-0.0,-0.0,-0.0,-0.0,-0.0,-0.0,-0.0,-0.0,-0.0,-0.0,-0.0,-0.0,-0.0,-0.0,-0.0,-0.0,-0.0,-0.0,-0.0,-0.0,-0.0,-0.0,-0.0,-0.0,-0.0,-0.0,-0.0,-0.6648,-1.1799,-1.506,-1.5208,-1.5181,-1.5181,-1.5181,-1.5181,-1.5181,-1.5181,-1.5181,1.1097,1.1348,1.1633,1.2033,1.2284,1.2481,1.2684,1.2922,1.3112,1.3159,1.3295,1.3403,1.3403,1.3485,1.3614,1.381,1.3926,1.4027,1.4136,1.4238,1.4299,1.4299,1.4299,1.434,1.4434,1.4577,1.4665,1.4665,1.476,1.4814,1.4814,1.4814,1.4882,1.5031,1.5086,1.5086,1.5031,1.4889,1.4814,1.4814,1.4665,1.459,1.459,1.459,1.4699,1.4896,1.4896,1.5004,1.5174,1.5079,1.5038,1.5025,1.4821,1.474,1.4733,1.4679,1.4692,1.4153,1.1113,0.5625,-0.0,-0.0,-0.0,-0.0,-0.0,-0.0,-0.0,-0.0,-0.0,-0.0,-0.0,-0.0,-0.0,-0.0,-0.0,-0.0,-0.0,-0.0,-0.0,-0.0,-0.0,-0.0,-0.0,-0.0,-0.0,-0.0,-0.0,-0.0,-0.0,-0.0,-0.0,-0.0,-0.0,-0.0,-0.0,-0.0,-0.0,-0.0,-0.0,-0.0,-0.0,-0.3229,-0.8171,-1.5093,-1.5235,-1.5208,-1.5208,-1.5187,-1.5181,-1.5181,-1.5181,-1.5181,0.0,0.0,0.0,1.1667,1.1823,1.1986,1.2569,1.2827,1.2983,1.3125,1.3275,1.339,1.3397,1.3397,1.3498,1.379,1.3838,1.3946,1.4245,1.4292,1.4299,1.4299,1.4299,1.4299,1.4299,1.4428,1.4509,1.4509,1.4509,1.4509,1.4509,1.4523,1.459,1.474,1.4896,1.4896,1.4746,1.459,1.4509,1.4509,1.4367,1.4299,1.4299,1.4306,1.4468,1.474,1.4746,1.4909,1.5181,1.5174,1.5174,1.5147,1.4848,1.4733,1.4713,1.4563,1.435,1.4383,1.4563,0.8344,0.0363,0.0179,-0.0,-0.0,-0.0,-0.0,-0.0,-0.0,-0.0,-0.0,-0.0,-0.0,-0.0,-0.0,-0.0,-0.0,-0.0,-0.0,-0.0,-0.0,-0.0,-0.0,-0.0,-0.0,-0.0,-0.0,-0.0,-0.0,-0.0,-0.0,-0.0,-0.0,-0.0,-0.0,-0.0,-0.0,-0.0,-0.0,-0.0,-0.0,-0.0,-0.0,-0.4565,-1.4577,-1.4897,-1.506,-1.5255,-1.5208,-1.5181,-1.5181,-1.5181,-1.5181,1.0575,0.0,0.0,0.0,0.0,0.0,1.204,1.2284,1.2515,1.2657,1.2901,1.3112,1.3214,1.3322,1.3464,1.3654,1.3777,1.3871,1.3953,1.4156,1.4299,1.4299,1.4299,1.4299,1.4299,1.4428,1.4468,1.4367,1.4455,1.4509,1.4509,1.4726,1.4862,1.4903,1.495,1.495,1.4909,1.4645,1.4509,1.4509,1.4367,1.4299,1.4306,1.4407,1.4557,1.4746,1.4862,1.5011,1.5174,1.5072,1.5031,1.4997,1.4692,1.4577,1.4557,1.4414,1.4367,1.438,1.4401,1.261,0.9178,0.2327,-0.0,-0.0,-0.0,-0.0,-0.0,-0.0,-0.0,-0.0,-0.0,-0.0,-0.0,-0.0,-0.0,-0.0,-0.0,-0.0,-0.0,-0.0,-0.0,-0.0,-0.0,-0.0,-0.0,-0.0,-0.0,-0.0,-0.0,-0.0,-0.0,-0.0,-0.0,-0.0,-0.0,-0.0,-0.0,-0.0,-0.0,-0.0,-0.0,-0.0,-0.133,-0.4183,-0.7788,-1.161,-1.5289,-1.5215,-1.5181,-1.5181,-1.5181,-1.5181,1.0609,1.0826,1.1118,1.1307,0.0,0.0,1.1965,1.2162,1.2345,1.2556,1.2793,1.2983,1.3071,1.3207,1.3336,1.3424,1.3661,1.3865,1.3926,1.415,1.4299,1.4299,1.4299,1.4299,1.4299,1.4373,1.4387,1.4306,1.4373,1.4448,1.4509,1.474,1.4875,1.4875,1.4997,1.497,1.478,1.4665,1.4543,1.4421,1.434,1.4333,1.4387,1.4414,1.4577,1.4835,1.4862,1.4991,1.5174,1.5092,1.5059,1.5038,1.4794,1.4665,1.459,1.4441,1.4353,1.4306,1.434,1.4373,1.3311,0.771,0.3227,-0.0,-0.0,-0.0,-0.0,-0.0,-0.0,-0.0,-0.0,-0.0,-0.0,-0.0,-0.0,-0.0,-0.0,-0.0,-0.0,-0.0,-0.0,-0.0,-0.0,-0.0,-0.0,-0.0,-0.0,-0.0,-0.0,-0.0,-0.0,-0.0,-0.0,-0.0,-0.0,-0.0,-0.0,-0.0,-0.0,-0.0,-0.0,-0.0,-0.0952,-0.3048,-0.8189,-1.1247,-1.2005,-1.4077,-1.5201,-1.5181,-1.5181,-1.5181,1.0751,1.0867,1.109,1.1491,1.1504,0.0,1.2094,1.2216,1.2298,1.2576,1.2752,1.2868,1.2881,1.3017,1.3119,1.3098,1.3505,1.3871,1.4021,1.419,1.4299,1.4299,1.4299,1.4299,1.4299,1.4299,1.4299,1.4299,1.4299,1.4353,1.4482,1.4631,1.4719,1.474,1.4977,1.4923,1.4543,1.4638,1.4557,1.4299,1.4299,1.4367,1.4482,1.4394,1.4563,1.4936,1.4835,1.4936,1.5181,1.5181,1.5181,1.5167,1.5025,1.4889,1.4746,1.4577,1.4434,1.4326,1.4346,1.4018,1.3522,1.4104,0.775,-0.0,-0.0,-0.0,-0.0,-0.0,-0.0,-0.0,-0.0,-0.0,-0.0,-0.0,-0.0,-0.0,-0.0,-0.0,-0.0,-0.0,-0.0,-0.0,-0.0,-0.0,-0.0,-0.0,-0.0,-0.0,-0.0,-0.0,-0.0,-0.0,-0.0,-0.0,-0.0,-0.0,-0.0,-0.0,-0.0,-0.0,-0.0,-0.0,-0.2101,-0.6693,-1.1292,-1.1652,-0.7595,-1.275,-1.5228,-1.5187,-1.5181,-1.5181,1.0934,1.1104,1.1328,1.1416,1.1504,0.0,1.1721,1.1748,1.1796,1.1972,1.2128,1.2277,1.24,1.2637,1.2779,1.2651,1.322,1.3722,1.3865,1.4122,1.4299,1.4299,1.4299,1.4299,1.4299,1.4299,1.4299,1.4299,1.4299,1.4312,1.434,1.4475,1.4611,1.4733,1.4679,1.4658,1.4692,1.4489,1.4353,1.4299,1.4299,1.4312,1.4346,1.4557,1.4699,1.4794,1.5004,1.5126,1.5181,1.5181,1.5181,1.5167,1.5025,1.495,1.4896,1.4611,1.4496,1.4462,1.438,1.1704,0.9067,1.2957,0.7871,-0.0,-0.0,-0.0,-0.0,-0.0,-0.0,-0.0,-0.0,-0.0,-0.0,-0.0,-0.0,-0.0,-0.0,-0.0,-0.0,-0.0,-0.0,-0.0,-0.0,-0.0,-0.0,-0.0,-0.0,-0.0,-0.0,-0.0,-0.0,-0.0,-0.0,-0.0,-0.0,-0.0,-0.0,-0.0,-0.0,-0.0,-0.0,-0.0,-0.0382,-0.1527,-0.2481,-0.4575,-0.7616,-1.2762,-1.5248,-1.5235,-1.5201,-1.5181,1.1192,1.128,1.1409,1.1484,1.1565,0.0,0.0,1.1728,1.1769,1.1918,1.2006,1.2088,1.2162,1.2359,1.2508,1.2501,1.301,1.3424,1.3498,1.3966,1.4299,1.4299,1.4231,1.4217,1.4292,1.4231,1.4217,1.4292,1.4299,1.4333,1.4401,1.4543,1.4658,1.474,1.474,1.4706,1.4624,1.4482,1.4373,1.4299,1.4299,1.434,1.4414,1.4557,1.4713,1.4862,1.5011,1.512,1.5181,1.5181,1.5181,1.5174,1.5106,1.5031,1.495,1.4801,1.4706,1.4464,1.4423,1.2764,1.0221,0.7893,0.3845,-0.0,-0.0,-0.0,-0.0,-0.0,-0.0,-0.0,-0.0,-0.0,-0.0,-0.0,-0.0,-0.0,-0.0,-0.0,-0.0,-0.0,-0.0,-0.0,-0.0,-0.0,-0.0,-0.0,-0.0,-0.0,-0.0,-0.0,-0.0,-0.0,-0.0,-0.0,-0.0,-0.0,-0.0,-0.0,-0.0,-0.0,-0.0,-0.0,-0.0,-0.0,-0.0,-0.1335,-0.3812,-0.6461,-1.0266,-1.5276,-1.5235,-1.5215,1.1436,1.1436,1.1463,1.1586,1.1619,1.1647,0.0,0.0,0.0,1.1952,1.1979,1.1979,1.1979,1.2101,1.223,1.2318,1.2759,1.3071,1.301,1.3627,1.4095,1.4122,1.4068,1.4068,1.4163,1.4034,1.4041,1.4285,1.4217,1.4258,1.4462,1.4611,1.4713,1.474,1.4835,1.4774,1.4557,1.4502,1.4414,1.4299,1.4326,1.4387,1.4475,1.4563,1.4719,1.493,1.4984,1.5079,1.5181,1.5181,1.5181,1.5181,1.5181,1.5113,1.5011,1.4984,1.4909,1.4461,1.3334,1.3499,1.2735,0.3149,-0.0,-0.0,-0.0,-0.0,-0.0,-0.0,-0.0,-0.0,-0.0,-0.0,-0.0,-0.0,-0.0,-0.0,-0.0,-0.0,-0.0,-0.0,-0.0,-0.0,-0.0,-0.0,-0.0,-0.0,-0.0,-0.0,-0.0,-0.0,-0.0,-0.0,-0.0,-0.0,-0.0,-0.0,-0.0,-0.0,-0.0,-0.0,-0.0,-0.0,-0.0,-0.0,-0.0,-0.0,-0.0,-0.0,-0.4183,-1.221,-1.3335,-1.4291,1.1592,1.1592,1.1599,1.1613,1.1619,1.1619,1.164,0.0,1.1647,1.1667,0.0,1.1667,1.1667,0.0,0.0,1.1735,1.2318,1.2691,1.2427,1.2915,1.3349,1.3485,1.3715,1.3824,1.3715,1.3566,1.3709,1.4258,1.3933,1.3885,1.4299,1.4462,1.4597,1.4733,1.4624,1.4611,1.4713,1.4455,1.4319,1.4299,1.4428,1.4428,1.434,1.4733,1.4862,1.478,1.5045,1.5167,1.5181,1.5181,1.5181,1.5181,1.5181,1.5174,1.5147,1.5018,1.4977,1.4216,0.9613,1.0791,1.28,0.3189,-0.0,-0.0,-0.0,-0.0,-0.0,-0.0,-0.0,-0.0,-0.0,-0.0,-0.0,-0.0,-0.0,-0.0,-0.0,-0.0,-0.0,-0.0,-0.0,-0.0,-0.0,-0.0,-0.0,-0.0,-0.0,-0.0,-0.0,-0.0,-0.0,-0.0,-0.0,-0.0,-0.0,-0.0,-0.0,-0.0,-0.0,-0.0,-0.0,-0.0,-0.0,-0.0,-0.0,-0.0,-0.0,-0.0,-0.0571,-0.1899,-0.6266,-1.0848,1.1619,1.1619,1.1619,1.1619,1.1619,1.1619,1.1619,1.1619,1.1619,1.1619,0.0,0.0,0.0,0.0,0.0,0.0,1.2081,1.2298,1.2176,1.2515,1.2901,1.3227,1.3302,1.3376,1.3485,1.3437,1.3539,1.3885,1.3654,1.3654,1.4014,1.4258,1.4421,1.4482,1.459,1.459,1.4489,1.4441,1.438,1.4299,1.436,1.436,1.4306,1.4584,1.4665,1.4624,1.493,1.5059,1.5065,1.5147,1.5181,1.5181,1.5181,1.5181,1.5181,1.5147,1.5153,1.4792,1.2648,0.9228,0.5256,0.1298,-0.0,-0.0,-0.0,-0.0,-0.0,-0.0,-0.0,-0.0,-0.0,-0.0,-0.0,-0.0,-0.0,-0.0,-0.0,-0.0,-0.0,-0.0,-0.0,-0.0,-0.0,-0.0,-0.0,-0.0,-0.0,-0.0,-0.0,-0.0,-0.0,-0.0,-0.0,-0.0,-0.0,-0.0,-0.0,-0.0,-0.0,-0.0,-0.0,-0.0,-0.0,-0.0,-0.0,-0.0,-0.0,-0.0,-0.0,-0.0,-0.228,-0.4367,1.1619,1.1619,1.1619,1.1619,1.1619,1.1619,1.1619,1.1647,1.1667,1.1626,1.1653,0.0,0.0,0.0,1.1653,1.1755,0.0,1.1986,1.1945,1.2155,1.2454,1.282,1.2847,1.2969,1.3308,1.3193,1.3227,1.3546,1.3308,1.3356,1.3817,1.4095,1.4292,1.4414,1.4631,1.4638,1.4421,1.4523,1.4482,1.4299,1.438,1.438,1.4306,1.4536,1.4611,1.459,1.4896,1.5031,1.5038,1.514,1.5187,1.5201,1.5201,1.5208,1.5221,1.5242,1.5276,1.5127,1.5154,0.8554,-0.0,-0.0,-0.0,-0.0,-0.0,-0.0,-0.0,-0.0,-0.0,-0.0,-0.0,-0.0,-0.0,-0.0,-0.0,-0.0,-0.0,-0.0,-0.0,-0.0,-0.0,-0.0,-0.0,-0.0,-0.0,-0.0,-0.0,-0.0,-0.0,-0.0,-0.0,-0.0,-0.0,-0.0,-0.0,-0.0,-0.0,-0.0,-0.0,-0.0,-0.0,-0.0,-0.0,-0.0,-0.0,-0.0,-0.0,-0.0,-0.0,-0.0,-0.0,-0.0,1.1619,1.1619,1.1619,1.1619,1.1619,1.1619,1.1619,1.1728,1.1782,1.1647,1.1728,1.1782,1.1647,1.1619,1.1619,1.1626,1.1748,0.0,0.0,1.1762,1.1911,1.2081,1.2345,1.2691,1.3139,1.2664,1.263,1.3356,1.2861,1.2915,1.379,1.3994,1.4278,1.4713,1.4733,1.4733,1.4726,1.4733,1.4584,1.4306,1.459,1.4577,1.4312,1.4753,1.4875,1.4746,1.5045,1.5174,1.5174,1.5181,1.5208,1.5248,1.5248,1.5269,1.5107,1.5262,1.5296,1.516,1.516,0.8592,-0.0,-0.0,-0.0,-0.0,-0.0,-0.0,-0.0,-0.0,-0.0,-0.0,-0.0,-0.0,-0.0,-0.0,-0.0,-0.0,-0.0,-0.0,-0.0,-0.0,-0.0,-0.0,-0.0,-0.0,-0.0,-0.0,-0.0,-0.0,-0.0,-0.0,-0.0,-0.0,-0.0,-0.0,-0.0,-0.0,-0.0,-0.0,-0.0,-0.0,-0.0,-0.0,-0.0,-0.0,-0.0,-0.0,-0.0,-0.0,-0.0,-0.0,-0.0,-0.0,1.1619,1.1619,1.1619,1.1619,1.1619,1.1619,1.1619,1.1728,1.1789,1.1647,1.1735,1.1789,1.1647,1.1619,1.1619,1.1619,1.166,1.1674,0.0,1.166,1.1742,1.1891,1.2257,1.2522,1.2583,1.2494,1.2535,1.2786,1.2712,1.2874,1.337,1.3729,1.4082,1.4434,1.4638,1.474,1.474,1.474,1.4638,1.4441,1.4448,1.4394,1.4306,1.4455,1.4496,1.4468,1.476,1.4889,1.4909,1.5133,1.5235,1.4864,1.1411,1.2205,1.5147,1.5133,1.514,1.4191,0.7446,0.2862,-0.0,-0.0,-0.0,-0.0,-0.0,-0.0,-0.0,-0.0,-0.0,-0.0,-0.0,-0.0,-0.0,-0.0,-0.0,-0.0,-0.0,-0.0,-0.0,-0.0,-0.0,-0.0,-0.0,-0.0,-0.0,-0.0,-0.0,-0.0,-0.0,-0.0,-0.0,-0.0,-0.0,-0.0,-0.0,-0.0,-0.0,-0.0,-0.0,-0.0,-0.0,-0.0,-0.0,-0.0,-0.0,-0.0,-0.0,-0.0,-0.0,-0.0,-0.0,-0.0,1.1619,1.1619,1.1633,1.1681,1.1694,1.1694,1.1694,1.1809,1.1857,1.166,1.1735,1.1789,1.1647,1.1619,1.1619,1.1619,1.1619,1.1619,0.0,1.1619,1.1653,1.1742,1.2054,1.2271,1.2291,1.2271,1.2332,1.2488,1.2549,1.2745,1.3152,1.3546,1.3953,1.436,1.4557,1.4685,1.474,1.474,1.4638,1.4434,1.4394,1.4346,1.4299,1.4353,1.4373,1.4394,1.4706,1.4841,1.4862,1.5147,1.5276,1.4897,1.1579,1.2389,1.5187,1.5167,1.2835,0.879,0.2289,-0.0,-0.0,-0.0,-0.0,-0.0,-0.0,-0.0,-0.0,-0.0,-0.0,-0.0,-0.0,-0.0,-0.0,-0.0,-0.0,-0.0,-0.0,-0.0,-0.0,-0.0,-0.0,-0.0,-0.0,-0.0,-0.0,-0.0,-0.0,-0.0,-0.0,-0.0,-0.0,-0.0,-0.0,-0.0,-0.0,-0.0,-0.0,-0.0,-0.0,-0.0,-0.0,-0.0,-0.0,-0.0,-0.0,-0.0,-0.0,-0.0,-0.0,-0.0,-0.0,-0.0]},{"header":{"parameterUnit":"m.s-1","parameterCategory":1,"la1":30.6,"la2":29.2853,"lo1":-89.7004,"lo2":-87.6739,"dy":0.0162,"dx":0.0183,"nx":112,"ny":82,"refTime":"2024-09-22T12:00:00:Z","depth":0,"parameterNumber":3,"parameterNumberName":"V-component_of_WINDS"},"data":[0.0,0.0,0.0,0.0,0.0,0.0,0.0,0.0,0.0,0.0,0.0,0.0,0.0,0.0,0.0,0.0,0.0,0.0,0.0,0.0,0.0,0.0,0.0,0.0,0.0,0.0,0.0,0.0,0.0,0.0,0.0,0.0,0.0,0.0,0.0,0.0,0.0,0.0,0.0,0.0,0.0,0.0,0.0,0.0,0.0,0.0,0.0,0.0,0.0,0.0,0.0,0.0,0.0,0.0,0.0,0.0,0.0,0.0,0.0,0.0,0.0,0.0,0.0,0.0,0.0,0.0,0.0,0.0,0.0,0.0,0.0,0.0,0.0,0.0,0.0,0.0,0.0,0.0,0.0,0.0,0.0,0.0,0.0,0.0,0.0,0.0,0.0,0.0,0.0,0.0,-6.0501,-6.1633,-6.3896,-6.5191,-6.4934,-6.5778,-6.3943,-5.8364,0.0,0.0,0.0,0.0,0.0,0.0,0.0,0.0,0.0,0.0,0.0,0.0,0.0,0.0,0.0,0.0,0.0,0.0,0.0,0.0,0.0,0.0,0.0,0.0,0.0,0.0,0.0,0.0,0.0,0.0,0.0,0.0,0.0,0.0,0.0,0.0,0.0,0.0,0.0,0.0,0.0,0.0,0.0,0.0,0.0,0.0,0.0,0.0,0.0,0.0,0.0,0.0,0.0,0.0,0.0,0.0,0.0,0.0,0.0,0.0,0.0,0.0,0.0,0.0,0.0,0.0,0.0,0.0,0.0,0.0,0.0,0.0,0.0,0.0,0.0,0.0,0.0,0.0,0.0,0.0,0.0,0.0,0.0,0.0,0.0,0.0,0.0,0.0,0.0,0.0,0.0,0.0,0.0,0.0,0.0,0.0,0.0,0.0,0.0,0.0,0.0,0.0,0.0,0.0,-6.1469,-6.3973,-6.4893,-6.4714,-6.3319,-6.4604,-6.3356,-5.8327,0.0,0.0,0.0,0.0,0.0,0.0,0.0,0.0,0.0,0.0,0.0,0.0,0.0,0.0,0.0,0.0,0.0,0.0,0.0,0.0,0.0,0.0,0.0,0.0,0.0,0.0,0.0,0.0,0.0,0.0,0.0,0.0,0.0,0.0,0.0,0.0,0.0,0.0,0.0,0.0,0.0,0.0,0.0,0.0,0.0,0.0,0.0,0.0,0.0,0.0,0.0,0.0,0.0,0.0,0.0,0.0,0.0,0.0,0.0,0.0,0.0,0.0,0.0,0.0,0.0,0.0,0.0,0.0,0.0,0.0,0.0,0.0,0.0,0.0,0.0,0.0,0.0,0.0,0.0,0.0,0.0,0.0,0.0,0.0,0.0,0.0,0.0,0.0,0.0,0.0,0.0,0.0,0.0,0.0,0.0,0.0,0.0,0.0,0.0,0.0,0.0,0.0,0.0,-5.9886,-6.1338,-6.4103,-6.4586,-6.4347,-6.3576,-6.42,-6.2548,-5.7666,-5.6932,0.0,0.0,0.0,0.0,0.0,0.0,0.0,0.0,0.0,0.0,0.0,0.0,0.0,0.0,0.0,0.0,0.0,0.0,0.0,0.0,0.0,0.0,0.0,0.0,0.0,0.0,0.0,0.0,0.0,0.0,0.0,0.0,0.0,0.0,0.0,0.0,0.0,0.0,0.0,0.0,0.0,0.0,0.0,0.0,0.0,0.0,0.0,0.0,0.0,0.0,0.0,0.0,0.0,0.0,0.0,0.0,0.0,0.0,0.0,0.0,0.0,0.0,0.0,0.0,0.0,0.0,0.0,0.0,0.0,0.0,0.0,0.0,0.0,0.0,0.0,0.0,0.0,0.0,0.0,0.0,0.0,0.0,0.0,0.0,0.0,0.0,0.0,0.0,0.0,0.0,0.0,0.0,0.0,0.0,0.0,0.0,0.0,0.0,0.0,0.0,0.0,0.0,-6.1092,-6.1842,-6.4021,-6.4154,-6.4016,-6.3796,-6.3429,-6.1374,-5.7079,-5.55,0.0,0.0,0.0,0.0,0.0,0.0,0.0,0.0,0.0,0.0,0.0,0.0,0.0,0.0,0.0,0.0,0.0,0.0,0.0,0.0,0.0,0.0,0.0,0.0,0.0,0.0,0.0,0.0,0.0,0.0,0.0,0.0,0.0,0.0,0.0,0.0,0.0,0.0,0.0,0.0,0.0,0.0,0.0,0.0,0.0,0.0,0.0,0.0,0.0,0.0,0.0,0.0,0.0,0.0,0.0,0.0,0.0,0.0,0.0,0.0,0.0,0.0,0.0,0.0,0.0,0.0,0.0,0.0,0.0,0.0,0.0,0.0,0.0,0.0,0.0,0.0,0.0,0.0,0.0,0.0,0.0,0.0,0.0,0.0,0.0,0.0,0.0,0.0,0.0,0.0,0.0,0.0,0.0,0.0,0.0,0.0,0.0,0.0,0.0,0.0,0.0,0.0,-6.2183,-6.4289,-6.4711,-6.4328,-6.3759,-6.2989,-6.152,-5.9575,-5.6969,-5.3922,0.0,0.0,0.0,0.0,0.0,0.0,0.0,0.0,0.0,0.0,0.0,0.0,0.0,0.0,0.0,0.0,0.0,0.0,0.0,0.0,0.0,0.0,0.0,0.0,0.0,0.0,0.0,0.0,0.0,0.0,0.0,0.0,0.0,0.0,0.0,0.0,0.0,0.0,0.0,0.0,0.0,0.0,0.0,0.0,0.0,0.0,0.0,0.0,0.0,0.0,0.0,0.0,0.0,0.0,0.0,0.0,0.0,0.0,0.0,0.0,0.0,0.0,0.0,0.0,0.0,0.0,0.0,0.0,0.0,0.0,0.0,0.0,0.0,0.0,0.0,0.0,0.0,0.0,0.0,0.0,0.0,0.0,0.0,0.0,0.0,0.0,0.0,0.0,0.0,0.0,0.0,0.0,0.0,0.0,0.0,0.0,0.0,0.0,0.0,0.0,0.0,0.0,-6.0188,-6.2118,-6.3427,-6.3395,-6.3172,-6.2842,-6.1777,-5.9685,-5.6271,0.0,0.0,0.0,0.0,0.0,0.0,0.0,0.0,0.0,0.0,0.0,0.0,0.0,0.0,0.0,0.0,0.0,0.0,0.0,0.0,0.0,0.0,0.0,0.0,0.0,0.0,0.0,0.0,0.0,0.0,0.0,0.0,0.0,0.0,0.0,0.0,0.0,0.0,0.0,0.0,0.0,0.0,0.0,0.0,0.0,0.0,0.0,0.0,0.0,0.0,0.0,0.0,0.0,0.0,0.0,0.0,0.0,0.0,0.0,0.0,0.0,0.0,0.0,0.0,0.0,0.0,0.0,0.0,0.0,0.0,0.0,0.0,0.0,0.0,0.0,0.0,0.0,0.0,0.0,0.0,0.0,0.0,0.0,0.0,0.0,0.0,0.0,0.0,0.0,0.0,0.0,0.0,0.0,0.0,0.0,0.0,0.0,0.0,0.0,0.0,0.0,0.0,-5.7804,-6.0041,-6.1898,-6.3177,-6.3014,-6.2805,-6.2805,-6.1374,-5.9061,-5.5794,0.0,0.0,0.0,0.0,0.0,0.0,0.0,0.0,0.0,0.0,0.0,0.0,0.0,0.0,0.0,0.0,0.0,0.0,0.0,0.0,0.0,0.0,0.0,0.0,0.0,0.0,0.0,0.0,0.0,0.0,0.0,0.0,0.0,0.0,0.0,0.0,0.0,0.0,0.0,0.0,0.0,0.0,0.0,0.0,0.0,0.0,0.0,0.0,0.0,0.0,0.0,0.0,0.0,0.0,0.0,0.0,0.0,0.0,0.0,0.0,0.0,0.0,0.0,0.0,0.0,0.0,0.0,0.0,0.0,0.0,0.0,0.0,0.0,0.0,0.0,0.0,0.0,0.0,0.0,0.0,0.0,0.0,0.0,0.0,0.0,0.0,0.0,0.0,0.0,0.0,0.0,0.0,0.0,0.0,0.0,0.0,0.0,0.0,0.0,0.0,0.0,0.0,-5.9396,-6.2382,-6.4407,-6.4407,-6.3453,-6.2805,-6.2805,-5.9869,-5.7381,0.0,0.0,0.0,0.0,0.0,0.0,0.0,0.0,0.0,0.0,0.0,0.0,0.0,0.0,0.0,0.0,0.0,0.0,0.0,0.0,0.0,0.0,0.0,0.0,0.0,0.0,0.0,0.0,0.0,0.0,0.0,0.0,0.0,0.0,0.0,0.0,0.0,0.0,0.0,0.0,0.0,0.0,0.0,0.0,0.0,0.0,0.0,0.0,0.0,0.0,0.0,0.0,0.0,0.0,0.0,0.0,0.0,0.0,0.0,0.0,0.0,0.0,0.0,0.0,0.0,0.0,0.0,0.0,0.0,0.0,0.0,0.0,0.0,0.0,0.0,0.0,0.0,0.0,0.0,0.0,0.0,0.0,0.0,0.0,0.0,0.0,0.0,0.0,0.0,0.0,0.0,0.0,0.0,0.0,0.0,0.0,0.0,0.0,0.0,0.0,0.0,0.0,0.0,-5.946,-6.2851,-6.5122,-6.4795,-6.3922,-6.3363,-6.3363,-6.1782,-5.9397,-5.6323,0.0,0.0,0.0,0.0,0.0,0.0,0.0,0.0,0.0,0.0,0.0,0.0,0.0,0.0,0.0,0.0,0.0,0.0,0.0,0.0,0.0,0.0,0.0,0.0,0.0,0.0,0.0,0.0,0.0,0.0,0.0,0.0,0.0,0.0,0.0,0.0,0.0,0.0,0.0,0.0,0.0,0.0,0.0,0.0,0.0,0.0,0.0,0.0,0.0,0.0,0.0,0.0,0.0,0.0,0.0,0.0,0.0,0.0,0.0,0.0,0.0,0.0,0.0,0.0,0.0,0.0,0.0,0.0,0.0,0.0,0.0,0.0,0.0,0.0,0.0,0.0,0.0,0.0,0.0,0.0,0.0,0.0,0.0,0.0,0.0,0.0,0.0,0.0,0.0,0.0,0.0,0.0,0.0,0.0,0.0,0.0,0.0,0.0,0.0,0.0,0.0,0.0,-6.0455,-6.3964,-6.618,-6.5575,-6.4847,-6.4271,-6.3934,-6.2778,-6.0564,-5.7041,0.0,0.0,0.0,0.0,0.0,0.0,0.0,0.0,0.0,0.0,0.0,0.0,0.0,0.0,0.0,0.0,0.0,0.0,0.0,0.0,0.0,0.0,0.0,0.0,0.0,0.0,0.0,0.0,0.0,0.0,0.0,0.0,0.0,0.0,0.0,0.0,0.0,0.0,0.0,0.0,0.0,0.0,0.0,0.0,0.0,0.0,0.0,0.0,0.0,0.0,0.0,0.0,0.0,0.0,0.0,0.0,0.0,0.0,0.0,0.0,0.0,0.0,0.0,0.0,0.0,0.0,0.0,0.0,0.0,0.0,0.0,0.0,0.0,0.0,0.0,0.0,0.0,0.0,0.0,0.0,0.0,0.0,0.0,0.0,0.0,0.0,0.0,0.0,0.0,0.0,0.0,0.0,0.0,0.0,0.0,0.0,0.0,0.0,0.0,0.0,0.0,0.0,-6.2089,-6.5417,-6.7311,-6.6586,-6.5874,-6.5162,-6.4445,-6.3188,-6.1106,-5.7898,0.0,0.0,0.0,0.0,0.0,0.0,0.0,0.0,0.0,0.0,0.0,0.0,0.0,0.0,0.0,0.0,0.0,0.0,0.0,0.0,0.0,0.0,0.0,0.0,0.0,0.0,0.0,0.0,0.0,0.0,0.0,0.0,0.0,0.0,0.0,0.0,0.0,0.0,0.0,0.0,0.0,0.0,0.0,0.0,0.0,0.0,0.0,0.0,0.0,0.0,0.0,0.0,0.0,0.0,0.0,0.0,0.0,0.0,0.0,0.0,-5.832,-5.7265,0.0,0.0,0.0,0.0,0.0,0.0,0.0,0.0,0.0,0.0,0.0,0.0,0.0,0.0,0.0,0.0,0.0,0.0,0.0,0.0,0.0,0.0,0.0,0.0,0.0,0.0,0.0,0.0,0.0,0.0,0.0,0.0,0.0,0.0,0.0,0.0,0.0,0.0,0.0,0.0,-6.3858,-6.6106,-6.7534,-6.7349,-6.5758,-6.4558,-6.4407,-6.3502,-6.1693,-5.8719,-5.6886,0.0,0.0,0.0,0.0,0.0,0.0,0.0,0.0,0.0,0.0,0.0,0.0,0.0,0.0,0.0,0.0,0.0,0.0,0.0,0.0,0.0,0.0,0.0,0.0,0.0,0.0,0.0,0.0,0.0,0.0,0.0,0.0,0.0,0.0,0.0,0.0,0.0,0.0,0.0,0.0,0.0,0.0,0.0,0.0,0.0,0.0,0.0,0.0,0.0,0.0,0.0,0.0,0.0,0.0,0.0,0.0,0.0,0.0,0.0,-6.1211,-6.0195,0.0,0.0,0.0,0.0,0.0,0.0,0.0,0.0,0.0,0.0,0.0,0.0,0.0,0.0,0.0,0.0,0.0,0.0,0.0,0.0,0.0,0.0,0.0,0.0,0.0,0.0,0.0,0.0,0.0,0.0,0.0,0.0,0.0,0.0,0.0,0.0,0.0,0.0,0.0,0.0,-6.4897,-6.6853,-6.8004,-6.8004,-6.6598,-6.5557,-6.5175,-6.4453,-6.3072,-6.0818,-5.9248,0.0,0.0,0.0,0.0,0.0,0.0,0.0,0.0,0.0,0.0,0.0,0.0,0.0,0.0,0.0,0.0,0.0,0.0,0.0,0.0,0.0,0.0,0.0,0.0,0.0,0.0,0.0,0.0,0.0,0.0,0.0,0.0,0.0,0.0,0.0,0.0,0.0,0.0,0.0,0.0,0.0,0.0,0.0,0.0,0.0,0.0,0.0,0.0,0.0,0.0,0.0,0.0,0.0,-6.4453,-6.5195,-6.5234,-6.668,-6.7344,-6.7187,-6.4297,-6.3672,-6.4648,-6.3047,0.0,0.0,0.0,0.0,0.0,0.0,0.0,0.0,0.0,0.0,0.0,0.0,0.0,0.0,0.0,0.0,0.0,0.0,0.0,0.0,0.0,0.0,-6.7128,-6.7628,-6.8436,-6.809,-6.4397,0.0,0.0,0.0,0.0,0.0,0.0,0.0,0.0,0.0,0.0,0.0,-6.5513,-6.7359,-6.8359,-6.8205,-6.7307,-6.6473,-6.582,-6.5261,-6.4356,-6.2856,-6.1624,-5.9946,0.0,0.0,0.0,0.0,0.0,0.0,0.0,0.0,0.0,0.0,0.0,0.0,0.0,0.0,0.0,0.0,0.0,0.0,0.0,0.0,0.0,0.0,0.0,0.0,0.0,0.0,0.0,0.0,0.0,0.0,0.0,0.0,-5.9935,-6.0242,0.0,0.0,0.0,0.0,0.0,0.0,0.0,0.0,0.0,0.0,0.0,0.0,0.0,-6.448,-6.6003,-6.6912,-6.7344,-6.7344,-6.8359,-6.8828,-6.8828,-6.8984,-6.9062,-6.9023,-6.8594,0.0,-6.6484,-6.5508,0.0,0.0,0.0,0.0,0.0,0.0,0.0,0.0,0.0,0.0,0.0,0.0,0.0,0.0,0.0,0.0,0.0,0.0,0.0,0.0,0.0,0.0,-7.1206,-7.0552,-7.1052,-7.1321,-7.0014,-6.6167,-6.2897,-6.2704,-6.155,-6.0473,0.0,0.0,0.0,0.0,0.0,0.0,-6.5743,-6.7359,-6.8129,-6.7359,-6.6126,-6.5307,-6.523,-6.4765,-6.4065,-6.3119,-6.2216,-6.1271,-6.0248,-5.8769,0.0,0.0,0.0,0.0,0.0,0.0,0.0,0.0,0.0,0.0,0.0,0.0,0.0,0.0,0.0,0.0,0.0,0.0,0.0,0.0,0.0,0.0,0.0,0.0,0.0,0.0,0.0,0.0,0.0,-6.0281,-6.2743,-6.2243,-6.2204,-6.155,0.0,0.0,0.0,0.0,0.0,0.0,0.0,0.0,0.0,-6.6342,-6.6468,-6.707,-6.8281,-6.8711,-6.914,-6.9609,-7.0,-7.043,-7.0898,-7.0859,-7.1133,-7.1601,-7.1601,-7.0898,-6.9648,-6.7812,-6.6328,-6.5156,0.0,0.0,0.0,0.0,-6.5004,-6.4687,-6.5855,-6.6229,-6.6026,-6.518,0.0,0.0,0.0,0.0,0.0,0.0,0.0,-6.632,-6.809,-7.036,-7.2206,-7.236,-7.3014,-7.3399,-7.2552,-6.986,-6.7167,-6.5705,-6.482,-6.3743,-6.1858,-6.1204,0.0,0.0,0.0,-6.4512,-6.632,-6.6821,-6.7013,-6.709,-6.6189,-6.5542,-6.5542,-6.5359,-6.5077,-6.4696,-6.4314,-6.377,-6.293,-6.153,-6.0089,0.0,0.0,0.0,0.0,0.0,0.0,0.0,0.0,0.0,0.0,0.0,0.0,0.0,0.0,0.0,0.0,0.0,0.0,0.0,0.0,0.0,0.0,0.0,0.0,0.0,0.0,0.0,0.0,-6.2781,-6.5089,-6.3782,-6.4397,-6.3935,0.0,0.0,0.0,0.0,0.0,0.0,-6.5951,-6.6303,-6.719,-6.8789,-6.8828,-6.9219,-7.0078,-7.0117,-7.043,-7.1015,-7.1015,-7.1484,-7.2344,-7.2109,-7.2461,-7.3281,-7.3281,-7.2812,-7.1836,-6.9961,-6.8515,-6.7578,-6.7773,-6.6953,-6.5898,-6.8047,-6.8281,-6.7687,-6.9049,-6.964,-6.9527,-6.7924,-6.741,-6.6974,-6.4474,0.0,0.0,0.0,0.0,-6.7359,-6.9475,-7.1245,-7.2706,-7.336,-7.4284,-7.4745,-7.3745,-7.2476,-7.0821,-6.8244,-6.759,-6.6551,-6.3858,-6.3358,0.0,-6.3358,-6.3897,-6.5051,-6.7167,-6.6898,-6.6667,-6.7051,-6.6551,-6.6128,-6.5897,-6.5897,-6.5897,-6.5897,-6.5897,-6.559,-6.4974,-6.4036,-6.2949,-6.1764,0.0,0.0,0.0,0.0,0.0,0.0,0.0,0.0,0.0,0.0,0.0,0.0,0.0,0.0,0.0,0.0,0.0,0.0,0.0,0.0,0.0,0.0,0.0,0.0,0.0,0.0,0.0,0.0,0.0,-6.482,-6.7398,0.0,0.0,0.0,0.0,-6.3507,-6.5148,-6.6648,-6.7695,-6.8739,-6.9687,-7.0547,-7.0586,-7.0976,-7.1875,-7.1875,-7.1875,-7.1914,-7.1914,-7.2383,-7.3203,-7.2383,-7.2461,-7.3281,-7.3281,-7.2812,-7.1992,-7.1875,-7.082,-6.9375,-7.0195,-7.0,-6.9336,-7.0234,-6.9922,-6.9214,-7.0109,-6.9709,-6.9033,-7.0478,-6.9744,-6.8321,-6.8129,-6.7513,0.0,0.0,-6.8859,-6.9706,-7.0591,-7.2129,-7.3437,-7.3514,-7.4745,-7.5476,-7.386,-7.3437,-7.2629,-7.0052,-6.8898,-6.8013,-6.7013,0.0,-6.6859,-6.6859,-6.6859,-6.7244,-6.8205,-6.8321,-6.7975,-6.7167,-6.7051,-6.6744,-6.5974,-6.5897,-6.5897,-6.5897,-6.5897,-6.5859,-6.582,-6.5782,-6.4742,-6.2671,-6.0924,0.0,0.0,0.0,0.0,0.0,0.0,0.0,0.0,0.0,0.0,0.0,0.0,0.0,0.0,0.0,0.0,0.0,0.0,0.0,0.0,0.0,0.0,0.0,0.0,0.0,0.0,0.0,0.0,-6.7167,-6.8629,0.0,-6.559,-6.5859,-6.6448,-6.6984,-6.8153,-6.9574,-7.1261,-7.1744,-7.2344,-7.3164,-7.2656,-7.2539,-7.2812,-7.2265,-7.2265,-7.2851,-7.2851,-7.3281,-7.414,-7.3828,-7.414,-7.4961,-7.4961,-7.4805,-7.4492,-7.4492,-7.3164,-7.1211,-7.2656,-7.2695,-7.1992,-7.2265,-7.2148,-7.1796,-7.1568,-7.1082,-7.0706,-7.1068,-7.0321,-6.9244,-6.9244,-6.8629,-6.8129,-6.8975,-6.9475,-6.9898,-7.0706,-7.2206,-7.3514,-7.3514,-7.4784,-7.5668,-7.4514,-7.386,-7.3245,-7.2322,-7.0591,-6.8975,-6.809,-6.7936,-6.7744,-6.7167,-6.759,-6.7859,-6.759,-6.8052,-6.7859,-6.6474,-6.6782,-6.6974,-6.6705,-6.6205,-6.6128,-6.6628,-6.6205,-6.5897,-6.5897,-6.5897,-6.5538,-6.478,-6.3053,-6.0748,0.0,0.0,0.0,0.0,0.0,0.0,0.0,0.0,0.0,0.0,0.0,0.0,0.0,0.0,0.0,0.0,0.0,0.0,0.0,0.0,0.0,0.0,0.0,0.0,0.0,-6.6667,-6.8744,-6.8436,-7.0167,-7.036,-6.7782,-6.8321,-6.9104,-6.972,-7.0576,-7.1876,-7.3632,-7.375,-7.3984,-7.457,-7.4023,-7.375,-7.375,-7.3164,-7.3164,-7.375,-7.375,-7.4219,-7.5039,-7.4726,-7.5078,-7.5937,-7.6211,-7.6015,-7.5547,-7.6406,-7.539,-7.3437,-7.4609,-7.4492,-7.375,-7.375,-7.3555,-7.3164,-7.2226,-7.177,-7.1588,-7.1287,-7.0706,-7.009,-7.009,-6.9706,-6.936,-6.9937,-7.009,-7.0244,-7.0744,-7.2206,-7.3514,-7.3514,-7.4784,-7.5745,-7.4899,-7.4284,-7.3822,-7.3553,-7.1898,-7.036,-6.9783,-6.9667,-6.9398,-6.8513,-6.8629,-6.8629,-6.8052,-6.8205,-6.7975,-6.6859,-6.7205,-6.7398,-6.7128,-6.659,-6.6397,-6.6667,-6.6205,-6.5897,-6.5897,-6.5897,-6.5897,-6.5897,-6.4782,-6.322,-6.1272,0.0,0.0,0.0,0.0,0.0,0.0,0.0,0.0,0.0,0.0,0.0,0.0,0.0,0.0,0.0,0.0,0.0,0.0,0.0,0.0,0.0,0.0,0.0,-6.4551,-6.7628,-6.9475,-6.8667,-7.2206,-7.3091,-6.9013,-7.0821,-7.208,-7.1633,-7.2422,-7.3388,-7.4609,-7.4687,-7.4687,-7.4687,-7.4648,-7.4648,-7.4687,-7.4648,-7.4648,-7.4687,-7.4648,-7.5117,-7.5898,-7.5078,-7.5156,-7.5976,-7.6875,-7.6289,-7.4922,-7.7461,-7.7539,-7.6015,-7.5976,-7.543,-7.4687,-7.4648,-7.4062,-7.3164,-7.207,-7.163,-7.1505,-7.1284,-7.1091,-7.0937,-7.0898,-7.0898,-7.0898,-7.0898,-7.0937,-7.0937,-7.0937,-7.2245,-7.3553,-7.3553,-7.4822,-7.5784,-7.4938,-7.4707,-7.4476,-7.3745,-7.286,-7.2283,-7.2245,-7.2206,-7.1898,-7.1052,-7.0244,0.0,-6.9706,-6.8975,-6.8475,-6.8398,-6.8436,-6.809,-6.7244,-6.7128,-6.6782,-6.6013,-6.5936,-6.5897,-6.5974,-6.5974,-6.5974,-6.6013,-6.6013,-6.6013,-6.5974,0.0,0.0,0.0,0.0,0.0,0.0,0.0,0.0,0.0,0.0,0.0,0.0,0.0,0.0,0.0,0.0,0.0,0.0,0.0,0.0,0.0,-6.4051,-6.5474,-6.6282,-6.936,-7.1668,-7.2052,-7.363,-7.4245,-7.3091,-7.3234,-7.3619,-7.4225,-7.459,-7.5322,-7.6444,-7.6484,-7.6484,-7.6484,-7.5859,-7.5859,-7.6484,-7.5234,-7.5234,-7.6484,-7.5859,-7.6015,-7.6875,-7.7265,-7.7226,-7.6875,-7.7773,-7.7851,-7.7461,-7.8203,-7.8555,-7.8515,-7.7305,-7.6719,-7.6406,-7.5781,-7.4609,-7.3164,-7.2226,-7.2222,-7.2444,-7.1678,-7.1695,-7.1926,-7.1129,-7.0898,-7.0898,-7.0898,-7.136,-7.1822,-7.1822,-7.3091,-7.4361,-7.4361,-7.5207,-7.5938,-7.5707,-7.5168,-7.4822,-7.5245,-7.463,-7.3822,-7.3245,-7.2629,-7.2129,-7.186,-7.1129,-7.036,-6.9783,-7.0014,-6.9744,-6.8552,-6.8975,-6.9244,-6.9013,-6.7821,-6.7282,-6.7705,-6.6551,-6.6436,-6.7667,-6.7705,-6.8013,-6.8629,-6.8667,-6.8359,0.0,0.0,0.0,0.0,0.0,0.0,0.0,0.0,0.0,0.0,0.0,0.0,0.0,0.0,0.0,0.0,0.0,0.0,0.0,0.0,0.0,0.0,-6.6628,-6.8167,-6.8629,-7.0706,-7.2629,-7.386,-7.4745,-7.5091,-7.4745,-7.4784,-7.4988,-7.526,-7.5839,-7.6614,-7.7693,-7.7734,-7.789,-7.8242,-7.7773,-7.7734,-7.8242,-7.7226,-7.7226,-7.8242,-7.7734,-7.7773,-7.8242,-7.8789,-7.8711,-7.8281,-7.918,-7.9336,-7.9023,-7.9414,-7.9609,-7.957,0.0,0.0,0.0,0.0,-7.4805,-7.3242,-7.2734,-7.2734,-7.2847,-7.1887,-7.2014,-7.2338,-7.1321,-7.1206,-7.1437,-7.1437,-7.2052,-7.2745,-7.2745,-7.3707,-7.4707,-7.4707,-7.5361,-7.6015,-7.6015,-7.5592,-7.5399,-7.5899,-7.5592,0.0,-7.463,-7.3553,-7.2629,-7.2245,-7.1475,-7.0591,-6.9821,-7.0129,-7.0014,-6.9052,-6.9706,-7.0206,-7.0206,-6.959,0.0,0.0,0.0,-6.8436,-6.9398,-6.9821,0.0,0.0,0.0,0.0,0.0,0.0,0.0,0.0,-7.2813,-7.2197,0.0,0.0,0.0,0.0,0.0,0.0,0.0,0.0,0.0,0.0,0.0,0.0,0.0,0.0,0.0,0.0,-6.9436,-7.1129,-7.1283,-7.1975,-7.3014,-7.4514,-7.5476,-7.5745,-7.5053,-7.5861,-7.6262,-7.5765,-7.6648,-7.7601,-7.8593,-7.8633,0.0,0.0,0.0,-7.9765,-7.9844,-7.9765,-7.9765,-7.9844,-7.9765,-7.9687,-7.9687,-7.9805,-7.9805,-7.9765,-8.0625,-8.0547,-7.9922,-8.0664,-8.0547,-7.9765,-7.8867,-7.8515,-7.8281,-7.6523,-7.4922,-7.3594,-7.3476,0.0,0.0,-7.2265,-7.2378,-7.2649,-7.1761,-7.1898,-7.236,-7.236,-7.2976,-7.3668,-7.3783,-7.4322,-7.4899,-7.5091,-7.5668,-7.613,-7.613,-7.613,-7.613,-7.6015,-7.6015,-7.6015,-7.6015,-7.4707,-7.336,-7.2591,-7.1745,-7.0937,-7.0206,-7.0129,-7.0129,-7.0129,-7.086,0.0,-7.1206,-7.1898,-7.1975,-7.1091,-7.1129,-7.1283,-7.1475,-7.2399,-7.3283,-7.4053,-7.6553,-7.8554,-7.9939,-8.1747,-8.228,-8.1652,-7.7108,-7.546,0.0,0.0,0.0,0.0,0.0,0.0,0.0,0.0,0.0,0.0,0.0,0.0,0.0,0.0,0.0,-6.8898,-7.0744,-7.2437,-7.3783,-7.413,-7.4361,-7.4668,-7.5476,-7.6207,-7.6746,-7.713,-7.7628,-7.8318,-7.872,-7.9079,-7.9453,-7.9453,-7.9531,-7.9687,-7.9687,-8.0039,-8.0742,-8.0039,-8.0039,-8.0742,-8.0039,0.0,-7.9726,-8.0429,-8.0351,-7.9765,-8.0625,-8.0898,-8.0742,-8.0937,-8.0898,-8.0586,-7.9101,-7.8515,-7.8281,-7.6523,-7.5703,-7.5312,-7.4609,-7.4765,-7.5156,-7.414,-7.4211,-7.4557,-7.3588,-7.3245,0.0,-7.3245,-7.386,-7.463,-7.5322,-7.563,-7.6092,-7.7438,-7.74,-7.7053,-7.7053,-7.7053,-7.6823,-7.613,-7.6015,-7.6015,-7.6015,-7.5168,-7.4399,-7.4245,-7.3514,-7.2937,-7.2783,-7.2783,-7.2783,-7.2783,-7.3476,-7.3707,-7.3053,-7.3168,-7.2899,-7.2014,-7.2629,-7.3591,-7.4976,-7.6476,-7.7361,-7.7515,-8.0054,-8.117,-8.0862,-8.3247,-8.3984,-8.3154,-8.1689,-8.0233,0.0,0.0,0.0,0.0,0.0,0.0,0.0,0.0,0.0,0.0,0.0,-6.6513,-6.6513,0.0,-7.009,-7.1398,-7.3014,-7.4399,-7.5245,-7.6053,-7.6284,-7.5438,-7.613,-7.6823,-7.7246,-7.7861,-7.8392,-7.8905,-7.9144,-7.9533,-8.0156,-8.0195,-8.0469,-8.0976,-8.1015,-8.1211,-8.164,-8.1211,-8.1211,-8.164,-8.1211,-8.1015,-8.1015,-8.1445,-8.1406,-8.1015,-8.1445,-8.164,-8.164,-8.164,-8.164,-8.1523,-8.0234,-7.9258,-7.8398,-7.7539,-7.664,-7.5859,-7.539,-7.5547,-7.5742,-7.4765,-7.4907,-7.525,-7.4215,-7.4053,-7.4322,-7.4668,-7.5361,-7.6207,-7.7015,-7.7246,-7.7438,-7.8284,-7.8169,-7.79,-7.79,-7.79,-7.763,-7.6823,-7.663,-7.6515,-7.6092,-7.563,-7.5207,-7.4784,-7.4014,-7.3514,-7.3514,-7.3514,-7.3668,-7.4053,-7.4861,-7.5361,-7.5399,-7.5784,-7.5822,-7.5361,-7.5745,-7.6361,-7.7207,-7.89,-7.9785,-7.9785,-8.2285,-8.3401,-8.3016,-8.467,-8.5286,-8.4863,-8.4509,-8.324,0.0,0.0,0.0,0.0,0.0,0.0,0.0,-6.5205,-6.5936,-6.6244,-6.8513,-7.0398,-7.0206,-7.1706,-7.3168,-7.386,-7.5399,-7.6553,-7.6707,-7.79,-7.8323,-7.713,-7.7476,-7.7861,-7.8015,-7.89,-7.9592,-7.9785,-7.9951,-8.045,-8.135,-8.1438,-8.1836,-8.2734,-8.2617,-8.2539,-8.2539,-8.2383,-8.2304,-8.2304,-8.2304,-8.2304,-8.2304,-8.2304,-8.2304,-8.2304,-8.2304,-8.2304,-8.2304,-8.2304,-8.2304,-8.2226,-8.1523,-8.0312,-7.8984,-7.8789,-7.7851,-7.664,-7.664,-7.664,-7.6523,-7.582,-7.5937,-7.616,-7.5139,-7.5234,-7.5813,-7.6207,-7.6899,-7.7707,-7.8554,-7.8631,-7.8592,-7.89,-7.8861,-7.8746,-7.8746,-7.8746,-7.8515,-7.7669,-7.74,-7.7092,-7.6361,-7.6245,-7.5976,-7.5091,-7.4553,-7.4168,-7.4014,-7.4284,-7.4668,-7.5168,-7.613,-7.7015,-7.7746,-7.8207,-7.8554,-7.8746,-7.8592,-7.8631,-7.8977,-8.0516,-8.14,-8.1593,-8.3939,-8.5132,-8.5132,-8.5786,-8.6094,-8.6094,-8.6094,-8.5093,-6.158,-6.2639,-6.4076,-6.605,-6.6551,-6.7744,0.0,-7.1706,-7.0629,-7.2206,-7.2822,-7.286,-7.2052,-7.3899,-7.5592,-7.5707,-7.713,-7.8477,-7.9285,-7.9554,-7.9862,-8.0477,-7.9939,-7.9823,-8.0592,-8.1439,-8.2285,-8.3279,-8.3341,-8.347,-8.3789,-8.4044,-8.4219,-8.4336,-8.3789,-8.3437,-8.3437,-8.2695,-8.2304,-8.2304,-8.2304,-8.2304,-8.2304,-8.2304,-8.2304,-8.2304,-8.2304,-8.2304,-8.2304,-8.2304,-8.2304,-8.2304,-8.2187,-8.1562,-8.0625,-7.9844,-7.9453,-7.9258,-7.9258,-7.9258,-7.9258,-7.914,-7.9062,-7.8828,-7.7999,-7.803,-7.8237,-7.7592,-7.7861,-7.8554,-7.9438,-7.9092,-7.89,-8.0439,-8.0208,-7.9669,-7.9669,-7.9669,-7.94,-7.8515,-7.7784,-7.7284,-7.7169,-7.713,-7.6861,-7.5976,-7.6438,-7.6592,-7.5822,-7.7015,-7.7707,-7.7092,-7.8438,-7.94,-7.9515,-7.89,-7.8823,-7.9631,-7.8938,-7.9169,-8.0746,-8.167,-8.2516,-8.3285,-8.5055,-8.5978,-8.5978,-8.6055,-8.6094,-8.6094,-8.6094,-8.5662,-6.4742,-6.6061,-6.7191,-6.9138,-7.023,-7.1514,-7.413,-7.4284,-7.4053,-7.4784,-7.5745,-7.6169,-7.5322,-7.6823,-7.8207,-7.8207,-7.9631,-8.0669,-8.0554,-8.0977,-8.1016,-8.0439,-8.09,-8.14,-8.1747,-8.2554,-8.3247,-8.3702,-8.374,-8.3785,-8.4016,-8.4142,-8.4248,-8.4376,-8.4245,-8.3945,-8.3437,-8.3164,-8.2812,-8.2304,-8.2304,-8.2304,-8.2304,-8.2304,-8.2304,-8.2304,-8.2304,-8.2304,-8.2304,-8.2304,-8.2304,-8.2304,-8.2304,-8.207,-8.164,-8.0781,-8.0156,-7.9687,-7.9687,-7.9687,-7.9687,-7.9687,-7.9648,-7.9492,-7.9023,-7.9014,-7.9151,-7.9081,-7.9208,-7.9592,-8.0362,-8.0285,-8.0323,-8.1516,-8.117,-8.0669,-8.117,-8.09,-8.0285,-7.9438,-7.8977,-7.8592,-7.8092,-7.7977,-7.7861,-7.7515,-7.7746,-7.7861,-7.7476,-7.8054,-7.8554,-7.8746,-7.9823,-8.0554,-8.0554,-8.0208,-8.0169,-8.0516,-8.0631,-8.1054,-8.1785,-8.3093,-8.3978,-8.4362,-8.5517,-8.6094,-8.6094,-8.6094,-8.6094,-8.6094,-8.6094,-8.5954,-6.6758,-6.8297,-6.9549,-7.1369,-7.3055,-7.4566,-7.5602,-7.6271,-7.6746,-7.7015,-7.763,-7.8054,-7.7707,-7.8631,-7.9592,-8.0092,-8.1362,-8.217,-8.1823,-8.2285,-8.2208,-8.0977,-8.19,-8.267,-8.267,-8.3439,-8.4055,-8.4286,-8.4286,-8.4362,-8.4516,-8.4593,-8.4686,-8.482,-8.4858,-8.4564,-8.3984,-8.3672,-8.3242,-8.2656,-8.2422,-8.2422,-8.2656,-8.2656,-8.2539,-8.2304,-8.2304,-8.2304,-8.2304,-8.2304,-8.2304,-8.2304,-8.2304,-8.2304,-8.2226,-8.1601,-8.0976,-8.0429,-8.0429,-8.0429,-8.0429,-8.0429,-8.0429,-8.0351,-7.9961,-7.9961,-8.0137,-8.0179,-8.0463,-8.0862,-8.1323,-8.1593,-8.1939,-8.2516,-8.2208,-8.1939,-8.2516,-8.2016,-8.1246,-8.0631,-8.0131,-7.9592,-7.8977,-7.8861,-7.8861,-7.8861,-7.9054,-7.9015,-7.8554,-7.8707,-7.9169,-8.0092,-8.0708,-8.1093,-8.1093,-8.1093,-8.1093,-8.1093,-8.1862,-8.2285,-8.2285,-8.3978,-8.4901,-8.4901,-8.5709,-8.6094,-8.6094,-8.6094,-8.6094,-8.6094,-8.6094,-8.6094,-6.6091,-6.785,-7.0191,-7.2347,-7.4556,-7.6654,-7.837,-7.8611,-7.8669,-7.9515,-7.8438,-7.7553,-7.8323,-7.8515,-7.9092,-8.0785,-8.1747,-8.2593,-8.3401,-8.3555,-8.3516,-8.3478,-8.3516,-8.3555,-8.3555,-8.4362,-8.517,-8.5978,-8.6017,-8.6017,-8.6017,-8.6286,-8.6434,-8.6434,-8.5812,-8.5557,-8.5703,-8.4101,-8.3398,-8.3554,-8.2695,-8.2734,-8.3554,-8.3554,-8.3086,-8.2304,-8.2304,-8.2304,-8.2304,-8.2304,-8.2304,-8.2304,-8.2304,-8.2304,-8.2304,-8.2265,-8.2226,-8.2226,-8.2226,-8.2226,-8.2226,-8.2226,-8.2226,-8.207,-8.1211,-8.1406,-8.1712,-8.0676,-8.1422,-8.2477,-8.2324,-8.2901,-8.3516,-8.3555,-8.3516,-8.3516,-8.3555,-8.2862,-8.2247,-8.2247,-8.09,-7.9785,-7.9785,-7.9746,-7.9746,-7.9746,-8.0477,-8.04,-7.8707,-7.9246,-8.0092,-8.0977,-8.1093,-8.1093,-8.1093,-8.1093,-8.1093,-8.1093,-8.1862,-8.2285,-8.2285,-8.3978,-8.4901,-8.4901,-8.5709,-8.6094,-8.6094,-8.6094,-8.6094,-8.6094,-8.6094,-8.6094,-6.751,-6.9582,-7.1913,-7.4275,-7.6841,-7.8981,-7.9553,-8.0378,-8.0785,-7.9977,-7.89,-7.8015,-7.7746,-7.813,-7.9054,-8.0823,-8.2247,-8.3478,-8.4324,-8.4478,-8.3824,-8.2131,-8.2901,-8.317,-8.2054,-8.3208,-8.4401,-8.5247,-8.5286,-8.5555,-8.6055,-8.6209,-8.6247,-8.6247,-8.6209,-8.5921,-8.5419,-8.5129,-8.4726,-8.4258,-8.3515,-8.3008,-8.2773,-8.3359,-8.3125,-8.2344,-8.289,-8.2812,-8.2304,-8.2304,-8.2304,-8.2304,-8.2304,-8.2304,-8.2304,-8.2304,-8.2304,-8.2304,-8.2304,-8.2304,-8.2304,-8.2304,-8.2304,-8.2265,-8.1953,-8.2031,-8.2108,-8.1617,-8.1813,-8.2247,-8.2446,-8.2715,-8.3176,-8.4209,-8.4016,-8.3747,-8.4324,-8.3324,-8.2285,-8.2285,-8.14,-8.0669,-8.0669,-8.0669,-8.0669,-8.0669,-8.09,-8.09,-8.0285,-8.0477,-8.0785,-8.1054,-8.1093,-8.1093,-8.1093,-8.1593,-8.19,-8.19,-8.3247,-8.4016,-8.4016,-8.5093,-8.5709,-8.5709,-8.5978,-8.6094,-8.6094,-8.6094,-8.6094,-8.6094,-8.6094,-8.6094,-6.9119,-7.0991,-7.2955,-7.5698,-7.7966,-7.9589,-8.0064,-8.0659,-8.0668,-7.9215,-7.7977,-7.6899,-7.6092,-7.6592,-7.79,-8.0246,-8.2054,-8.3555,-8.4747,-8.4901,-8.417,-8.2208,-8.2939,-8.317,-8.2093,-8.2978,-8.3939,-8.4824,-8.517,-8.5555,-8.6055,-8.6094,-8.6094,-8.6094,-8.6286,-8.6132,-8.567,-8.5621,-8.5239,-8.4609,-8.4258,-8.3789,-8.3242,-8.414,-8.4062,-8.3242,-8.3476,-8.3281,-8.2734,-8.2422,-8.2304,-8.2304,-8.2304,-8.2304,-8.2344,-8.2656,-8.2773,-8.2773,-8.2773,-8.2578,-8.2344,-8.2656,-8.2539,-8.2304,-8.2304,-8.2304,-8.2265,-8.207,-8.2455,-8.2958,-8.3128,-8.3625,-8.433,-8.5324,-8.5132,-8.4863,-8.5363,-8.4362,-8.3324,-8.3247,-8.2324,-8.1516,-8.1516,-8.1285,-8.1093,-8.1093,-8.1093,-8.1093,-8.1093,-8.1093,-8.1093,-8.1093,-8.1093,-8.1208,-8.1516,-8.2016,-8.2439,-8.2747,-8.4093,-8.4901,-8.4901,-8.567,-8.6094,-8.6094,-8.6094,-8.6094,-8.6094,-8.6401,-8.6555,-8.6555,-8.6555,-8.6555,-7.0734,-7.2018,-7.345,-7.6607,-7.7863,-7.8693,-7.9978,-7.9524,-7.8482,-7.7316,-7.5648,-7.4187,-7.3409,-7.3986,-7.5716,-7.9131,-8.1131,-8.2901,-8.4709,-8.5016,-8.4709,-8.3785,-8.3747,-8.3747,-8.3593,-8.367,-8.4055,-8.4863,-8.5632,-8.6055,-8.6094,-8.6094,-8.6094,-8.6094,-8.6094,-8.6209,-8.6478,-8.567,-8.5048,-8.4647,-8.4843,-8.4922,-8.4922,-8.5781,-8.5703,-8.4844,-8.4062,-8.3711,-8.3594,-8.2734,-8.2383,-8.2422,-8.2344,-8.2344,-8.2461,-8.3242,-8.3515,-8.3554,-8.3594,-8.3047,-8.25,-8.332,-8.3008,-8.2304,-8.2304,-8.2304,-8.2265,-8.2109,-8.3281,-8.4524,-8.435,-8.5529,-8.6762,-8.6807,-8.6807,-8.6736,-8.6544,-8.5857,-8.5137,-8.4978,-8.3516,-8.2324,-8.2285,-8.1631,-8.1093,-8.1093,-8.1093,-8.1093,-8.1093,-8.1093,-8.1093,-8.1093,-8.1093,-8.1439,-8.2247,-8.2324,-8.2747,-8.3593,-8.4478,-8.4978,-8.4978,-8.5709,-8.6094,-8.6094,-8.6094,-8.6094,-8.6094,-8.6978,-8.7401,-8.7401,-8.7401,-8.7401,-7.1688,-7.367,-7.5689,-7.7745,-7.8713,-7.9108,-7.8858,-7.8031,-7.6714,-7.4598,-7.2358,-7.0642,-7.0151,-7.1784,-7.4248,-7.7447,-8.04,-8.3131,-8.5478,-8.6363,-8.6209,-8.4747,-8.567,-8.567,-8.3785,-8.4747,-8.5324,-8.4939,-8.5093,-8.5478,-8.6055,-8.6094,-8.6094,-8.6094,-8.6094,-8.6132,-8.6209,-8.617,-8.5875,-8.5286,-8.5487,-8.5273,-8.4726,-8.5742,-8.5703,-8.4922,-8.5351,-8.5156,-8.4492,-8.3633,-8.3633,-8.4101,-8.2812,-8.2695,-8.3203,-8.2773,-8.2617,-8.2734,-8.3359,-8.3437,-8.332,-8.3515,-8.3008,-8.2304,-8.2304,-8.2304,-8.2422,-8.3008,-8.3515,-8.4101,-8.5104,-8.5735,-8.6189,-8.6671,-8.6786,-8.6786,-8.6747,-8.6053,-8.5406,-8.533,-8.3862,-8.2547,-8.2324,-8.1631,-8.1093,-8.1093,-8.1093,-8.1093,-8.1093,-8.1093,-8.1093,-8.1093,-8.1093,-8.1439,-8.2247,-8.2901,-8.3632,-8.4516,-8.5363,-8.5786,-8.5786,-8.5978,-8.6094,-8.6094,-8.6094,-8.6094,-8.6094,-8.6978,-8.7401,-8.7401,-8.7401,-8.7401,-7.345,-7.5065,-7.6497,-7.8185,-7.8293,-7.7737,-7.6877,-7.5682,-7.3959,-7.0976,-6.9242,-6.7997,-6.7081,-6.9493,-7.2635,-7.5884,-7.9422,-8.2785,-8.5709,-8.6517,-8.6478,-8.5555,-8.6247,-8.6286,-8.4824,-8.5555,-8.5901,-8.5478,-8.544,-8.5632,-8.6094,-8.6094,-8.6094,-8.6094,-8.6094,-8.6094,-8.6094,-8.5978,-8.593,-8.5948,-8.5754,-8.5673,-8.5703,-8.6328,-8.6406,-8.6054,-8.6133,-8.5937,-8.539,-8.4531,-8.4453,-8.4804,-8.3828,-8.375,-8.4101,-8.3633,-8.3672,-8.4062,-8.457,-8.4726,-8.4609,-8.3867,-8.3008,-8.2304,-8.2304,-8.2304,-8.2383,-8.289,-8.3281,-8.3867,-8.5078,-8.5703,-8.6168,-8.6917,-8.7126,-8.7087,-8.697,-8.6553,-8.6029,-8.5496,-8.452,-8.3593,-8.2978,-8.2516,-8.2054,-8.167,-8.1631,-8.1516,-8.1131,-8.1093,-8.1093,-8.1093,-8.1093,-8.1439,-8.2247,-8.3093,-8.3978,-8.4863,-8.567,-8.6094,-8.6094,-8.6094,-8.6094,-8.6094,-8.6094,-8.6094,-8.6094,-8.6978,-8.7401,-8.7401,-8.7401,-8.7401,-7.5469,-7.635,-7.679,-7.8222,-7.7194,-7.5537,-7.4545,-7.2843,-7.0534,-6.7334,-6.6515,-6.5911,-6.4519,-6.7463,-7.1201,-7.4628,-7.8525,-8.2285,-8.5632,-8.6209,-8.6247,-8.6094,-8.6286,-8.6363,-8.6132,-8.6324,-8.6401,-8.6286,-8.6286,-8.6209,-8.6094,-8.6094,-8.6094,-8.6094,-8.6094,-8.6094,-8.6094,-8.556,-8.5709,-8.644,-8.5901,-8.6111,-8.7049,-8.7107,-8.7265,-8.7461,-8.6719,-8.6367,-8.6289,-8.5429,-8.5156,-8.5234,-8.5,-8.4961,-8.5078,-8.4922,-8.539,-8.6015,-8.6015,-8.6015,-8.5781,-8.4414,-8.3359,-8.2656,-8.2656,-8.2578,-8.2539,-8.2734,-8.3281,-8.3984,-8.5,-8.582,-8.6562,-8.7304,-8.75,-8.7422,-8.7187,-8.7159,-8.6826,-8.5679,-8.5345,-8.4945,-8.3978,-8.367,-8.3324,-8.2593,-8.2477,-8.2208,-8.1516,-8.1246,-8.1093,-8.1093,-8.1208,-8.1593,-8.2401,-8.3247,-8.4132,-8.5016,-8.5709,-8.6094,-8.6094,-8.6094,-8.6094,-8.6094,-8.6094,-8.6094,-8.6094,-8.6978,-8.744,-8.7555,-8.744,-8.744,-7.679,-7.7635,-7.8222,-7.8516,-7.635,-7.3912,-7.3072,-7.0109,-6.7126,-6.5841,-6.4475,-6.3548,-6.3712,-6.6889,-7.0764,-7.4593,-7.8525,-8.2285,-8.5632,-8.6709,-8.6901,-8.6209,-8.7363,-8.7671,-8.6247,-8.7401,-8.794,-8.7209,-8.7171,-8.6863,-8.6132,-8.6094,-8.6094,-8.6094,-8.6094,-8.6094,-8.6094,-8.6017,-8.6017,-8.617,-8.6286,-8.6524,-8.688,-8.7026,-8.7265,-8.75,-8.7344,-8.7265,-8.7226,-8.6328,-8.6406,-8.6914,-8.5469,-8.5351,-8.5898,-8.5156,-8.5,-8.5117,-8.5117,-8.5117,-8.5195,-8.5625,-8.5156,-8.4453,-8.4453,-8.3945,-8.3672,-8.5117,-8.5117,-8.5039,-8.664,-8.7148,-8.7304,-8.7461,-8.75,-8.75,-8.7422,-8.7418,-8.7294,-8.6858,-8.6049,-8.533,-8.4983,-8.4209,-8.3555,-8.3401,-8.3362,-8.3324,-8.317,-8.1939,-8.1093,-8.1093,-8.1708,-8.2439,-8.3285,-8.417,-8.5016,-8.5863,-8.6017,-8.6094,-8.6094,-8.6094,-8.6094,-8.6094,-8.6094,-8.6094,-8.6094,-8.6978,-8.7786,-8.844,-8.7748,-8.7786,-7.8259,-7.8589,-7.8479,-7.8038,-7.5469,-7.2532,-7.0477,-6.7871,-6.5411,-6.3723,-6.3062,-6.2904,-6.3121,-6.5657,-6.8813,-7.2282,-7.5389,-7.8985,-8.3484,-8.4478,-8.5247,-8.6594,-8.7517,-8.7863,-8.7478,-8.8209,-8.8517,-8.8094,-8.8055,-8.7709,-8.6824,-8.6363,-8.6094,-8.6094,-8.6094,-8.6094,-8.6094,-8.6094,-8.6094,-8.6094,-8.6363,-8.6594,-8.6781,-8.7032,-8.7242,-8.75,-8.75,-8.75,-8.7461,-8.7031,-8.7109,-8.7422,-8.6562,-8.6523,-8.6758,-8.5898,-8.5859,-8.6172,-8.5742,-8.5859,-8.6328,-8.6758,-8.5976,-8.4883,-8.4883,-8.4609,-8.4453,-8.5273,-8.5234,-8.5195,-8.6484,-8.6836,-8.6953,-8.7383,-8.75,-8.75,-8.75,-8.75,-8.7422,-8.7148,-8.6667,-8.6243,-8.61,-8.5517,-8.4939,-8.4516,-8.4362,-8.4093,-8.367,-8.2901,-8.2401,-8.2401,-8.2747,-8.3131,-8.3555,-8.4401,-8.5055,-8.544,-8.5863,-8.6094,-8.6094,-8.6094,-8.6094,-8.6094,-8.6094,-8.6094,-8.6094,-8.6978,-8.7363,-8.7363,-8.7363,-8.7363,-7.9176,-7.9213,-7.8552,-7.7378,-7.4515,-7.1211,-6.8348,-6.6182,-6.4237,-6.2254,-6.2365,-6.2805,-6.2805,-6.4661,-6.7278,-7.0451,-7.3076,-7.6547,-8.183,-8.2901,-8.417,-8.7055,-8.7709,-8.8132,-8.8632,-8.9017,-8.9171,-8.8979,-8.8786,-8.8325,-8.744,-8.6555,-8.6094,-8.6094,-8.6094,-8.6094,-8.6094,-8.6094,-8.6094,-8.6094,-8.6324,-8.6538,-8.68,-8.6954,-8.7195,-8.75,-8.75,-8.75,-8.75,-8.75,-8.75,-8.75,-8.75,-8.75,-8.7422,-8.6719,-8.6914,-8.7383,-8.6719,-8.6914,-8.75,-8.75,-8.6562,-8.5469,-8.5469,-8.5312,-8.5234,-8.539,-8.5312,-8.539,-8.625,-8.6484,-8.664,-8.7344,-8.75,-8.75,-8.75,-8.75,-8.7422,-8.7226,-8.7148,-8.7035,-8.6909,-8.6665,-8.6261,-8.5593,-8.5324,-8.4901,-8.4209,-8.4132,-8.4132,-8.4132,-8.3978,-8.3862,-8.3862,-8.467,-8.517,-8.517,-8.5747,-8.6094,-8.6094,-8.6094,-8.6094,-8.6094,-8.6286,-8.6363,-8.6363,-8.7248,-8.7401,-8.694,-8.7248,-8.7132,-7.8662,-7.9176,-7.9103,-7.679,-7.323,-6.9853,-6.8091,-6.5264,-6.2989,-6.2768,-6.2768,-6.2805,-6.2805,-6.5023,-6.7918,-7.1247,-7.4736,-7.8523,-8.2862,-8.4786,-8.617,-8.7286,-8.8748,-8.9402,-8.8748,-9.0094,-9.0633,-8.9863,-8.9094,-8.8325,-8.744,-8.6555,-8.6094,-8.6094,-8.6094,-8.6094,-8.6094,-8.6094,-8.6094,-8.6094,-8.6132,-8.6373,-8.6786,-8.6825,-8.7064,-8.75,-8.75,-8.75,-8.75,-8.75,-8.75,-8.75,-8.75,-8.75,-8.75,-8.7422,-8.7422,-8.75,-8.7422,-8.7422,-8.75,-8.75,-8.7383,-8.7265,-8.7265,-8.6719,-8.625,-8.7031,-8.6679,-8.6289,-8.7148,-8.7383,-8.7383,-8.7461,-8.75,-8.75,-8.75,-8.75,-8.75,-8.7461,-8.7265,-8.7108,-8.706,-8.6753,-8.6494,-8.6422,-8.617,-8.5978,-8.5901,-8.5863,-8.5863,-8.5863,-8.5209,-8.4786,-8.4786,-8.5517,-8.5978,-8.5978,-8.6055,-8.6094,-8.6094,-8.6094,-8.6094,-8.6094,-8.6863,-8.7286,-8.7286,-8.8171,-8.8902,-8.9517,-8.8055,-8.7786,-7.8185,-7.8809,-7.8479,-7.6019,-7.2716,-6.9559,-6.743,-6.4824,-6.2805,-6.2805,-6.2805,-6.2989,-6.3503,-6.4753,-6.6537,-6.9202,-7.1093,-7.366,-7.7677,-7.9708,-8.2054,-8.5478,-8.7363,-8.8863,-9.0094,-9.0825,-9.0825,-8.9979,-8.9133,-8.8325,-8.744,-8.6555,-8.6094,-8.6094,-8.6094,-8.6094,-8.6094,-8.6094,-8.6094,-8.6094,-8.6401,-8.6632,-8.6791,-8.7066,-8.7323,-8.75,-8.75,-8.75,-8.75,-8.75,-8.75,-8.75,-8.75,-8.75,-8.75,-8.75,-8.75,-8.75,-8.75,-8.75,-8.75,-8.75,-8.75,-8.75,-8.75,-8.7265,-8.7031,-8.7383,-8.7265,-8.707,-8.7422,-8.75,-8.75,-8.75,-8.75,-8.75,-8.75,-8.75,-8.75,-8.75,-8.7422,-8.7344,-8.7344,-8.7079,-8.6816,-8.6709,-8.6478,-8.6286,-8.6132,-8.6094,-8.6094,-8.6094,-8.5824,-8.5632,-8.5632,-8.594,-8.6094,-8.6094,-8.6094,-8.6094,-8.6094,-8.6094,-8.6094,-8.6094,-8.6978,-8.7401,-8.7401,-8.8748,-8.9056,-8.8402,-8.8248,-8.7825,-7.6313,-7.7304,-7.7268,-7.4808,-7.1945,-6.9192,-6.699,-6.4604,-6.2805,-6.2805,-6.2805,-6.3062,-6.3943,-6.4753,-6.5983,-6.8141,-6.9319,-7.1363,-7.5264,-7.7323,-8.0015,-8.4401,-8.617,-8.7902,-9.0248,-9.0671,-9.0556,-8.994,-8.8902,-8.8055,-8.744,-8.6555,-8.6094,-8.6094,-8.6094,-8.6094,-8.6094,-8.6094,-8.6094,-8.6094,-8.6517,-8.6755,-8.6799,-8.7215,-8.7414,-8.75,-8.75,-8.75,-8.75,-8.75,-8.75,-8.75,-8.75,-8.75,-8.75,-8.75,-8.75,-8.75,-8.75,-8.75,-8.75,-8.75,-8.75,-8.75,-8.75,-8.75,-8.75,-8.75,-8.75,-8.75,-8.75,-8.75,-8.75,-8.75,-8.75,-8.75,-8.75,-8.75,-8.75,-8.75,-8.75,-8.75,-8.75,-8.7265,-8.7017,-8.6842,-8.6601,-8.6401,-8.6132,-8.6094,-8.6094,-8.6094,-8.6094,-8.6094,-8.6094,-8.6094,-8.6094,-8.6094,-8.6094,-8.6209,-8.6478,-8.6478,-8.6594,-8.6863,-8.7709,-8.8132,-8.8132,-8.9594,-8.9671,-8.8517,-8.8902,-8.8132,-7.2569,-7.4294,-7.5542,-7.312,-7.0697,-6.8495,-6.688,-6.4604,-6.2805,-6.2805,-6.2805,-6.3062,-6.3943,-6.5197,-6.6799,-6.9046,-7.1142,-7.393,-7.7877,-7.9939,-8.2016,-8.4593,-8.5632,-8.6786,-8.8556,-8.944,-8.9902,-8.9902,-8.8363,-8.7401,-8.7401,-8.6555,-8.6094,-8.6094,-8.6094,-8.6094,-8.6094,-8.6094,-8.6094,-8.6094,-8.6363,-8.6594,-8.68,-8.6992,-8.7252,-8.75,-8.75,-8.75,-8.75,-8.75,-8.75,-8.75,-8.75,-8.75,-8.75,-8.75,-8.75,-8.75,-8.75,-8.75,-8.75,-8.75,-8.75,-8.75,-8.75,-8.75,-8.75,-8.75,-8.75,-8.75,-8.75,-8.75,-8.75,-8.75,-8.75,-8.75,-8.75,-8.75,-8.75,-8.75,-8.75,-8.75,-8.75,-8.7265,-8.7014,-8.6841,-8.6636,-8.6401,-8.6132,-8.6094,-8.6094,-8.6094,-8.6094,-8.6094,-8.6094,-8.6094,-8.6094,-8.6094,-8.6094,-8.6478,-8.7363,-8.7401,-8.7786,-8.8671,-8.9479,-8.9863,-8.9902,-9.0748,-9.1171,-9.1133,-9.0287,-8.8979,-6.9743,-7.0991,-7.1541,-6.9669,-6.8238,-6.6843,-6.5228,-6.3796,-6.2805,-6.2805,-6.2805,-6.3246,-6.4677,-6.5557,-6.7038,-6.9939,-7.2162,-7.4132,-7.5918,-7.9018,-8.1593,-8.2978,-8.594,-8.8094,-8.8632,-8.894,-8.8825,-8.8248,-8.7709,-8.7132,-8.6555,-8.6247,-8.6094,-8.6094,-8.6094,-8.6094,-8.6094,-8.6094,-8.6094,-8.6094,-8.6517,-8.6749,-8.6817,-8.7196,-8.7407,-8.75,-8.75,-8.75,-8.75,-8.75,-8.75,-8.75,-8.75,-8.75,-8.75,-8.75,-8.75,-8.75,-8.75,-8.75,-8.75,-8.75,-8.75,-8.75,-8.75,-8.75,-8.75,-8.75,-8.75,-8.75,-8.75,-8.75,-8.75,-8.75,-8.75,-8.75,-8.75,-8.75,-8.75,-8.75,-8.75,-8.75,-8.75,-8.7422,-8.7303,-8.7045,-8.6842,-8.6594,-8.6401,-8.6209,-8.6094,-8.6094,-8.6094,-8.6094,-8.6094,-8.6094,-8.6094,-8.6094,-8.6094,-8.6478,-8.7363,-8.7401,-8.7825,-8.8671,-8.9479,-8.9902,-8.9902,-9.0787,-9.0594,-8.9479,-8.8594,-8.7594,-6.71,-6.8348,-6.8862,-6.7577,-6.6623,-6.5705,-6.4383,-6.3429,-6.2805,-6.2805,-6.2805,-6.3319,-6.5007,-6.5583,-6.6797,-6.9789,-7.1886,-7.3762,-7.5685,-7.8628,-8.1131,-8.2631,-8.5709,-8.7709,-8.7709,-8.8017,-8.7979,-8.744,-8.7094,-8.6671,-8.6132,-8.6094,-8.6094,-8.6094,-8.6094,-8.6094,-8.6094,-8.6094,-8.6094,-8.6094,-8.6555,-8.6788,-8.6833,-8.7275,-8.75,-8.75,-8.75,-8.75,0.0,-8.75,-8.75,-8.75,-8.75,-8.75,-8.75,-8.75,-8.75,-8.75,-8.75,-8.75,-8.75,-8.75,-8.75,-8.75,-8.75,-8.75,-8.75,-8.75,-8.75,-8.75,-8.75,-8.75,-8.75,-8.75,-8.75,-8.75,-8.75,-8.75,-8.75,-8.75,-8.75,-8.75,-8.75,-8.75,-8.7422,-8.7148,-8.6942,-8.6732,-8.6544,-8.6286,-8.6094,-8.6094,-8.6094,-8.6094,-8.6094,-8.6094,-8.6094,-8.6094,-8.6401,-8.6978,-8.7863,-8.8171,-8.8748,-8.9633,-9.0133,-9.0402,-9.0402,-9.0941,-9.0479,-8.9133,-8.8286,-8.7401,0.0,-6.6219,-6.7173,-6.6402,-6.5668,-6.4934,-6.4163,-6.3392,0.0,-6.2805,-6.2805,-6.3356,-6.5154,-6.5426,-6.6285,-6.9101,-7.1014,-7.3383,-7.6901,-7.8985,-8.1054,-8.3478,-8.5132,-8.6094,-8.6094,-8.6824,-8.7325,-8.7325,-8.6555,-8.6094,-8.6094,-8.6094,-8.6094,-8.6094,-8.6094,-8.6094,-8.6094,-8.6094,-8.6094,-8.6132,-8.6555,-8.6799,-8.6822,-8.7308,-8.75,-8.75,-8.75,-8.75,-8.75,-8.75,-8.75,-8.75,-8.75,-8.75,-8.75,-8.75,-8.75,-8.75,-8.75,-8.75,-8.75,-8.75,-8.75,-8.75,-8.75,-8.75,-8.75,-8.75,-8.75,-8.75,-8.75,-8.75,-8.75,-8.75,-8.75,-8.75,-8.75,-8.75,-8.75,-8.75,-8.75,-8.75,-8.75,-8.75,-8.7422,-8.7187,-8.694,-8.6749,-8.6569,-8.6286,-8.6132,-8.6094,-8.6094,-8.6094,-8.6094,-8.6094,-8.6094,-8.6094,-8.6901,-8.7786,-8.8671,-8.9479,-9.0325,-9.1171,-9.121,-9.1171,-9.1133,-9.1171,-9.071,-8.9825,-8.9094,-8.8286,-6.3282,0.0,-6.3906,-6.3723,-6.3539,-6.3356,0.0,-6.2952,-6.2805,-6.2805,-6.2805,-6.3686,-6.6586,-6.6494,-6.7337,-7.1626,-7.4002,-7.6083,-7.8213,-8.1512,-8.417,-8.5363,-8.5863,-8.6094,-8.6094,-8.6286,-8.6401,-8.6401,-8.6209,-8.6094,-8.6094,-8.6094,-8.6094,-8.6094,-8.6094,-8.6094,-8.6094,-8.6094,-8.6209,-8.6401,-8.6671,-8.6878,-8.7012,-8.736,-8.75,-8.75,-8.75,-8.75,-8.75,-8.75,-8.75,-8.75,-8.75,-8.75,-8.75,-8.75,-8.75,-8.75,-8.75,-8.75,-8.75,-8.75,-8.75,-8.75,-8.75,-8.75,-8.75,-8.75,-8.75,-8.75,-8.75,-8.75,-8.75,-8.75,-8.75,-8.75,-8.75,-8.75,-8.75,-8.75,-8.75,-8.75,-8.75,-8.75,-8.7461,-8.7422,-8.7182,-8.6958,-8.6748,-8.6517,-8.6324,-8.6132,-8.6094,-8.6094,-8.6094,-8.6094,-8.6094,-8.6094,-8.6901,-8.7786,-8.8671,-8.9479,-9.0325,-9.1171,-9.121,-9.0864,-9.021,-9.0864,-9.0441,-8.8979,-8.944,-8.8825,-6.2805,-6.3649,-6.4494,-6.4494,-6.4494,-6.4494,-6.4494,-6.3613,-6.2805,-6.2805,-6.3309,-6.4435,-6.6581,-6.7626,-6.9203,-7.2466,-7.5547,-7.8557,-8.1262,-8.3845,-8.5632,-8.6055,-8.6094,-8.6094,-8.6094,-8.6094,-8.6094,-8.6094,-8.6094,-8.6094,-8.6094,-8.6094,-8.6094,-8.6094,-8.6094,-8.6094,-8.6094,-8.6094,-8.617,-8.6324,-8.6644,-8.6881,-8.6984,-8.7347,-8.75,-8.75,-8.75,-8.75,-8.75,-8.75,-8.75,-8.75,-8.75,-8.75,-8.75,-8.75,-8.75,-8.75,-8.75,-8.75,-8.75,-8.75,-8.75,-8.75,-8.75,-8.75,-8.75,-8.75,-8.75,-8.75,-8.75,-8.75,-8.75,-8.75,-8.75,-8.75,-8.75,-8.75,-8.75,-8.75,-8.75,-8.75,-8.75,-8.75,-8.75,-8.75,-8.7265,-8.7049,-8.6933,-8.666,-8.644,-8.6286,-8.617,-8.6094,-8.6094,-8.6094,-8.6094,-8.6094,-8.6901,-8.7786,-8.8671,-8.9479,-9.0325,-9.1171,-9.121,-9.0787,-8.9902,-9.0364,-8.994,-8.8709,-8.9133,-8.8863,-6.3135,-6.5081,-6.688,-6.6109,-6.6219,-6.6402,-6.6035,-6.4485,-6.3101,-6.3101,-6.4216,-6.5596,-6.6904,-6.9223,-7.1483,-7.3263,-7.6878,-8.0764,-8.4407,-8.5593,-8.6094,-8.6094,-8.6094,-8.6094,-8.6094,-8.6094,-8.6094,-8.6094,-8.6094,-8.6094,-8.6094,-8.6094,-8.6094,-8.6094,-8.6094,-8.6094,-8.6094,-8.6094,-8.6132,-8.6209,-8.6592,-8.6822,-8.6922,-8.7323,-8.75,-8.75,-8.75,-8.75,-8.75,-8.75,-8.75,-8.75,-8.75,-8.75,-8.75,-8.75,-8.75,-8.75,-8.75,-8.75,-8.75,-8.75,-8.75,-8.75,-8.75,-8.75,-8.75,-8.75,-8.75,-8.75,-8.75,-8.75,-8.75,-8.75,-8.75,-8.75,-8.75,-8.75,-8.75,-8.75,-8.75,-8.75,-8.75,-8.75,-8.75,-8.75,-8.7304,-8.7148,-8.7109,-8.6804,-8.6524,-8.6511,-8.6247,-8.6094,-8.6094,-8.6094,-8.6094,-8.6094,-8.6901,-8.7863,-8.8825,-8.944,-9.0171,-9.1171,-9.1056,-9.0594,-8.971,-8.9979,-8.9633,-8.8709,-8.894,-8.9017,-6.453,-6.7173,-6.8568,-6.442,-6.4971,-6.5962,-6.387,-6.3981,-6.4584,-6.4584,-6.5661,-6.7686,-7.1304,-7.2167,-7.3606,-7.7341,-8.011,-8.2529,-8.4632,-8.5593,-8.6094,-8.6094,-8.6094,-8.6094,-8.6094,-8.6094,-8.6094,-8.6094,-8.6094,-8.6094,-8.6094,-8.6094,-8.6094,-8.6094,-8.6094,-8.6094,-8.6094,-8.6094,-8.6286,-8.6671,-8.6794,-8.7019,-8.7375,-8.746,-8.75,-8.75,-8.75,-8.75,-8.75,-8.75,-8.75,-8.75,-8.75,-8.75,-8.75,-8.75,-8.75,-8.75,-8.75,-8.75,-8.75,-8.75,-8.75,-8.75,-8.75,-8.75,-8.75,-8.75,-8.75,-8.75,-8.75,-8.75,-8.75,-8.75,-8.75,-8.75,-8.75,-8.75,-8.75,-8.75,-8.75,-8.75,-8.75,-8.75,-8.75,-8.75,-8.7461,-8.7344,-8.7148,-8.6919,-8.6677,-8.6538,-8.6247,-8.6094,-8.6094,-8.6094,-8.6094,-8.6094,-8.6901,-8.8094,-8.9671,-8.9171,-8.9594,-9.1171,-9.0479,-8.971,-8.8902,-9.0325,-9.021,-8.8709,-9.0171,-9.0441,-6.3759,-6.6329,-6.8235,-6.589,-6.7856,-7.0037,-6.88,-6.8034,-6.7651,-6.7964,-6.8753,-7.0077,-7.2396,-7.4472,-7.7226,-8.1448,-8.3,-8.4132,-8.5363,-8.5863,-8.6094,-8.6094,-8.6094,-8.6094,-8.6094,-8.6094,-8.6094,-8.6094,-8.6094,-8.6094,-8.6094,-8.6094,-8.6094,-8.6094,-8.6094,-8.6094,-8.6094,-8.6094,-8.6209,-8.6401,-8.6699,-8.6923,-8.7135,-8.7372,-8.75,-8.75,-8.75,-8.75,-8.75,-8.75,-8.75,-8.75,-8.75,-8.75,-8.75,-8.75,-8.75,-8.75,-8.75,-8.75,-8.75,-8.75,-8.75,-8.75,-8.75,-8.75,-8.75,-8.75,-8.75,-8.75,-8.75,-8.75,-8.75,-8.75,-8.75,-8.75,-8.75,-8.75,-8.75,-8.75,-8.75,-8.75,-8.75,-8.75,-8.75,-8.75,-8.75,-8.7461,-8.7344,-8.7123,-8.6909,-8.6678,-8.644,-8.6247,-8.6094,-8.6094,-8.6094,-8.6094,-8.6901,-8.7748,-8.8517,-8.8632,-8.9056,-8.9825,-8.944,-8.8825,-8.7979,-8.8786,-8.8979,-8.8709,-8.9479,-8.9863,-6.3282,-6.5485,-6.7663,-6.7529,-6.9999,-7.2613,-7.3205,-7.1695,-7.053,-7.1821,-7.2427,-7.3084,-7.4155,-7.7291,-8.0746,-8.4055,-8.4939,-8.5401,-8.6017,-8.6094,-8.6094,-8.6094,-8.6094,-8.6094,-8.6094,-8.6094,-8.6094,-8.6094,-8.6094,-8.6094,-8.6094,-8.6094,-8.6094,-8.6094,-8.6094,-8.6094,-8.6094,-8.6094,-8.6132,-8.6209,-8.6582,-8.6765,-8.6884,-8.7249,-8.7422,-8.75,-8.75,-8.75,-8.75,-8.75,-8.75,-8.75,-8.75,-8.75,-8.75,-8.75,-8.75,-8.75,-8.75,-8.75,-8.75,-8.75,-8.75,-8.75,-8.75,-8.75,-8.75,-8.75,-8.75,-8.75,-8.75,-8.75,-8.75,-8.75,-8.75,-8.75,-8.75,-8.75,-8.75,-8.75,-8.75,-8.75,-8.75,-8.75,-8.75,-8.75,-8.75,-8.75,-8.75,-8.7265,-8.7018,-8.6902,-8.6632,-8.6401,-8.6132,-8.6094,-8.6209,-8.6401,-8.6824,-8.7171,-8.7401,-8.7825,-8.8286,-8.8671,-8.8709,-8.8248,-8.7401,-8.7786,-8.8132,-8.8402,-8.8786,-8.9325,-6.4714,-6.6366,-6.7741,-6.772,-6.8245,-6.9575,-7.2515,-7.2206,-7.223,-7.543,-7.6503,-7.737,-7.8985,-8.1477,-8.3324,-8.3632,-8.5016,-8.6017,-8.6094,-8.6094,-8.6094,-8.6094,-8.6094,-8.6094,-8.6094,-8.6094,-8.6094,-8.6094,-8.6094,-8.6094,-8.6094,-8.6094,-8.6094,-8.6094,-8.6094,-8.6094,-8.6094,-8.6094,-8.6209,-8.6478,-8.6505,-8.6726,-8.7068,-8.7109,-8.7265,-8.75,-8.75,-8.75,-8.75,-8.75,-8.75,-8.75,-8.75,-8.75,-8.75,-8.75,-8.75,-8.75,-8.75,-8.75,-8.75,-8.75,-8.75,-8.75,-8.75,-8.75,-8.75,-8.75,-8.75,-8.75,-8.75,-8.75,-8.75,-8.75,-8.75,-8.75,-8.75,-8.75,-8.75,-8.75,-8.75,-8.75,-8.75,-8.75,-8.75,-8.75,-8.75,-8.75,-8.75,-8.7265,-8.7096,-8.7056,-8.6709,-8.6401,-8.6132,-8.6094,-8.644,-8.7248,-8.6594,-8.6555,-8.7363,-8.6671,-8.7055,-8.8671,-8.8709,-8.8248,-8.7401,-8.8979,-8.894,-8.7517,-8.9094,-8.9863,-6.3576,-6.5668,-6.7757,-6.8161,-6.936,-7.1206,-7.4039,-7.4979,-7.6191,-7.945,-7.9422,-7.9054,-7.9669,-8.1862,-8.3593,-8.3593,-8.5016,-8.6094,-8.6094,-8.6094,-8.6094,-8.6094,-8.6094,-8.6094,-8.6094,-8.6094,-8.6094,-8.6094,-8.6094,-8.6094,-8.6094,-8.6094,-8.6094,-8.6094,-8.6094,-8.6094,-8.6094,-8.6094,-8.617,-8.6247,-8.6401,-8.6665,-8.6923,-8.7023,-8.7265,-8.75,-8.75,-8.75,-8.75,-8.75,-8.75,-8.75,-8.75,-8.75,-8.75,-8.75,-8.75,-8.75,-8.75,-8.75,-8.75,-8.75,-8.75,-8.75,-8.75,-8.75,-8.75,-8.75,-8.75,-8.75,-8.75,-8.75,-8.75,-8.75,-8.75,-8.75,-8.75,-8.75,-8.75,-8.75,-8.75,-8.75,-8.75,-8.75,-8.75,-8.75,-8.75,-8.75,-8.75,-8.7422,-8.7291,-8.7103,-8.6751,-8.644,-8.6363,-8.6209,-8.6478,-8.7325,-8.7094,-8.7286,-8.8171,-8.7363,-8.7209,-8.7863,-8.7363,-8.6901,-8.6594,-8.7248,-8.7478,-8.744,-8.8594,-8.9133,-6.3539,-6.5595,-6.7899,-6.8762,-7.0548,-7.2944,-7.5956,-7.7303,-7.8965,-8.2721,-8.1939,-8.0516,-8.0246,-8.1823,-8.317,-8.317,-8.4824,-8.6094,-8.6094,-8.6094,-8.6094,-8.6094,-8.6094,-8.6094,-8.6094,-8.6094,-8.6094,-8.6094,-8.6094,-8.6094,-8.6094,-8.6094,-8.6094,-8.6094,-8.6094,-8.6094,-8.6094,-8.6094,-8.6094,-8.6094,-8.6286,-8.6478,-8.6698,-8.6841,-8.7084,-8.7383,-8.7383,-8.7422,-8.75,-8.75,-8.75,-8.75,-8.75,-8.75,-8.75,-8.75,-8.75,-8.75,-8.75,-8.75,-8.75,-8.75,-8.75,-8.75,-8.75,-8.75,-8.75,-8.75,-8.75,-8.75,-8.75,-8.75,-8.75,-8.75,-8.75,-8.75,-8.75,-8.75,-8.75,-8.75,-8.75,-8.75,-8.75,-8.75,-8.75,-8.75,-8.75,-8.75,-8.75,-8.75,-8.7383,-8.7148,-8.6845,-8.6623,-8.6505,-8.6324,-8.6671,-8.7748,-8.7825,-8.8055,-8.8671,-8.7863,-8.7401,-8.7401,-8.6824,-8.6363,-8.6094,-8.6363,-8.6671,-8.7017,-8.8171,-8.8709,-6.5081,-6.6476,-6.8047,-6.9432,-7.1501,-7.4169,-7.8104,-7.876,-7.9977,-8.5055,-8.4093,-8.2093,-8.1246,-8.1785,-8.2324,-8.2324,-8.4439,-8.6094,-8.6094,-8.6094,-8.6094,-8.6094,-8.6094,-8.6094,-8.6094,-8.6094,-8.6094,-8.6094,-8.6094,-8.6094,-8.6094,-8.6094,-8.6094,-8.6094,-8.6094,-8.6094,-8.6094,-8.6094,-8.6094,-8.6094,-8.6094,-8.6247,-8.6511,-8.6507,-8.6714,-8.7109,-8.7109,-8.7265,-8.75,-8.75,-8.75,-8.75,-8.75,-8.75,-8.75,-8.75,-8.75,-8.75,-8.75,-8.75,-8.75,-8.75,-8.75,-8.75,-8.75,-8.75,-8.75,-8.75,-8.75,-8.75,-8.75,-8.75,-8.75,-8.75,-8.75,-8.75,-8.75,-8.75,-8.75,-8.75,-8.75,-8.75,-8.75,-8.75,-8.75,-8.75,-8.75,-8.75,-8.75,-8.75,-8.7383,-8.7148,-8.7109,-8.6931,-8.6524,-8.6478,-8.7132,-8.8594,-8.8671,-8.8709,-8.8709,-8.7902,-8.7401,-8.7401,-8.7401,-8.6978,-8.6094,-8.6978,-8.694,-8.6132,-8.7902,-8.8709,-6.3796,-6.5841,-6.8346,-6.8819,-7.2628,-7.6731,-7.8561,-8.014,-8.1939,-8.4709,-8.467,-8.367,-8.2208,-8.3131,-8.3939,-8.3324,-8.4824,-8.6094,-8.6094,-8.6094,-8.6094,-8.6094,-8.6094,-8.6094,-8.6094,-8.6094,-8.6094,-8.6094,-8.6094,-8.6094,-8.6094,-8.6094,-8.6094,-8.6094,-8.6094,-8.6094,-8.6094,-8.6094,-8.6094,-8.6094,-8.6094,-8.6247,-8.6478,-8.6516,-8.6633,-8.6893,-8.7056,-8.7148,-8.7226,-8.7422,-8.75,-8.75,-8.75,-8.75,-8.75,-8.75,-8.75,-8.75,-8.75,-8.75,-8.75,-8.75,-8.75,-8.75,-8.75,-8.75,-8.75,-8.75,-8.75,-8.75,-8.75,-8.75,-8.75,-8.75,-8.75,-8.75,-8.75,-8.75,-8.75,-8.75,-8.75,-8.75,-8.75,-8.75,-8.75,-8.75,-8.75,-8.75,-8.75,-8.75,-8.7461,-8.7383,-8.7226,-8.699,-8.6728,-8.6588,-8.7132,-8.8594,-8.8132,-8.8594,-9.0364,-8.9633,-8.8902,-8.8325,-8.8286,-8.7594,-8.6094,-8.6978,-8.694,-8.6132,-8.7902,-8.8709,-6.6648,-6.8539,-7.0766,-7.2736,-7.5924,-7.9094,-8.092,-8.2122,-8.3093,-8.417,-8.4093,-8.367,-8.2939,-8.367,-8.4324,-8.4132,-8.5247,-8.6094,-8.6094,-8.6094,-8.6094,-8.6094,-8.6094,-8.6094,-8.6094,-8.6094,-8.6094,-8.6094,-8.6094,-8.6094,-8.6094,-8.6094,-8.6094,-8.6094,-8.6094,-8.6094,-8.6094,-8.6094,-8.6094,-8.6094,-8.6094,-8.617,-8.6324,-8.6324,-8.6478,-8.6692,-8.6894,-8.6978,-8.6984,-8.7223,-8.7344,-8.7344,-8.7461,-8.75,-8.75,-8.75,-8.75,-8.75,-8.75,-8.75,-8.75,-8.75,-8.75,-8.75,-8.75,-8.75,-8.75,-8.75,-8.75,-8.75,-8.75,-8.75,-8.75,-8.75,-8.75,-8.75,-8.75,-8.75,-8.75,-8.75,-8.75,-8.75,-8.75,-8.75,-8.75,-8.75,-8.75,-8.75,-8.75,-8.75,-8.75,-8.75,-8.7344,-8.7177,-8.6922,-8.68,-8.7204,-8.8243,-8.7786,-8.8325,-9.0133,-8.9363,-8.8671,-8.8171,-8.7825,-8.7132,-8.6094,-8.6632,-8.6594,-8.6132,-8.7517,-8.8363,-7.1412,-7.2826,-7.4207,-7.8828,-8.0201,-8.1152,-8.4143,-8.4055,-8.3401,-8.3555,-8.2978,-8.267,-8.3439,-8.3593,-8.3901,-8.4747,-8.5517,-8.6017,-8.6094,-8.6094,-8.6094,-8.6094,-8.6094,-8.6094,-8.6094,-8.6094,-8.6094,-8.6094,-8.6094,-8.6094,-8.6094,-8.6094,-8.6094,-8.6094,-8.6094,-8.6094,-8.6094,-8.6094,-8.6094,-8.6094,-8.6094,-8.6094,-8.6094,-8.6094,-8.6247,-8.6505,-8.6699,-8.6786,-8.6822,-8.701,-8.7063,-8.7107,-8.7343,-8.7461,-8.7461,-8.75,-8.75,-8.75,-8.75,-8.75,-8.75,-8.75,-8.75,-8.75,-8.75,-8.75,-8.75,-8.75,-8.75,-8.75,-8.75,-8.75,-8.75,-8.75,-8.75,-8.75,-8.75,-8.75,-8.75,-8.75,-8.75,-8.75,-8.75,-8.75,-8.75,-8.75,-8.75,-8.75,-8.75,-8.75,-8.75,-8.75,-8.75,-8.7383,-8.7109,-8.7078,-8.728,-8.7687,-8.7627,-8.7902,-8.8556,-8.7902,-8.7478,-8.7401,-8.6709,-8.6247,-8.6094,-8.617,-8.617,-8.6132,-8.6978,-8.7825,-6.8346,-7.1171,-7.4521,-7.7568,-8.011,-8.2227,-8.3593,-8.2708,-8.2016,-8.3324,-8.3439,-8.3362,-8.3555,-8.3593,-8.3901,-8.4747,-8.5055,-8.5401,-8.6017,-8.6094,-8.6094,-8.6094,-8.6094,-8.6094,-8.6094,-8.6094,-8.6094,-8.6094,-8.6094,-8.6094,-8.6094,-8.6094,-8.6094,-8.6094,-8.6094,-8.6094,-8.6094,-8.6094,-8.6094,-8.6094,-8.6094,-8.6094,-8.6094,-8.6094,-8.6247,-8.6511,-8.6555,-8.6645,-8.68,-8.6854,-8.6863,-8.6896,-8.7096,-8.7187,-8.7226,-8.7422,-8.75,-8.75,-8.75,-8.75,-8.75,-8.75,-8.75,-8.75,-8.75,-8.75,-8.75,-8.75,-8.75,-8.75,-8.75,-8.75,-8.75,-8.75,-8.75,-8.75,-8.75,-8.75,-8.75,-8.75,-8.75,-8.75,-8.75,-8.75,-8.75,-8.75,-8.75,-8.75,-8.75,-8.75,-8.75,-8.75,-8.75,-8.7383,-8.7109,-8.7084,-8.7286,-8.7701,-8.7117,-8.7017,-8.7632,-8.8171,-8.8094,-8.7401,-8.7902,-8.7478,-8.6094,-8.6786,-8.6786,-8.6132,-8.6978,-8.7517,-7.0157,-7.257,-7.5239,-7.8995,-8.1157,-8.2401,-8.2862,-8.2016,-8.1246,-8.1708,-8.2401,-8.2978,-8.2978,-8.3324,-8.3747,-8.4209,-8.4632,-8.5055,-8.5478,-8.5863,-8.6094,-8.6094,-8.6094,-8.6094,-8.6094,-8.6094,-8.6094,-8.6094,-8.6094,-8.6094,-8.6094,-8.6094,-8.6094,-8.6094,-8.6094,-8.6094,-8.6094,-8.6094,-8.6094,-8.6094,-8.6094,-8.6094,-8.6094,-8.6094,-8.617,-8.6324,-8.6324,-8.6363,-8.6478,-8.6594,-8.6654,-8.6684,-8.698,-8.7078,-8.7148,-8.7383,-8.75,-8.75,-8.75,-8.75,-8.75,-8.75,-8.75,-8.75,-8.75,-8.75,-8.75,-8.75,-8.75,-8.75,-8.75,-8.75,-8.75,-8.75,-8.75,-8.75,-8.75,-8.75,-8.75,-8.75,-8.75,-8.75,-8.75,-8.75,-8.75,-8.75,-8.75,-8.75,-8.75,-8.75,-8.75,-8.75,-8.75,-8.7422,-8.7304,-8.7304,-8.733,-8.7398,-8.6945,-8.6748,-8.694,-8.7286,-8.7248,-8.6786,-8.7209,-8.7017,-8.6094,-8.6555,-8.6555,-8.6094,-8.6555,-8.7017,-7.1995,-7.4187,-7.6284,-8.1093,-8.2285,-8.2247,-8.2131,-8.1593,-8.0823,-7.9785,-8.0939,-8.2054,-8.19,-8.2593,-8.3208,-8.3362,-8.4093,-8.467,-8.467,-8.5401,-8.5901,-8.5901,-8.5901,-8.594,-8.6094,-8.6094,-8.6094,-8.6094,-8.6094,-8.6094,-8.6094,-8.6094,-8.6094,-8.6094,-8.6094,-8.6094,-8.6094,-8.6094,-8.6094,-8.6094,-8.6094,-8.6094,-8.6094,-8.6094,-8.6094,-8.6094,-8.6094,-8.6094,-8.6132,-8.6324,-8.644,-8.6478,-8.6858,-8.6998,-8.7014,-8.7294,-8.7418,-8.7422,-8.7422,-8.7461,-8.75,-8.75,-8.7383,-8.7265,-8.7265,-8.7187,-8.707,-8.7226,-8.7265,-8.7304,-8.7461,-8.75,-8.75,-8.75,-8.75,-8.75,-8.75,-8.75,-8.75,-8.75,-8.75,-8.75,-8.75,-8.75,-8.75,-8.75,-8.75,-8.75,-8.75,-8.75,-8.75,-8.75,-8.75,-8.75,-8.75,-8.75,-8.7383,-8.7109,-8.6938,-8.6752,-8.6511,-8.6286,-8.617,-8.6094,-8.6094,-8.6094,-8.6094,-8.6094,-8.6094,-8.6094,-8.6094,-8.6478,-6.714,-7.2126,-7.7823,-8.14,-8.2285,-8.2131,-8.14,-8.117,-8.0631,-7.9015,-8.0054,-8.1016,-8.0285,-8.0862,-8.167,-8.2362,-8.3208,-8.3747,-8.3747,-8.4516,-8.5055,-8.5055,-8.5055,-8.5324,-8.6017,-8.6094,-8.6094,-8.6094,-8.6094,-8.6094,-8.6094,-8.6094,-8.6094,-8.6094,-8.6094,-8.6094,-8.6094,-8.6094,-8.6094,-8.6094,-8.6094,-8.6094,-8.6094,-8.6094,-8.6094,-8.6094,-8.6094,-8.6094,-8.6094,-8.6132,-8.617,-8.617,-8.6478,-8.6594,-8.6612,-8.681,-8.6987,-8.7148,-8.7148,-8.7304,-8.75,-8.75,-8.6992,-8.6367,-8.6367,-8.5859,-8.539,-8.6172,-8.6367,-8.6562,-8.7304,-8.75,-8.75,-8.75,-8.75,-8.75,-8.75,-8.75,-8.75,-8.75,-8.75,-8.75,-8.75,-8.75,-8.75,-8.75,-8.75,-8.75,-8.75,-8.75,-8.75,-8.75,-8.75,-8.75,-8.75,-8.75,-8.7383,-8.7109,-8.706,-8.6897,-8.6505,-8.6478,-8.6324,-8.6094,-8.6094,-8.6094,-8.6094,-8.6094,-8.6094,-8.6094,-8.6094,-8.617,-6.8062,-7.2323,-7.6553,-7.9438,-8.0169,-8.0092,-7.9708,-7.9631,-7.9285,-7.8092,-7.8784,-7.9669,-7.9785,-8.0131,-8.0669,-8.1477,-8.2324,-8.2862,-8.2862,-8.3632,-8.417,-8.417,-8.417,-8.4516,-8.5363,-8.544,-8.5632,-8.6055,-8.6094,-8.6094,-8.6094,-8.6094,-8.6094,-8.6094,-8.6094,-8.6094,-8.6094,-8.6094,-8.6094,-8.6094,-8.6094,-8.6094,-8.6094,-8.6094,-8.6094,-8.6094,-8.6094,-8.6094,-8.6094,-8.6094,-8.6094,-8.6132,-8.6401,-8.6485,-8.65,-8.6726,-8.6909,-8.705,-8.6542,-8.6562,-8.6679,-8.6211,-8.5781,-8.5469,-8.5469,-8.5195,-8.4961,-8.5351,-8.582,-8.6289,-8.6679,-8.6758,-8.6758,-8.6758,-8.6406,-8.6172,-8.6679,-8.7148,-8.75,-8.75,-8.75,-8.75,-8.75,-8.75,-8.75,-8.75,-8.75,-8.75,-8.75,-8.75,-8.75,-8.75,-8.75,-8.75,-8.75,-8.75,-8.7461,-8.7344,-8.7187,-8.6971,-8.6693,-8.6538,-8.6363,-8.6094,-8.6094,-8.6094,-8.6094,-8.6094,-8.6094,-8.6094,-8.6094,-8.6094,-6.859,-7.1321,-7.3476,-7.6476,-7.7553,-7.7861,-7.7861,-7.8169,-7.8207,-7.7169,-7.763,-7.84,-7.9054,-7.9323,-7.9746,-8.0631,-8.1477,-8.2016,-8.2016,-8.2708,-8.3247,-8.3247,-8.3247,-8.3593,-8.4478,-8.4786,-8.517,-8.5747,-8.5786,-8.5786,-8.5786,-8.5786,-8.5786,-8.5786,-8.5978,-8.6017,-8.5786,-8.5593,-8.5593,-8.5786,-8.5555,-8.5478,-8.5478,-8.5478,-8.5593,-8.5824,-8.6017,-8.6094,-8.6094,-8.6094,-8.6094,-8.6094,-8.6094,-8.6094,-8.6094,-8.6247,-8.6478,-8.6585,-8.5944,-8.593,-8.6054,-8.5195,-8.4765,-8.457,-8.457,-8.4414,-8.4297,-8.4492,-8.5039,-8.5625,-8.6094,-8.6054,-8.5937,-8.6133,-8.5547,-8.5156,-8.6015,-8.6719,-8.7187,-8.7187,-8.6992,-8.6914,-8.7148,-8.7187,-8.7226,-8.7461,-8.75,-8.75,-8.75,-8.75,-8.75,-8.75,-8.75,-8.75,-8.75,-8.75,-8.75,-8.75,-8.7304,-8.7092,-8.6896,-8.6662,-8.644,-8.6209,-8.6132,-8.6094,-8.6094,-8.6094,-8.6094,-8.6094,-8.6094,-8.6094,-6.6128,-6.7398,-6.8513,-7.2706,-7.4938,-7.613,-7.613,-7.7361,-7.8054,-7.6399,-7.6746,-7.7361,-7.74,-7.8054,-7.8861,-7.9746,-8.0592,-8.117,-8.117,-8.1862,-8.2362,-8.2362,-8.2362,-8.2708,-8.3555,-8.4439,-8.4939,-8.4978,-8.4978,-8.4978,-8.4978,-8.4978,-8.4978,-8.4978,-8.5709,-8.5747,-8.4978,-8.4132,-8.4132,-8.4939,-8.4132,-8.3708,-8.3708,-8.3708,-8.417,-8.5016,-8.5786,-8.6094,-8.6094,-8.6094,-8.6094,-8.6017,-8.5286,-8.4978,-8.4978,-8.4978,-8.5247,-8.5575,-8.5544,-8.5799,-8.6054,-8.5195,-8.4336,-8.3672,-8.3672,-8.3086,-8.2617,-8.3437,-8.3711,-8.4101,-8.5781,-8.5586,-8.5195,-8.6015,-8.5547,-8.5156,-8.6015,-8.625,-8.6289,-8.6289,-8.5586,-8.5312,-8.6133,-8.6289,-8.6562,-8.7383,-8.75,-8.75,-8.75,-8.75,-8.75,-8.75,-8.75,-8.75,-8.75,-8.75,-8.75,-8.75,-8.75,-8.7343,-8.7108,-8.6899,-8.6671,-8.6478,-8.6247,-8.6094,-8.6094,-8.6094,-8.6094,-8.6094,-8.6094,-8.6094,-6.4782,-6.6282,-6.7744,-7.0398,-7.2322,-7.3553,-7.3553,-7.4861,-7.5899,-7.5284,-7.5861,-7.6476,-7.6476,-7.7169,-7.7977,-7.8823,-7.9708,-8.0285,-8.0285,-8.1016,-8.1516,-8.1516,-8.1516,-8.1862,-8.267,-8.3555,-8.4055,-8.4055,-8.4593,-8.4901,-8.4901,-8.4901,-8.5132,-8.567,-8.594,-8.5978,-8.567,-8.4863,-8.4593,-8.4901,-8.4016,-8.3593,-8.3593,-8.3593,-8.4093,-8.4939,-8.5209,-8.5632,-8.6055,-8.5555,-8.5324,-8.5247,-8.4401,-8.4055,-8.4055,-8.4055,-8.4247,-8.4419,-8.4008,-8.4074,-8.4219,-8.3476,-8.3008,-8.2773,-8.2773,-8.2539,-8.2383,-8.2695,-8.3164,-8.3867,-8.5078,-8.4726,-8.3984,-8.375,-8.3906,-8.414,-8.4453,-8.539,-8.6015,-8.5469,-8.5586,-8.582,-8.6133,-8.6211,-8.6328,-8.6601,-8.7148,-8.7304,-8.6758,-8.7148,-8.75,-8.75,-8.75,-8.75,-8.75,-8.75,-8.75,-8.75,-8.75,-8.7383,-8.7109,-8.6894,-8.6701,-8.6511,-8.6247,-8.6094,-8.6094,-8.6094,-8.6094,-8.6094,-8.6094,-8.6094,-6.2935,-6.4359,-6.5974,-6.8244,-6.9667,-7.0783,-7.1937,-7.3283,-7.4361,-7.463,-7.5399,-7.6015,-7.6015,-7.6476,-7.7207,-7.8323,-7.8977,-7.9554,-8.0169,-8.0746,-8.1093,-8.1093,-8.1093,-8.1323,-8.1862,-8.267,-8.317,-8.317,-8.3708,-8.4016,-8.4016,-8.4016,-8.4401,-8.5247,-8.5555,-8.5555,-8.5247,-8.4439,-8.4016,-8.4016,-8.317,-8.2747,-8.2747,-8.2747,-8.3362,-8.4478,-8.4478,-8.5093,-8.6055,-8.5517,-8.5286,-8.5209,-8.4055,-8.3593,-8.3555,-8.3247,-8.3324,-8.3457,-8.3009,-8.3052,-8.3164,-8.2422,-8.2226,-8.2304,-8.2304,-8.2304,-8.2304,-8.2304,-8.2734,-8.3359,-8.4258,-8.4258,-8.375,-8.2578,-8.2969,-8.3515,-8.3242,-8.4297,-8.5156,-8.457,-8.4687,-8.4961,-8.5273,-8.5312,-8.5429,-8.5703,-8.6523,-8.6836,-8.6289,-8.6953,-8.75,-8.75,-8.75,-8.75,-8.75,-8.75,-8.75,-8.75,-8.75,-8.7422,-8.7226,-8.701,-8.6843,-8.6704,-8.6401,-8.6247,-8.6247,-8.6132,-8.6094,-8.6094,-8.6094,-8.6094,0.0,0.0,0.0,-6.6167,-6.7051,-6.7975,-7.1283,-7.2745,-7.363,-7.4437,-7.5284,-7.5938,-7.5976,-7.5976,-7.6553,-7.8207,-7.8477,-7.9092,-8.0785,-8.1054,-8.1093,-8.1093,-8.1093,-8.1093,-8.1093,-8.1823,-8.2285,-8.2285,-8.2285,-8.2285,-8.2285,-8.2362,-8.2747,-8.3593,-8.4478,-8.4478,-8.3632,-8.2747,-8.2285,-8.2285,-8.1477,-8.1093,-8.1093,-8.1131,-8.2054,-8.3593,-8.3632,-8.4555,-8.6094,-8.6055,-8.6055,-8.5901,-8.4209,-8.3555,-8.3439,-8.2593,-8.2432,-8.2624,-8.2593,-8.2862,-8.3124,-8.2265,-8.2148,-8.2304,-8.2304,-8.2304,-8.2344,-8.2344,-8.2344,-8.2539,-8.3398,-8.4258,-8.4453,-8.2773,-8.3008,-8.3359,-8.2539,-8.2969,-8.3554,-8.3554,-8.289,-8.2617,-8.3437,-8.3594,-8.3906,-8.4726,-8.5625,-8.6172,-8.6172,-8.6953,-8.75,-8.75,-8.75,-8.75,-8.75,-8.75,-8.75,-8.75,-8.75,-8.75,-8.75,-8.7226,-8.7107,-8.7109,-8.6698,-8.6511,-8.6517,-8.6247,-8.6094,-8.6094,-8.6094,-8.6094,-5.9973,0.0,0.0,0.0,0.0,0.0,-6.8282,-6.9667,-7.0975,-7.1783,-7.3168,-7.4361,-7.4938,-7.5553,-7.6361,-7.7438,-7.813,-7.8669,-7.9131,-8.0285,-8.1093,-8.1093,-8.1093,-8.1093,-8.1093,-8.1823,-8.2054,-8.1477,-8.1977,-8.2285,-8.2285,-8.3516,-8.4286,-8.4516,-8.4786,-8.4786,-8.4555,-8.3054,-8.2285,-8.2285,-8.1477,-8.1093,-8.1131,-8.1708,-8.2554,-8.3632,-8.4286,-8.5132,-8.6055,-8.5478,-8.5247,-8.5055,-8.3324,-8.267,-8.2554,-8.1747,-8.1477,-8.1554,-8.167,-8.1926,-8.2145,-8.2037,-8.2148,-8.2304,-8.2304,-8.2734,-8.3242,-8.3242,-8.3242,-8.3281,-8.3554,-8.4258,-8.4765,-8.4297,-8.3867,-8.3515,-8.3281,-8.2929,-8.2656,-8.2656,-8.2969,-8.332,-8.3554,-8.3594,-8.3672,-8.3906,-8.5234,-8.5976,-8.5351,-8.6562,-8.75,-8.75,-8.75,-8.75,-8.75,-8.75,-8.75,-8.75,-8.75,-8.75,-8.75,-8.7226,-8.7099,-8.7087,-8.6839,-8.6726,-8.6709,-8.6286,-8.6094,-8.6094,-8.6094,-8.6094,-6.0165,-6.1396,-6.3051,-6.4128,0.0,0.0,-6.7859,-6.8975,-7.0014,-7.1206,-7.2552,-7.363,-7.413,-7.4899,-7.563,-7.613,-7.7476,-7.8631,-7.8977,-8.0246,-8.1093,-8.1093,-8.1093,-8.1093,-8.1093,-8.1516,-8.1593,-8.1131,-8.1516,-8.1939,-8.2285,-8.3593,-8.4362,-8.4362,-8.5055,-8.4901,-8.3824,-8.317,-8.2477,-8.1785,-8.1323,-8.1285,-8.1593,-8.1747,-8.267,-8.4132,-8.4286,-8.5016,-8.6055,-8.5593,-8.5401,-8.5286,-8.3901,-8.317,-8.2747,-8.19,-8.14,-8.1131,-8.1323,-8.1516,-8.1735,-8.1943,-8.2124,-8.2304,-8.2304,-8.289,-8.3515,-8.3164,-8.3047,-8.3047,-8.3047,-8.3711,-8.4258,-8.3906,-8.3984,-8.3945,-8.3203,-8.2929,-8.2734,-8.2383,-8.2695,-8.3164,-8.3554,-8.3594,-8.3711,-8.4101,-8.5312,-8.6015,-8.5508,-8.664,-8.75,-8.75,-8.75,-8.75,-8.75,-8.75,-8.75,-8.75,-8.75,-8.75,-8.75,-8.7344,-8.726,-8.729,-8.7037,-8.6892,-8.6791,-8.6439,-8.6209,-8.6094,-8.6094,-8.6094,-6.0973,-6.1627,-6.2897,-6.5166,-6.5243,0.0,-6.859,-6.9283,-6.9744,-7.1321,-7.2322,-7.2976,-7.3053,-7.3822,-7.4399,-7.4284,-7.6592,-7.8669,-7.9515,-8.0477,-8.1093,-8.1093,-8.1093,-8.1093,-8.1093,-8.1093,-8.1093,-8.1093,-8.1093,-8.14,-8.2131,-8.2978,-8.3478,-8.3593,-8.4939,-8.4632,-8.2477,-8.3016,-8.2554,-8.1093,-8.1093,-8.1477,-8.2131,-8.1631,-8.2593,-8.4709,-8.4132,-8.4709,-8.6094,-8.6094,-8.6094,-8.6017,-8.5209,-8.4439,-8.3632,-8.267,-8.1862,-8.1246,-8.1362,-8.1578,-8.1899,-8.2078,-8.237,-8.2578,-8.2578,-8.3125,-8.3554,-8.2695,-8.2422,-8.2422,-8.2422,-8.3008,-8.3437,-8.2851,-8.3828,-8.4492,-8.3047,-8.3203,-8.3359,-8.2578,-8.2383,-8.2539,-8.332,-8.3554,-8.3867,-8.4648,-8.5586,-8.6211,-8.6211,-8.6953,-8.75,-8.75,-8.75,-8.75,-8.75,-8.75,-8.75,-8.75,-8.75,-8.75,-8.75,-8.75,-8.7514,-8.7479,-8.7241,-8.7036,-8.6817,-8.6605,-8.6363,-8.6132,-8.6094,-8.6094,-6.2012,-6.2974,-6.4243,-6.4743,-6.5243,0.0,-6.6474,-6.6628,-6.6898,-6.7898,-6.8783,-6.9629,-7.0321,-7.1668,-7.2476,-7.1745,-7.4976,-7.7823,-7.8631,-8.0092,-8.1093,-8.1093,-8.1093,-8.1093,-8.1093,-8.1093,-8.1093,-8.1093,-8.1093,-8.117,-8.1323,-8.2093,-8.2862,-8.3555,-8.3247,-8.3131,-8.3324,-8.217,-8.14,-8.1093,-8.1093,-8.117,-8.1362,-8.2554,-8.3362,-8.3901,-8.5093,-8.5786,-8.6094,-8.6094,-8.6094,-8.6017,-8.5209,-8.4786,-8.4478,-8.2862,-8.2208,-8.2016,-8.1554,-8.1981,-8.2786,-8.2979,-8.3654,-8.4375,-8.4375,-8.4492,-8.4453,-8.3594,-8.3359,-8.3359,-8.3359,-8.3476,-8.3906,-8.5156,-8.5156,-8.5,-8.5351,-8.4453,-8.3554,-8.3398,-8.2773,-8.2344,-8.2539,-8.3125,-8.3672,-8.3828,-8.5195,-8.6211,-8.6211,-8.6953,-8.75,-8.75,-8.75,-8.75,-8.75,-8.75,-8.75,-8.75,-8.75,-8.75,-8.75,-8.75,-8.7499,-8.7486,-8.7465,-8.7302,-8.705,-8.6683,-8.6478,-8.6401,-8.6209,-8.6094,-6.3474,-6.3974,-6.4705,-6.5128,-6.559,0.0,0.0,-6.6513,-6.6744,-6.759,-6.809,-6.8552,-6.8975,-7.009,-7.0937,-7.0898,-7.3783,-7.613,-7.6553,-7.9208,-8.1093,-8.1093,-8.0708,-8.0631,-8.1054,-8.0708,-8.0631,-8.1054,-8.1093,-8.1285,-8.167,-8.2477,-8.3131,-8.3593,-8.3593,-8.3401,-8.2939,-8.2131,-8.1516,-8.1093,-8.1093,-8.1323,-8.1747,-8.2554,-8.3439,-8.4286,-8.5132,-8.5747,-8.6094,-8.6094,-8.6094,-8.6055,-8.567,-8.5247,-8.4786,-8.3939,-8.3401,-8.3086,-8.2855,-8.293,-8.3242,-8.3887,-8.3857,-8.3672,-8.4101,-8.3945,-8.3594,-8.3594,-8.3594,-8.3594,-8.3594,-8.3906,-8.4453,-8.5351,-8.5234,-8.4883,-8.4883,-8.4219,-8.3476,-8.3047,-8.2617,-8.2422,-8.2851,-8.3672,-8.4414,-8.4844,-8.6015,-8.6836,-8.6836,-8.7226,-8.75,-8.75,-8.75,-8.75,-8.75,-8.75,-8.75,-8.75,-8.75,-8.75,-8.75,-8.75,-8.75,-8.75,-8.75,-8.7411,-8.7299,-8.6948,-8.6738,-8.6632,-8.6401,-8.6286,-6.4859,-6.4859,-6.5013,-6.5705,-6.5897,-6.6051,0.0,0.0,0.0,-6.7782,-6.7936,-6.7936,-6.7936,-6.8629,-6.936,-6.986,-7.236,-7.413,-7.3783,-7.7284,-7.9939,-8.0092,-7.9785,-7.9785,-8.0323,-7.9592,-7.9631,-8.1016,-8.0631,-8.0862,-8.2016,-8.2862,-8.3439,-8.3593,-8.4132,-8.3785,-8.2554,-8.2247,-8.1747,-8.1093,-8.1246,-8.1593,-8.2093,-8.2593,-8.3478,-8.467,-8.4978,-8.5517,-8.6094,-8.6094,-8.6094,-8.6094,-8.6094,-8.5709,-8.5132,-8.4978,-8.4555,-8.4157,-8.4185,-8.404,-8.3961,-8.4863,-8.4219,-8.3164,-8.3672,-8.3242,-8.2656,-8.3203,-8.3476,-8.3594,-8.3594,-8.4258,-8.4922,-8.5117,-8.5039,-8.4804,-8.4414,-8.4101,-8.3633,-8.2929,-8.2656,-8.2773,-8.3476,-8.4179,-8.4961,-8.582,-8.6679,-8.7265,-8.7265,-8.7383,-8.75,-8.75,-8.75,-8.75,-8.75,-8.75,-8.75,-8.75,-8.75,-8.75,-8.75,-8.75,-8.75,-8.75,-8.75,-8.75,-8.75,-8.7265,-8.7087,-8.688,-8.6636,-8.6562,-6.5743,-6.5743,-6.5782,-6.5859,-6.5897,-6.5897,-6.6013,0.0,-6.6051,-6.6167,0.0,-6.6167,-6.6167,0.0,0.0,-6.6551,-6.986,-7.1975,-7.0475,-7.3245,-7.5707,-7.6476,-7.7784,-7.84,-7.7784,-7.6938,-7.7746,-8.0862,-7.9015,-7.8746,-8.1093,-8.2016,-8.2785,-8.3555,-8.2939,-8.2862,-8.3439,-8.1977,-8.1208,-8.1093,-8.1823,-8.1823,-8.1323,-8.3555,-8.4286,-8.3824,-8.5324,-8.6017,-8.6094,-8.6094,-8.6094,-8.6094,-8.6094,-8.6055,-8.5901,-8.517,-8.4939,-8.4951,-8.4376,-8.4824,-8.565,-8.5956,-8.5937,-8.5625,-8.4961,-8.414,-8.332,-8.2656,-8.3008,-8.3594,-8.3594,-8.4258,-8.5078,-8.5859,-8.5469,-8.5312,-8.6758,-8.5859,-8.4726,-8.4609,-8.3984,-8.3476,-8.3594,-8.3672,-8.4023,-8.4922,-8.5781,-8.6367,-8.6367,-8.7031,-8.75,-8.75,-8.75,-8.75,-8.75,-8.75,-8.75,-8.75,-8.75,-8.75,-8.75,-8.75,-8.75,-8.75,-8.75,-8.75,-8.75,-8.7461,-8.7303,-8.7049,-8.6884,-8.6785,-6.5897,-6.5897,-6.5897,-6.5897,-6.5897,-6.5897,-6.5897,-6.5897,-6.5897,-6.5897,0.0,0.0,0.0,0.0,0.0,0.0,-6.8513,-6.9744,-6.9052,-7.0975,-7.3168,-7.5014,-7.5438,-7.5861,-7.6476,-7.6207,-7.6784,-7.8746,-7.7438,-7.7438,-7.9477,-8.0862,-8.1785,-8.2131,-8.2747,-8.2747,-8.217,-8.19,-8.1554,-8.1093,-8.1439,-8.1439,-8.1131,-8.2708,-8.317,-8.2939,-8.467,-8.5401,-8.544,-8.5901,-8.6094,-8.6094,-8.6094,-8.6094,-8.6094,-8.5901,-8.594,-8.6082,-8.591,-8.599,-8.5933,-8.499,-8.5039,-8.5195,-8.3828,-8.3125,-8.2773,-8.2383,-8.3281,-8.4336,-8.4336,-8.539,-8.6484,-8.6875,-8.5898,-8.5234,-8.6484,-8.539,-8.4297,-8.4804,-8.4219,-8.375,-8.4258,-8.4336,-8.4297,-8.4179,-8.5742,-8.6758,-8.6289,-8.6953,-8.75,-8.75,-8.75,-8.75,-8.75,-8.75,-8.75,-8.75,-8.75,-8.75,-8.75,-8.75,-8.75,-8.75,-8.75,-8.75,-8.75,-8.75,-8.7422,-8.7344,-8.7079,-8.6961,-6.5897,-6.5897,-6.5897,-6.5897,-6.5897,-6.5897,-6.5897,-6.6051,-6.6167,-6.5936,-6.609,0.0,0.0,0.0,-6.609,-6.6667,0.0,-6.7975,-6.7744,-6.8936,-7.0629,-7.2706,-7.286,-7.3553,-7.5476,-7.4822,-7.5014,-7.6823,-7.5476,-7.5745,-7.8361,-7.9939,-8.1054,-8.1747,-8.2978,-8.3016,-8.1785,-8.2362,-8.2131,-8.1093,-8.1554,-8.1554,-8.1131,-8.2439,-8.2862,-8.2747,-8.4478,-8.5247,-8.5286,-8.5863,-8.6132,-8.6209,-8.6209,-8.6247,-8.6324,-8.644,-8.6632,-8.6896,-8.705,-8.6845,-8.6328,-8.4804,-8.457,-8.4609,-8.3125,-8.25,-8.2304,-8.2304,-8.3398,-8.4609,-8.4844,-8.6015,-8.7187,-8.7422,-8.6367,-8.5508,-8.6367,-8.5195,-8.414,-8.4765,-8.4219,-8.3711,-8.4101,-8.4375,-8.4336,-8.3711,-8.5625,-8.6836,-8.5976,-8.6797,-8.75,-8.75,-8.75,-8.75,-8.75,-8.75,-8.75,-8.75,-8.75,-8.75,-8.75,-8.75,-8.75,-8.75,-8.75,-8.75,-8.75,-8.75,-8.75,-8.75,-8.7304,-8.7226,-6.5897,-6.5897,-6.5897,-6.5897,-6.5897,-6.5897,-6.5897,-6.6513,-6.6821,-6.6051,-6.6513,-6.6821,-6.6051,-6.5897,-6.5897,-6.5936,-6.6628,0.0,0.0,-6.6705,-6.7552,-6.8513,-7.0014,-7.1975,-7.4514,-7.1822,-7.1629,-7.5745,-7.2937,-7.3245,-7.8207,-7.9361,-8.0977,-8.3439,-8.3555,-8.3555,-8.3516,-8.3555,-8.2708,-8.1131,-8.2747,-8.267,-8.117,-8.367,-8.4362,-8.3632,-8.5324,-8.6055,-8.6055,-8.6094,-8.6247,-8.6478,-8.6478,-8.6594,-8.6781,-8.6555,-8.6748,-8.7089,-8.7089,-8.7234,-8.7304,-8.6406,-8.5547,-8.4726,-8.3828,-8.2969,-8.2304,-8.2304,-8.2969,-8.3828,-8.4687,-8.5586,-8.6445,-8.7304,-8.6797,-8.6406,-8.7265,-8.6094,-8.4883,-8.4883,-8.4219,-8.3359,-8.2539,-8.3086,-8.3633,-8.3594,-8.5117,-8.5937,-8.5039,-8.6445,-8.75,-8.75,-8.75,-8.75,-8.75,-8.75,-8.75,-8.75,-8.75,-8.75,-8.75,-8.75,-8.75,-8.75,-8.75,-8.75,-8.75,-8.75,-8.75,-8.75,-8.75,-8.75,-6.5897,-6.5897,-6.5897,-6.5897,-6.5897,-6.5897,-6.5897,-6.6513,-6.6859,-6.6051,-6.6551,-6.6859,-6.6051,-6.5897,-6.5897,-6.5897,-6.6128,-6.6205,0.0,-6.6128,-6.659,-6.7436,-6.9513,-7.1014,-7.136,-7.086,-7.1091,-7.2514,-7.2091,-7.3014,-7.5822,-7.7861,-7.9862,-8.1862,-8.3016,-8.3593,-8.3593,-8.3593,-8.3016,-8.19,-8.1939,-8.1631,-8.1131,-8.1977,-8.2208,-8.2054,-8.3708,-8.4439,-8.4555,-8.5824,-8.6401,-8.6505,-8.6674,-8.6842,-8.7012,-8.6935,-8.6973,-8.7133,-8.73,-8.7414,-8.7265,-8.582,-8.5156,-8.4648,-8.3164,-8.2929,-8.3047,-8.2461,-8.375,-8.5273,-8.4961,-8.5976,-8.7148,-8.7422,-8.6836,-8.6445,-8.7304,-8.6133,-8.5078,-8.5664,-8.4609,-8.3515,-8.3203,-8.3398,-8.3594,-8.3594,-8.5586,-8.6758,-8.5859,-8.6797,-8.75,-8.75,-8.75,-8.75,-8.75,-8.75,-8.75,-8.75,-8.75,-8.75,-8.75,-8.75,-8.75,-8.75,-8.75,-8.75,-8.75,-8.75,-8.75,-8.75,-8.75,-8.75,-6.5897,-6.5897,-6.5974,-6.6244,-6.632,-6.632,-6.632,-6.6974,-6.7244,-6.6128,-6.6551,-6.6859,-6.6051,-6.5897,-6.5897,-6.5897,-6.5897,-6.5897,0.0,-6.5897,-6.609,-6.659,-6.8359,-6.959,-6.9706,-6.959,-6.9937,-7.0821,-7.1168,-7.2283,-7.4591,-7.6823,-7.9131,-8.1439,-8.2554,-8.3285,-8.3593,-8.3593,-8.3016,-8.1862,-8.1631,-8.1362,-8.1093,-8.14,-8.1516,-8.1631,-8.3401,-8.417,-8.4286,-8.5901,-8.6632,-8.6698,-8.6494,-8.6776,-8.7242,-8.7127,-8.7185,-8.7293,-8.7431,-8.75,-8.7226,-8.5469,-8.4883,-8.4648,-8.3203,-8.2929,-8.3164,-8.3203,-8.4219,-8.5273,-8.5351,-8.6211,-8.7109,-8.7422,-8.707,-8.6719,-8.6992,-8.5898,-8.4961,-8.5234,-8.4101,-8.3125,-8.3125,-8.3398,-8.3476,-8.3164,-8.5351,-8.6719,-8.5859,-8.6484,-8.7031,-8.7031,-8.7031,-8.7148,-8.7461,-8.75,-8.75,-8.75,-8.75,-8.75,-8.75,-8.75,-8.75,-8.75,-8.75,-8.75,-8.75,-8.75,-8.75,-8.75,-8.75,-8.75]}]]